GFSNW_prec_cthk_003.txt.gz
RH
49 50 51 48 41 40 41 44 52 39 36 35 35 36 37 38 33 27 26 24 29 30 32 34 34 33 32 33 30 30 36 44 46 34 30 30 30 27 25 28 26 35 35 22
57 53 54 49 43 40 40 49 50 41 32 35 35 33 36 36 33 30 28 29 27 33 43 46 42 37 36 34 31 31 37 47 49 38 31 29 27 27 26 26 31 33 41 21
60 57 53 50 46 43 45 50 52 46 35 29 28 32 35 37 36 32 31 32 31 36 47 52 54 46 43 38 38 31 35 43 40 38 31 28 28 28 28 25 30 29 31 22
62 58 52 51 50 47 49 47 44 38 43 33 27 30 34 40 38 33 30 31 32 31 50 53 54 52 49 46 43 39 34 37 39 38 35 30 24 27 27 22 23 27 22 23
63 58 55 51 52 51 52 45 40 36 35 31 28 29 35 39 38 35 30 31 33 32 44 49 56 50 47 39 42 40 36 38 38 40 37 33 28 25 24 27 26 24 25 23
63 60 51 50 49 49 53 44 36 29 38 35 31 31 30 39 39 37 32 27 33 33 32 37 42 41 39 39 38 37 35 40 35 33 36 32 30 24 23 24 24 25 28 20
60 54 53 48 47 47 46 42 36 33 38 36 30 28 28 37 39 38 34 29 29 32 32 32 37 42 42 41 38 34 35 33 34 38 35 33 20 23 23 24 24 25 25 24
55 53 51 49 48 45 44 40 33 32 43 33 30 29 30 39 46 40 37 34 32 34 35 38 42 47 45 48 45 40 35 35 37 39 34 27 21 24 28 30 26 26 26 28
52 54 52 49 47 44 44 42 36 34 36 36 27 30 29 37 44 41 39 38 35 36 38 38 43 46 40 40 46 47 43 39 38 42 35 34 23 23 29 29 32 25 28 32
59 56 53 50 46 44 44 51 37 43 45 37 30 28 30 34 38 39 40 42 40 36 38 45 43 40 40 39 43 50 51 49 43 47 43 34 27 30 32 35 31 30 31 34
64 59 52 48 45 42 42 41 46 48 50 43 34 26 29 37 39 42 41 45 45 43 45 46 45 47 45 43 40 46 43 46 48 48 47 41 31 36 41 38 38 38 38 40
64 56 51 46 42 41 40 51 54 56 54 44 35 32 39 42 37 35 44 45 45 44 46 45 47 53 52 48 45 41 42 40 43 41 40 34 36 37 37 38 39 41 43 45
60 55 50 45 40 41 50 69 66 63 58 48 45 47 45 50 51 48 45 47 44 40 39 45 50 50 46 48 46 44 40 40 41 40 37 39 38 38 38 40 43 46 48 50
61 54 48 42 40 57 67 64 61 66 71 66 63 63 60 53 53 48 45 42 42 40 40 41 45 42 41 44 43 44 40 41 43 43 40 39 39 40 43 46 47 49 52 55
63 63 54 43 49 61 76 66 64 60 56 55 60 61 63 55 52 49 45 41 38 38 40 45 45 43 45 47 48 46 40 41 45 46 40 45 46 50 56 60 62 62 60 61
71 67 58 53 59 69 79 75 68 59 58 54 63 61 59 54 50 49 47 45 40 37 37 39 41 40 42 52 52 36 35 41 44 49 55 60 64 67 67 66 66 65 65 65
73 72 63 62 71 77 75 71 66 62 58 55 65 66 66 62 59 54 48 39 35 34 36 38 41 44 47 52 52 43 49 54 60 63 65 66 69 70 71 70 70 70 71 75
71 72 71 58 56 61 63 61 59 51 43 39 48 53 55 59 51 46 38 37 40 43 48 50 51 55 58 64 59 57 55 55 59 63 66 69 73 75 77 78 79 83 83 86
74 70 68 66 61 56 57 51 49 46 44 46 47 48 52 48 50 51 53 57 60 60 60 61 62 65 65 62 60 58 58 60 62 68 72 77 80 81 83 85 86 90 92 90
74 72 71 69 70 67 62 59 56 53 54 52 56 56 58 60 66 70 71 70 72 71 67 65 64 65 62 59 61 64 70 72 75 79 82 85 88 86 88 91 94 96 96 98
77 75 78 78 74 69 67 69 69 70 69 67 68 68 72 73 74 76 79 79 75 71 66 68 69 69 64 71 76 80 82 84 85 88 90 92 93 93 94 96 96 96 95 93
80 78 77 76 75 74 79 80 79 76 76 75 77 78 78 78 81 82 80 78 75 76 78 82 82 79 83 84 87 89 91 92 93 94 92 93 93 91 90 90 89 90 88 86
83 82 81 81 83 84 80 80 77 76 73 73 77 80 78 77 77 81 81 81 83 86 89 89 86 85 88 90 89 90 89 86 83 83 82 81 83 83 83 83 81 78 74 72
85 83 84 82 83 81 78 76 76 78 79 80 79 80 85 89 93 97 97 96 96 94 91 89 90 91 91 91 90 85 83 81 83 81 81 81 78 75 74 73 70 63 56 51
95 90 92 90 87 84 82 80 81 81 83 86 92 94 95 97 97 98 98 97 94 92 91 95 93 94 90 90 86 85 85 83 79 76 75 72 74 71 67 60 55 54 53 51
97 97 97 95 93 94 95 95 96 95 96 98 98 98 99 97 97 97 98 97 95 93 95 95 95 90 89 87 86 81 80 74 69 66 70 74 70 62 58 52 49 48 49 48
82 89 97 98 98 98 98 98 98 98 98 99 99 98 98 97 97 94 90 88 90 95 95 90 84 81 79 74 73 74 70 68 68 71 71 64 61 52 48 49 50 50 52 50

GFSNW_prec_cthk_006.txt.gz
RH
52 66 53 42 49 52 47 42 48 50 54 53 36 33 30 35 36 29 24 22 22 21 23 23 25 24 25 24 25 26 27 34 40 38 30 30 32 30 26 25 26 29 33 18
48 80 54 48 54 50 45 45 53 57 58 48 39 33 33 38 36 29 28 22 27 29 31 33 33 32 32 32 30 30 27 33 41 38 35 30 28 27 23 23 26 26 36 17
67 93 55 56 57 52 50 50 59 62 54 40 32 32 34 35 36 31 29 29 30 29 34 40 44 40 35 35 33 32 29 32 39 43 35 32 30 25 23 20 25 21 22 16
87 84 61 67 64 56 49 56 57 54 51 38 32 31 33 34 38 35 32 31 30 29 40 46 50 48 41 42 41 36 33 32 38 41 36 31 26 24 23 22 21 22 16 17
96 80 73 78 71 60 51 62 60 55 41 34 31 32 33 35 40 36 32 32 30 32 36 44 49 46 47 46 47 39 35 38 35 39 36 33 29 24 22 22 22 20 19 18
93 78 82 77 70 55 53 63 56 49 46 36 31 28 34 35 42 39 34 31 32 35 34 42 48 50 47 44 40 41 39 38 35 33 36 36 38 26 22 20 21 22 23 22
78 84 79 71 62 57 55 66 53 49 47 38 33 28 31 40 41 41 36 30 30 36 35 32 31 36 40 39 39 37 39 35 36 38 36 51 21 22 21 22 22 22 22 24
88 83 74 66 62 60 59 56 50 46 48 38 33 31 30 37 44 44 40 35 32 34 34 35 36 40 45 47 42 39 35 34 40 48 33 24 18 20 21 24 20 23 24 25
85 78 68 62 60 60 60 52 47 43 40 34 32 30 32 36 40 45 42 40 36 36 37 39 43 41 35 39 43 45 41 37 38 43 52 55 25 23 28 28 27 24 25 28
78 71 64 57 56 58 58 55 49 44 40 34 34 30 32 33 40 45 42 39 39 37 40 49 44 39 36 36 40 48 46 47 50 44 50 33 27 28 30 33 31 30 32 34
71 63 58 53 52 53 55 50 50 50 43 40 39 33 30 29 38 42 41 42 40 40 45 47 40 45 37 36 35 39 40 44 50 45 53 50 28 33 37 36 34 34 36 39
61 58 54 52 52 53 52 49 51 41 42 52 43 34 30 28 32 40 40 38 36 39 43 44 44 49 47 42 42 38 40 37 38 36 35 32 33 34 35 36 36 37 39 42
57 55 54 53 52 50 50 58 55 45 55 56 51 42 33 30 38 39 44 43 42 44 45 44 46 53 47 51 43 39 36 35 37 37 33 34 36 36 37 38 39 41 44 44
60 56 52 51 50 51 47 50 53 53 61 66 53 42 43 44 46 44 40 43 48 47 44 45 47 48 41 46 41 41 36 38 38 37 35 36 35 38 41 46 50 55 59 64
63 54 49 47 46 47 50 55 71 69 69 61 50 45 49 48 45 48 53 48 47 49 46 44 44 42 45 45 43 43 36 39 41 40 37 40 43 50 56 61 65 67 68 68
51 49 47 44 43 49 59 73 76 82 81 74 70 64 63 59 60 65 57 46 45 41 40 43 40 39 39 48 45 36 34 37 40 42 46 53 59 64 67 70 70 70 70 70
55 49 47 46 53 65 72 87 72 79 80 73 82 83 77 72 68 64 57 50 45 43 41 42 40 38 40 46 46 44 44 48 53 56 57 58 61 66 67 69 72 75 77 81
75 72 72 78 80 80 74 68 64 65 65 60 74 76 76 69 66 62 58 54 47 43 42 41 43 48 52 57 55 56 57 58 58 58 60 63 64 70 75 78 81 86 89 91
79 82 81 82 82 84 83 79 74 70 63 61 57 68 75 72 68 67 65 55 50 46 49 54 58 64 64 61 60 60 61 63 64 64 67 72 78 82 84 86 90 92 93 94
74 67 63 69 74 75 73 72 70 65 61 58 61 57 54 52 53 50 49 51 59 65 67 68 69 70 65 63 64 64 66 68 73 78 80 85 88 91 92 93 94 94 91 88
74 76 77 73 65 63 63 66 65 64 62 58 56 58 56 55 57 61 66 72 75 74 73 76 76 71 67 74 79 80 81 83 86 88 89 88 88 87 86 86 85 85 84 84
81 80 80 77 75 72 73 74 71 67 69 66 68 66 66 68 72 77 78 80 81 83 78 80 77 68 76 83 86 88 86 84 84 82 80 80 80 81 80 80 78 74 70 67
81 79 77 76 78 81 81 79 78 76 76 78 80 79 79 78 79 82 83 83 84 78 81 80 76 80 89 91 91 89 85 85 82 80 76 74 73 71 66 60 57 58 59 58
89 90 91 89 90 85 82 79 79 81 81 82 82 82 82 84 85 85 85 86 88 90 89 87 88 93 95 93 90 88 87 82 77 74 76 73 67 59 57 57 54 51 53 53
94 93 96 93 88 87 86 86 84 81 80 79 81 83 84 86 89 91 94 96 94 89 87 93 95 97 96 94 89 88 81 77 79 77 68 57 57 57 55 51 48 44 43 42
97 96 96 94 91 91 90 88 88 89 88 90 91 91 94 95 97 97 98 98 94 93 95 97 97 96 94 91 87 87 78 67 66 60 60 58 53 49 44 43 47 47 46 47
97 98 98 98 97 98 98 98 98 98 98 99 98 98 98 98 97 97 96 97 98 98 96 93 88 86 83 78 70 70 68 58 56 57 57 56 54 52 54 56 55 54 52 51

GFSNW_prec_cthk_009.txt.gz
RH
40 29 36 40 61 43 49 56 47 51 47 55 54 51 38 38 34 30 26 31 29 31 36 29 33 35 39 30 28 23 25 35 45 35 33 26 33 38 38 33 35 31 34 23
46 42 43 61 63 40 50 58 54 67 55 56 61 48 40 39 38 32 26 24 28 26 29 31 30 32 34 29 24 27 28 27 40 38 32 29 25 27 28 28 30 25 37 24
54 52 51 74 66 47 60 58 60 67 63 53 58 47 43 36 39 36 29 25 29 28 34 34 41 38 32 30 31 28 28 27 34 42 49 42 35 27 26 24 27 24 23 20
58 58 62 79 70 54 72 62 51 53 59 54 62 49 38 35 36 36 30 31 26 31 34 38 39 45 39 34 35 32 33 32 33 36 39 39 32 30 27 23 21 25 21 19
70 60 73 86 73 72 76 61 56 57 64 52 61 49 36 36 38 35 32 32 30 34 39 37 47 50 50 42 42 42 38 39 35 34 33 37 34 28 23 23 21 21 20 20
74 66 77 91 79 68 69 69 62 60 67 62 54 44 39 39 41 43 39 31 39 35 41 42 48 52 51 50 51 50 47 42 40 36 36 35 40 29 25 23 23 22 23 23
78 75 86 94 71 68 68 77 73 66 74 63 49 43 39 39 41 44 37 35 36 37 32 35 40 46 49 48 48 46 45 42 42 39 41 53 23 23 23 24 23 24 25 25
72 88 88 88 72 78 76 82 70 78 75 64 48 38 35 40 43 58 42 35 32 30 35 37 35 36 39 42 41 40 39 40 43 52 35 27 23 20 21 21 21 25 26 25
84 97 91 83 80 82 78 86 64 67 68 54 41 40 34 49 49 52 48 40 35 31 37 37 36 40 35 43 44 43 40 41 39 39 52 57 32 27 26 26 27 29 28 30
95 98 94 90 83 82 82 82 64 61 58 55 44 38 36 37 45 50 48 44 39 35 39 47 40 40 35 38 38 48 45 48 49 45 51 37 29 28 26 29 35 33 32 32
97 95 93 85 82 76 83 82 60 58 57 55 43 38 38 36 42 54 49 45 43 40 42 47 42 45 39 37 35 37 38 43 50 47 56 50 27 28 32 38 33 34 35 37
92 92 83 84 78 74 77 78 55 53 52 57 40 40 36 38 41 47 47 39 38 35 38 45 48 48 46 39 43 36 41 37 42 35 39 37 30 30 34 34 33 35 37 37
87 82 77 74 71 68 71 75 55 54 54 55 50 42 41 32 31 41 47 46 42 38 39 41 47 51 45 50 42 40 36 34 34 33 33 35 35 34 35 36 38 40 42 46
78 73 70 68 65 65 77 81 59 55 49 51 62 48 44 33 30 31 43 44 39 38 44 50 51 53 43 46 43 40 38 37 36 36 33 35 37 39 43 40 45 50 55 61
70 66 62 59 60 64 79 66 52 46 46 60 62 53 46 38 32 35 39 42 47 46 55 55 53 46 43 44 43 41 38 37 41 41 40 37 40 46 47 52 59 63 64 64
66 61 59 58 59 64 73 63 56 49 52 72 67 59 48 46 45 48 52 54 54 53 57 56 50 42 42 48 42 40 37 35 36 36 40 43 48 56 57 58 59 59 59 61
62 61 60 60 62 66 66 64 51 56 73 73 69 62 55 57 56 56 56 54 58 61 56 54 46 40 40 46 41 42 39 41 45 49 52 59 58 60 60 62 63 66 70 76
63 62 62 64 69 68 70 59 58 72 89 86 72 69 65 58 60 61 63 74 71 67 57 51 48 43 46 46 46 47 50 53 55 55 58 60 62 65 69 72 75 78 81 82
61 60 61 65 70 73 65 82 87 93 87 80 83 80 79 74 77 78 79 76 74 62 56 53 50 52 54 52 57 59 61 63 65 65 65 67 70 73 77 83 87 85 86 85
67 69 70 70 74 79 79 90 86 83 78 71 75 82 84 84 83 83 82 77 73 68 60 57 59 61 58 62 67 71 70 72 75 76 77 80 83 87 88 86 83 82 82 79
75 75 81 82 85 87 87 89 81 77 74 69 68 68 72 76 80 81 79 71 65 65 63 66 69 67 65 74 77 73 73 76 78 82 86 88 87 86 82 81 80 78 73 69
79 83 88 87 84 82 81 83 80 79 78 74 72 70 66 64 63 61 61 63 64 70 67 75 71 71 76 77 77 78 81 82 84 84 84 85 84 83 78 72 67 61 51 45
75 76 75 77 80 86 81 80 79 75 71 70 67 65 64 64 63 68 72 77 83 78 83 76 73 74 76 81 88 91 90 88 85 84 81 77 71 65 61 56 48 44 42 40
84 87 88 91 90 83 80 78 78 79 80 78 76 77 80 82 83 86 87 88 87 87 86 78 76 82 88 93 94 93 91 86 82 79 74 69 62 56 49 45 42 41 40 39
96 96 98 95 93 89 86 85 85 85 84 84 84 84 83 86 89 88 89 91 92 86 82 84 88 93 97 98 97 93 86 84 83 80 72 62 55 51 46 41 38 38 39 41
98 97 96 96 96 92 92 92 91 91 91 89 87 87 87 88 88 89 90 91 87 89 92 94 98 98 98 94 92 92 88 80 79 70 59 55 51 49 45 45 45 46 49 49
96 96 97 96 95 95 94 94 94 92 91 90 91 92 94 95 97 97 96 97 97 98 98 98 98 97 96 93 90 80 74 69 60 52 54 54 55 55 53 52 53 54 55 54

GFSNW_prec_cthk_012.txt.gz
RH
41 36 28 21 24 38 49 51 43 44 42 49 45 50 47 44 48 37 37 38 39 36 45 32 32 48 45 35 27 29 27 31 42 34 35 26 34 44 36 45 31 45 45 28
51 44 32 28 28 46 47 53 49 64 44 43 48 45 46 45 50 43 33 33 39 34 46 45 33 41 52 41 30 28 29 27 37 41 47 31 24 22 31 44 42 41 52 30
60 49 43 34 37 50 59 58 61 76 57 43 48 46 43 48 49 44 37 35 40 34 33 37 36 36 38 34 29 25 28 31 30 41 38 52 52 31 28 31 45 36 30 23
67 57 47 38 44 63 68 62 51 60 54 52 48 51 50 47 48 43 47 36 30 33 31 39 40 43 45 36 28 26 26 28 29 32 42 48 51 43 37 32 30 31 26 29
76 61 59 44 47 74 75 54 50 53 54 53 51 51 50 46 45 42 47 49 37 34 35 34 44 43 49 40 37 33 33 37 38 36 33 38 39 40 34 30 32 31 25 29
79 69 62 49 58 84 72 55 55 63 60 57 58 51 53 53 45 45 45 39 42 40 48 46 49 47 62 52 52 45 48 50 48 43 37 36 39 33 31 29 29 26 28 24
75 74 57 55 73 80 62 55 73 75 61 58 46 58 57 51 43 62 51 48 55 50 41 41 45 47 56 54 55 55 59 57 52 52 46 51 26 25 25 26 26 26 27 30
74 68 58 62 87 72 66 73 82 83 75 56 56 65 59 46 47 65 55 54 54 46 37 35 40 42 48 48 46 49 51 51 54 63 45 31 30 26 24 23 24 25 26 26
70 57 62 79 79 70 75 67 81 86 79 63 48 60 61 47 63 63 65 52 49 42 40 42 38 42 29 44 44 38 41 48 52 47 55 56 37 31 27 26 31 29 28 30
72 63 91 96 85 76 79 72 98 89 89 69 58 53 53 44 65 65 61 50 42 40 44 49 42 42 36 47 45 49 49 52 56 54 58 47 35 32 28 32 39 35 34 32
68 73 94 93 90 83 74 74 85 97 80 70 63 57 49 50 64 59 56 54 47 46 44 45 42 47 42 38 36 39 41 48 54 54 63 56 30 29 33 40 37 32 33 34
60 80 86 94 85 80 78 91 97 89 91 68 62 62 52 46 57 61 53 43 43 39 38 40 46 50 51 41 44 36 43 38 46 41 45 37 33 32 31 33 34 34 35 37
63 87 91 94 94 84 73 84 83 96 80 76 64 65 54 41 46 58 65 50 51 44 41 40 45 49 43 48 43 40 39 36 38 36 29 35 36 36 34 38 37 40 40 42
79 84 92 94 88 83 98 95 93 82 76 71 73 57 47 36 38 47 54 56 53 45 44 44 45 48 42 50 45 47 40 39 36 36 34 35 37 42 44 40 40 44 49 56
94 89 94 90 86 80 95 96 96 89 58 53 62 60 45 36 33 34 46 53 49 49 48 47 50 46 50 52 45 43 37 38 41 44 42 38 40 44 42 44 47 51 56 57
91 95 90 87 83 86 98 96 87 73 55 51 56 60 53 42 38 35 36 41 44 50 49 52 48 49 51 55 50 38 40 38 38 40 38 39 42 41 44 50 54 57 59 62
88 88 85 84 85 85 95 90 77 68 53 50 67 59 60 57 48 46 45 45 50 53 49 53 51 52 56 52 46 42 40 38 36 37 42 50 51 52 55 58 62 65 66 67
84 85 86 86 84 89 91 83 80 62 55 54 75 75 67 62 60 56 52 58 57 60 60 61 60 58 60 53 45 44 42 44 46 49 52 55 59 62 67 70 73 74 76 81
81 81 81 86 90 88 89 84 76 62 54 71 92 77 75 65 64 59 63 66 68 60 59 61 62 66 60 55 50 47 50 57 59 59 61 65 70 74 76 79 80 83 84 81
77 80 82 91 90 88 86 81 72 62 65 86 91 80 73 66 66 68 66 66 69 68 80 82 73 67 58 57 55 58 62 66 67 69 70 75 76 79 82 85 87 84 80 77
81 82 88 89 91 89 88 81 73 69 84 85 88 88 82 75 73 71 75 78 84 86 80 78 74 71 60 59 61 67 70 74 77 75 76 78 83 87 89 87 84 79 73 66
79 79 85 91 90 90 89 88 83 95 95 86 84 86 87 90 90 94 96 93 88 86 78 78 71 67 64 66 73 78 79 78 76 78 83 88 90 88 86 79 71 65 59 52
77 77 81 86 90 92 90 94 96 90 86 83 78 77 77 78 79 81 80 83 83 73 75 68 67 66 71 80 83 81 79 82 84 87 89 86 81 77 73 69 65 61 47 39
82 85 93 96 94 95 89 89 88 84 81 81 78 75 75 76 76 77 75 78 74 77 75 68 74 80 84 86 84 84 88 89 88 86 81 79 78 76 71 64 59 44 36 33
93 94 97 96 95 90 89 89 87 85 86 85 80 77 79 83 84 83 82 84 86 81 82 82 82 84 87 89 93 95 94 91 86 83 80 80 77 69 63 52 42 37 36 36
98 97 98 96 94 94 93 91 91 90 91 87 86 86 89 92 93 93 91 92 89 87 87 87 88 91 94 96 98 95 90 93 90 83 78 72 67 61 53 47 43 43 45 48
97 97 98 98 98 96 95 93 93 94 92 93 94 95 96 95 96 95 94 92 91 91 94 96 97 98 97 96 95 91 89 87 80 70 68 66 59 56 54 53 53 53 55 58

GFSNW_prec_cthk_015.txt.gz
RH
36 38 38 37 28 23 31 41 46 32 51 50 53 48 46 35 39 47 49 46 42 30 41 47 37 33 49 45 42 51 49 52 54 54 40 33 30 32 42 55 36 48 52 42
42 46 48 43 35 25 34 50 52 46 53 42 48 38 37 38 47 50 47 43 35 29 45 59 40 36 52 53 52 46 38 39 48 48 45 39 38 29 37 43 45 46 50 36
47 52 51 50 45 31 39 54 57 64 53 33 38 37 32 40 45 54 49 41 34 35 52 54 52 41 43 42 48 42 34 31 33 39 28 37 45 48 33 32 49 46 46 32
62 62 58 55 49 37 50 60 49 54 53 48 44 38 33 37 52 52 48 42 34 37 43 50 53 50 45 42 39 36 33 30 26 26 28 39 43 47 49 36 35 40 34 30
68 61 63 58 54 41 63 63 45 50 48 48 47 39 37 35 48 52 44 45 33 38 36 39 43 45 41 36 37 33 27 31 26 27 27 36 39 49 45 43 38 36 35 32
69 62 65 63 62 59 63 64 51 48 53 55 50 36 37 33 50 47 39 40 37 37 38 36 38 40 43 44 45 42 35 38 39 40 36 33 37 28 31 34 40 38 34 31
63 58 68 66 67 61 64 61 58 61 58 59 39 40 40 35 48 55 42 40 44 49 41 40 43 48 52 54 68 60 50 52 56 59 50 44 27 24 26 28 31 30 32 33
60 64 74 67 67 64 65 68 67 77 66 57 51 41 40 42 59 56 51 49 46 52 45 54 60 61 52 56 62 68 68 64 68 62 57 41 30 28 28 27 31 29 30 32
68 76 77 68 57 70 73 78 59 82 83 61 45 44 46 56 62 63 53 59 58 55 61 51 47 52 40 46 46 49 51 52 54 57 57 50 36 31 29 28 38 32 31 32
79 86 83 64 56 71 79 84 74 73 78 76 62 48 47 62 68 64 64 82 62 53 70 61 45 42 33 47 47 47 49 52 56 61 58 47 37 33 31 37 40 34 33 33
91 87 77 54 63 76 79 78 75 71 81 80 70 58 59 64 58 61 58 92 68 56 54 48 46 48 44 47 44 43 41 50 54 59 61 54 31 30 31 36 34 33 33 31
97 84 63 49 77 85 85 74 66 69 90 90 77 57 58 63 56 55 54 72 53 38 42 42 44 48 50 46 50 38 42 38 42 41 44 32 28 30 31 31 32 31 32 35
80 70 56 48 65 69 69 74 74 73 83 85 84 73 66 71 71 55 51 55 46 41 33 40 43 47 45 50 48 39 37 36 41 38 35 34 31 32 33 34 33 34 36 35
78 66 53 58 73 77 83 89 81 82 93 98 90 82 64 64 58 48 69 55 50 45 43 43 40 42 39 43 40 41 41 40 40 36 32 38 40 41 41 42 41 38 41 43
70 56 54 71 82 86 90 85 92 94 94 97 87 79 64 61 60 53 68 56 54 49 48 48 45 42 44 46 46 46 40 39 40 43 38 38 42 42 43 42 43 45 48 50
63 53 67 84 95 83 95 98 92 98 97 97 89 81 69 60 61 57 58 65 68 61 53 54 49 45 43 51 56 45 43 42 36 40 38 39 41 42 42 43 47 49 52 57
60 74 82 94 90 94 98 98 98 93 89 72 78 78 70 60 56 53 48 51 55 52 55 56 52 49 49 52 54 48 50 45 42 44 41 42 44 50 52 54 57 59 62 68
82 84 91 92 88 76 80 86 90 93 83 74 79 73 71 66 64 60 48 46 51 60 57 55 54 53 54 55 49 51 49 47 43 42 44 51 57 61 66 67 67 71 77 79
88 89 95 97 98 97 98 88 89 84 75 76 77 76 73 71 68 64 62 57 56 55 58 60 56 61 61 56 54 57 55 48 47 51 57 62 67 72 74 73 75 78 82 84
81 85 95 98 93 84 82 81 79 77 73 62 65 70 81 72 70 70 68 65 65 64 60 61 64 64 67 62 61 61 58 56 56 61 67 70 75 76 74 76 80 83 84 85
95 90 82 81 88 85 81 82 81 72 70 60 59 81 92 84 82 76 74 73 71 70 69 71 76 73 66 76 78 74 67 65 65 69 74 75 77 81 83 86 88 87 82 76
89 87 87 80 82 77 78 78 76 71 72 62 69 78 98 92 84 85 85 81 79 82 78 79 74 71 71 75 75 74 73 75 77 79 81 83 84 85 86 84 80 78 75 71
83 81 84 85 87 89 84 84 80 77 72 69 76 90 96 95 91 92 92 92 90 85 88 83 84 86 83 80 78 77 78 82 86 87 86 85 87 85 83 81 78 74 70 65
81 85 94 94 98 93 90 81 85 84 84 89 91 94 93 94 93 93 93 96 93 95 93 88 86 85 82 79 81 84 86 89 88 88 87 85 82 80 80 78 75 70 63 54
85 86 93 92 90 89 86 87 90 87 86 88 89 90 89 90 90 89 88 89 88 82 83 82 84 88 91 89 89 87 89 91 90 89 82 83 84 83 81 77 67 57 51 48
90 87 87 85 85 89 89 92 93 94 94 93 93 93 92 92 92 91 93 93 90 88 90 92 93 94 94 95 94 96 98 97 90 85 86 86 87 83 71 62 58 53 48 45
97 97 96 97 95 94 96 96 97 97 96 95 96 96 97 97 98 97 95 94 95 95 95 96 95 94 95 95 96 95 95 94 89 84 85 87 81 69 66 63 57 54 56 54

GFSNW_prec_cthk_018.txt.gz
RH
42 50 43 32 37 32 32 39 43 38 29 67 52 54 55 41 33 45 50 50 47 37 30 38 45 39 36 38 38 37 39 49 59 44 45 41 44 36 40 48 41 56 52 39
44 55 46 38 37 37 36 41 50 54 33 52 52 49 48 44 37 49 52 51 45 37 33 37 41 44 39 44 40 40 44 54 63 53 45 46 38 43 42 41 52 49 50 43
55 55 48 40 43 42 42 51 62 64 53 32 38 48 47 39 34 47 52 56 48 43 37 36 47 46 41 44 46 49 51 51 44 43 38 42 47 48 46 44 51 50 48 39
58 54 53 38 49 51 51 59 55 52 47 41 45 44 44 34 39 43 47 54 49 48 39 38 43 51 46 46 42 53 52 49 42 34 30 31 33 35 35 48 43 42 35 39
58 52 47 44 54 55 59 59 55 52 41 34 42 44 41 30 31 37 50 52 46 42 39 38 43 52 50 44 45 49 53 51 47 42 34 29 30 35 33 41 47 45 40 36
55 51 44 49 63 68 61 63 55 54 38 44 42 39 35 24 31 39 52 50 48 43 38 42 45 49 55 52 44 41 41 46 45 38 33 29 37 25 29 34 47 44 46 42
51 46 44 56 69 69 58 63 61 59 50 54 36 37 33 23 33 39 52 53 53 45 42 45 45 53 55 53 49 41 47 48 49 48 39 48 32 24 23 25 26 29 34 40
46 48 56 66 74 70 63 65 66 68 58 49 47 49 34 26 33 45 51 51 50 44 41 49 52 60 52 50 49 50 56 71 69 61 58 47 36 30 26 28 36 35 35 35
58 65 66 65 73 70 58 65 64 73 66 44 52 50 37 32 39 55 57 56 57 58 56 52 53 53 49 52 49 49 52 68 77 78 67 59 40 33 32 32 43 36 35 35
61 61 58 58 67 70 53 76 77 73 67 64 44 45 37 33 43 54 57 57 63 60 61 64 59 56 51 57 47 44 51 58 61 70 64 48 35 36 33 34 34 37 37 37
59 59 55 62 66 66 56 74 83 85 86 76 69 45 38 42 40 53 56 64 66 68 66 65 60 55 53 46 38 37 41 52 60 62 62 50 36 36 37 36 36 34 33 32
58 55 56 65 65 66 61 76 65 86 91 91 87 59 42 40 38 54 65 57 62 62 61 61 62 62 49 42 51 42 38 36 42 42 41 33 28 29 29 29 29 30 32 33
67 61 74 82 68 63 79 91 77 66 74 94 89 74 49 44 48 59 67 60 59 67 66 67 62 51 39 44 43 39 36 34 38 37 34 34 31 30 29 29 30 32 34 34
83 89 93 84 72 56 87 91 87 79 98 94 88 81 61 48 58 71 70 67 58 66 65 65 53 43 35 41 36 38 35 37 38 42 42 38 37 35 35 36 37 38 38 38
97 97 91 76 65 58 90 96 88 77 94 84 95 89 72 64 65 85 66 69 60 57 67 60 51 43 40 40 38 36 33 36 39 41 36 36 40 40 42 41 43 45 45 48
86 87 82 66 57 61 80 89 85 76 75 94 98 89 84 81 83 83 74 83 68 66 63 65 52 44 36 39 43 34 35 36 34 38 37 37 41 44 45 44 46 49 51 53
88 82 71 65 65 87 95 93 72 83 80 91 95 98 88 84 73 73 70 78 72 84 80 69 59 54 48 45 46 39 41 41 42 40 38 43 43 45 46 49 53 58 62 65
80 71 63 67 83 92 87 86 86 81 82 80 82 97 96 94 89 85 88 79 75 84 83 74 67 64 57 53 46 47 48 46 48 47 46 47 51 50 54 59 64 69 71 73
60 61 79 94 87 84 91 97 97 97 98 98 85 90 98 93 85 80 73 68 74 77 81 78 71 72 66 55 50 49 50 51 57 55 53 53 52 56 66 71 76 79 79 77
75 82 91 87 93 98 98 99 99 97 93 89 92 95 95 85 78 77 73 71 72 70 67 65 64 68 65 64 60 61 58 62 63 58 59 59 62 72 77 82 84 84 81 81
92 94 98 96 97 97 98 98 89 89 89 82 83 80 74 73 71 73 71 72 73 73 72 68 69 66 63 64 67 65 70 67 70 68 66 72 76 81 84 87 85 84 83 83
90 93 95 97 98 97 94 93 86 85 85 77 73 72 72 79 75 75 80 77 78 79 77 74 75 71 68 68 72 82 83 79 75 80 80 81 85 88 89 87 85 80 78 79
96 94 95 91 88 92 88 87 90 88 85 76 69 66 81 95 95 98 90 87 89 84 82 81 79 77 79 83 87 87 84 81 83 86 88 90 91 90 84 81 82 84 81 74
91 93 94 88 86 88 90 85 81 81 79 75 78 76 88 91 97 99 98 96 95 96 94 89 90 90 89 89 88 85 90 90 90 93 92 92 89 88 84 82 80 78 76 71
85 86 94 91 94 90 88 87 85 83 84 89 93 92 85 92 98 98 97 98 98 92 91 92 92 90 88 89 92 94 96 96 95 90 92 90 83 83 85 83 81 77 73 69
90 90 88 88 87 89 86 86 88 92 94 92 91 89 86 93 94 94 96 89 88 90 93 93 93 93 95 97 98 98 97 93 94 91 86 85 86 86 86 84 79 74 68 63
92 93 93 96 95 93 92 94 98 97 96 93 91 91 94 96 94 92 93 93 95 96 96 97 98 98 98 97 97 97 96 95 87 86 88 90 91 93 89 82 76 72 68 65

GFSNW_prec_cthk_021.txt.gz
RH
47 62 59 51 46 40 40 40 39 36 22 53 52 49 54 44 34 41 47 51 48 41 36 34 31 35 37 34 38 38 34 37 52 44 43 43 43 52 53 59 40 52 55 40
69 63 60 58 49 47 42 41 44 43 30 46 49 49 49 55 38 37 46 51 52 43 38 39 35 38 40 38 39 39 33 36 45 38 37 43 40 43 54 51 45 45 57 44
80 69 68 60 53 49 50 49 52 56 50 32 40 54 50 55 51 38 44 48 55 51 41 37 39 42 44 40 42 41 38 41 42 43 45 52 50 47 47 44 54 46 45 32
85 79 66 60 55 49 58 54 45 47 48 40 41 44 47 50 50 41 39 46 56 56 49 44 42 42 45 47 41 46 46 43 45 50 46 41 37 40 42 44 44 47 38 40
91 81 68 55 55 57 64 61 49 47 39 38 40 42 47 45 44 40 41 48 51 50 55 48 47 41 43 47 45 44 43 54 55 59 52 45 41 37 46 40 35 35 38 38
91 81 69 53 63 66 64 59 54 49 38 43 45 33 37 36 41 32 31 41 51 51 52 51 49 46 36 49 49 48 49 55 60 55 53 46 46 35 28 27 30 34 40 40
91 84 71 67 67 53 61 57 55 58 46 46 38 35 37 32 33 32 25 42 52 50 53 55 56 49 46 55 60 51 52 53 57 59 49 53 27 26 25 25 23 24 30 37
90 85 72 62 59 50 62 60 63 65 63 39 43 40 39 34 30 32 28 42 46 59 63 64 67 64 56 65 62 59 53 57 57 55 59 50 35 31 32 31 29 26 28 30
88 75 64 59 52 51 66 64 63 69 71 49 43 41 39 35 31 30 29 44 60 60 67 70 70 69 60 63 59 60 56 54 54 64 67 70 53 48 45 39 43 34 33 35
85 69 60 51 51 57 69 67 68 69 70 58 54 49 41 38 30 26 32 52 66 63 75 73 74 64 55 62 59 56 58 59 60 65 65 59 44 43 40 43 37 36 38 39
71 58 52 46 54 62 76 66 65 66 66 64 62 60 48 36 40 28 35 62 68 72 72 77 79 66 57 55 48 46 54 62 58 57 60 52 37 38 36 34 37 36 41 42
63 58 49 50 64 74 76 72 70 60 72 69 58 64 48 36 33 28 41 52 59 60 68 74 79 69 60 52 56 46 47 35 37 40 40 34 31 30 33 35 36 36 34 34
61 65 65 72 74 76 67 71 74 71 79 67 50 57 63 40 34 40 42 54 60 63 61 72 76 66 58 53 51 45 39 31 34 33 31 30 29 28 27 28 29 30 32 33
70 65 66 68 73 75 70 82 81 72 71 65 53 78 88 47 39 46 42 57 61 63 66 74 76 70 59 54 53 48 30 33 34 34 33 32 32 30 29 29 30 32 34 37
60 58 56 60 69 80 76 83 86 77 83 74 78 90 85 60 43 46 47 61 63 66 73 78 75 68 63 64 58 37 31 30 34 37 33 33 34 33 32 32 36 39 41 44
68 62 61 62 70 73 90 99 83 79 93 98 98 90 78 62 49 49 54 57 65 64 70 75 67 64 63 65 62 42 34 29 28 31 35 37 38 37 38 39 41 44 47 49
65 59 70 74 81 84 94 80 63 83 98 97 89 84 79 84 72 61 60 67 66 81 83 78 65 65 64 65 64 41 36 33 34 38 41 45 41 42 43 45 46 49 53 58
96 94 98 82 72 74 73 69 83 84 88 90 82 87 97 92 82 80 72 70 96 87 83 81 77 71 68 62 48 44 42 42 44 47 48 48 48 50 52 51 53 57 62 65
97 92 79 90 86 95 94 97 90 87 86 82 82 83 93 93 96 87 83 87 98 92 87 86 82 89 77 69 65 59 55 54 56 57 59 60 60 61 59 58 59 62 69 75
83 71 88 99 87 89 93 90 90 79 79 84 85 82 86 90 95 98 95 94 95 96 95 91 87 90 85 79 74 70 68 65 64 68 73 71 70 67 65 65 67 72 81 88
75 69 74 80 89 98 96 95 94 88 91 88 95 95 79 84 96 95 95 92 93 89 89 87 82 80 79 80 77 74 69 71 74 75 73 78 74 72 73 78 83 88 91 91
61 87 83 94 97 98 98 98 98 98 97 96 96 92 86 87 94 96 92 91 85 81 81 78 74 68 67 64 62 61 64 66 70 72 74 81 81 83 86 88 89 92 91 84
99 94 88 95 98 98 98 98 97 93 89 91 92 97 97 92 94 93 89 85 84 80 80 75 67 67 69 69 68 72 76 78 80 89 96 96 88 87 89 93 91 84 83 83
97 98 98 98 98 97 97 94 91 89 87 83 79 78 83 90 94 94 88 86 85 82 80 78 76 77 80 82 84 85 91 93 93 92 93 96 95 94 89 87 86 83 80 77
98 98 98 95 91 90 90 90 88 83 81 79 80 78 74 77 88 96 98 97 96 94 90 86 87 89 93 93 95 96 97 98 98 98 98 97 95 93 90 86 84 81 78 76
92 92 95 94 90 87 88 87 86 86 87 87 90 91 84 94 95 96 98 97 96 96 96 94 95 98 98 98 97 97 97 97 97 96 96 95 92 90 87 87 84 83 82 81
90 92 90 88 90 90 89 88 87 87 89 94 91 95 98 98 96 95 94 94 97 98 97 95 95 97 98 98 98 97 96 97 97 97 92 91 91 90 91 89 88 88 86 81

GFSNW_prec_cthk_024.txt.gz
RH
94 82 74 52 55 65 54 53 43 26 32 46 45 54 50 46 44 50 62 56 50 49 41 41 34 32 27 26 28 32 37 44 55 48 49 51 46 47 46 55 49 64 66 45
99 88 82 62 60 66 58 56 50 40 32 45 44 45 54 46 43 43 46 45 50 51 46 44 39 31 29 32 34 39 41 43 54 47 46 45 45 40 43 50 56 59 64 46
99 98 89 74 61 70 61 65 63 60 49 23 36 46 52 55 39 48 43 41 51 57 53 46 40 34 36 38 40 39 43 47 40 36 34 38 41 37 47 47 60 53 51 35
99 99 96 77 67 74 62 71 62 52 53 40 35 36 40 50 43 49 43 36 43 60 57 52 45 41 44 42 43 45 45 47 43 37 37 40 43 45 50 43 43 48 39 42
98 99 95 87 83 87 76 70 61 52 44 39 39 43 44 44 42 45 50 43 35 54 65 56 49 50 45 42 47 46 46 48 48 52 51 49 50 44 39 35 32 35 37 36
99 98 95 89 92 80 74 67 57 56 46 45 44 32 39 39 41 45 50 39 37 43 52 56 54 55 53 49 47 50 47 51 56 59 63 57 55 44 41 36 32 29 33 29
99 98 98 96 91 73 56 51 56 56 55 47 37 35 43 43 33 40 43 45 42 32 53 61 64 63 59 53 52 51 56 55 57 69 63 64 38 34 30 30 27 29 29 26
99 98 97 93 90 80 56 47 51 62 62 46 48 42 40 42 32 36 44 40 35 42 67 68 74 74 67 64 58 50 50 59 68 66 63 46 35 30 38 39 28 27 25 27
99 97 95 92 98 87 66 45 54 67 68 52 45 49 44 42 33 37 44 35 27 43 72 75 82 80 70 70 60 56 54 62 66 66 64 56 35 33 38 49 45 38 35 35
98 97 97 96 93 92 67 48 62 75 75 73 58 47 42 38 32 33 32 35 29 41 67 83 79 79 73 73 64 63 65 73 71 76 66 52 38 34 38 49 37 37 38 39
98 98 96 94 94 74 57 53 66 75 74 73 74 57 41 37 30 32 31 38 37 44 61 78 86 82 73 70 64 60 55 68 68 71 62 56 35 33 38 38 33 32 36 38
97 96 95 90 77 70 66 65 69 75 76 71 78 70 58 39 27 25 25 27 29 35 57 69 79 78 75 63 66 59 51 49 53 48 50 38 28 28 33 32 33 34 35 38
97 97 92 83 73 72 67 59 70 79 82 79 74 67 66 58 43 33 34 36 36 34 45 67 73 73 68 67 70 68 50 44 48 46 39 28 26 26 27 26 28 30 30 30
97 92 85 73 70 69 62 61 80 84 82 86 83 69 68 68 55 47 36 37 34 40 56 72 78 69 64 67 67 66 49 46 49 44 33 28 26 26 28 28 28 28 29 29
82 76 68 62 64 66 74 71 81 85 78 85 77 62 60 68 70 52 40 41 49 47 64 70 65 71 74 71 72 75 57 49 57 42 24 25 23 27 28 29 29 29 30 34
72 72 68 69 70 76 80 82 80 76 84 88 76 70 61 65 72 69 46 42 47 50 66 71 72 72 72 79 74 63 62 56 37 27 26 27 29 31 33 33 34 35 37 40
77 77 76 79 82 77 76 73 87 71 69 84 82 66 60 60 77 82 58 51 55 50 63 74 80 82 78 71 67 65 62 59 57 41 35 34 34 36 39 39 40 41 44 47
65 67 68 73 71 75 75 73 78 87 83 90 86 74 63 69 89 86 70 59 60 61 67 72 80 79 76 73 63 62 66 65 62 53 45 37 40 44 45 45 45 48 51 54
57 55 56 64 75 77 79 83 83 83 86 80 70 76 70 86 95 92 84 67 68 69 72 77 86 87 78 66 66 66 69 67 56 51 49 49 51 53 54 56 57 60 63 66
76 70 79 84 76 82 90 98 99 99 97 88 89 92 93 79 81 98 92 82 83 86 82 82 83 81 79 82 74 71 67 66 68 69 69 70 71 71 71 71 75 74 74 77
90 80 73 61 71 87 92 99 98 98 86 86 92 91 86 86 88 86 98 95 91 89 91 83 94 89 79 82 82 83 85 86 83 80 81 81 77 77 82 84 84 88 82 78
73 90 89 91 92 94 96 93 95 89 84 89 83 81 80 85 88 93 98 98 93 89 87 88 97 93 91 87 89 86 82 86 86 81 78 77 76 78 81 81 83 85 89 93
99 97 91 98 98 98 94 96 98 88 80 80 85 89 98 98 95 94 97 98 98 96 98 97 94 89 87 85 85 83 81 81 83 84 82 81 82 86 89 94 97 96 94 94
94 89 91 98 98 98 98 94 92 88 89 93 93 91 98 99 93 95 94 94 98 97 96 93 91 86 84 81 81 81 84 85 85 86 89 91 93 94 94 97 97 97 94 92
96 96 98 98 98 98 98 98 95 91 91 94 94 96 92 94 98 97 96 95 92 94 96 90 84 85 89 88 88 92 97 98 99 98 98 98 98 97 97 97 96 92 88 85
97 97 98 98 97 97 96 95 94 91 90 88 89 91 88 87 90 92 97 98 97 97 97 97 94 95 97 97 98 99 99 98 98 98 97 97 97 97 97 96 92 87 85 85
97 97 99 98 95 95 92 92 92 93 95 96 94 94 92 88 87 90 95 97 98 99 98 98 99 99 98 98 98 98 98 97 97 97 97 97 97 97 94 92 91 90 91 91

GFSNW_prec_cthk_027.txt.gz
RH
95 94 91 93 85 72 76 77 50 37 41 60 55 44 40 40 36 41 52 56 72 63 58 49 40 34 31 29 28 29 32 38 44 44 50 51 52 51 55 58 49 51 51 42
99 99 98 98 95 83 84 80 55 41 42 58 49 44 42 36 38 40 49 48 68 67 63 55 47 39 34 32 29 31 34 39 44 41 46 50 52 52 52 51 49 49 55 42
99 99 98 99 96 89 90 86 76 63 48 38 40 51 49 47 34 42 47 43 67 67 66 63 52 44 40 32 34 38 39 40 39 37 37 44 49 45 48 48 48 49 46 37
99 98 98 99 98 94 94 90 80 56 51 54 44 41 41 44 38 44 43 40 56 58 70 70 62 50 46 40 40 43 45 45 44 39 37 40 36 40 43 44 44 47 41 38
97 99 99 99 98 94 99 91 71 62 33 35 49 51 47 45 38 34 50 41 45 31 58 72 67 58 51 51 51 52 50 46 44 46 46 41 39 36 37 43 46 43 33 29
87 98 98 99 99 97 94 78 61 56 42 47 53 45 48 52 38 33 39 43 46 34 32 63 69 63 55 54 55 57 56 54 51 50 52 51 49 43 45 49 45 38 35 27
71 95 99 98 98 88 79 77 68 62 62 46 43 48 47 46 39 32 40 45 52 34 32 60 68 66 61 60 58 56 58 57 57 61 54 60 38 47 49 47 36 32 32 29
77 94 99 98 97 92 89 79 67 66 68 48 45 54 51 49 41 39 31 40 50 43 41 57 63 72 66 64 62 58 54 57 64 69 59 44 38 42 41 41 27 31 41 34
82 91 98 99 96 97 87 77 74 67 72 61 44 51 56 47 45 42 36 41 45 56 58 56 66 72 73 73 69 63 58 59 59 65 62 55 40 37 39 37 30 29 46 47
82 95 97 98 95 97 90 83 76 77 77 73 56 52 56 49 47 42 38 35 54 53 64 66 59 66 66 81 76 67 66 65 62 59 59 51 43 44 43 44 25 29 39 37
87 96 98 96 94 97 93 94 80 74 79 74 75 63 55 50 42 40 38 42 48 56 64 62 58 64 70 82 76 68 63 67 69 62 66 60 44 46 40 30 24 31 36 34
96 98 98 97 97 98 97 96 73 63 72 89 84 66 63 60 38 31 32 27 31 37 51 51 55 64 70 75 74 65 69 60 61 57 48 44 40 33 33 25 25 32 33 35
96 98 98 98 98 98 90 92 79 63 75 82 89 80 73 66 46 32 28 28 42 36 32 39 42 57 59 73 71 68 63 60 56 55 48 41 36 35 30 22 24 25 30 33
98 98 98 99 99 99 97 96 81 67 81 86 74 89 84 76 53 41 31 30 31 45 39 39 45 44 47 58 69 74 63 59 59 62 47 39 37 34 27 22 24 26 28 32
98 98 98 98 98 98 94 85 74 58 81 93 81 91 92 89 73 52 42 36 38 46 55 55 47 42 48 58 65 69 62 56 58 61 42 45 43 28 22 23 26 27 28 31
98 98 98 96 89 77 75 74 64 72 87 99 97 76 79 81 89 85 63 48 42 46 54 54 53 45 43 54 64 60 63 58 60 59 57 48 33 27 23 26 28 31 31 32
97 95 86 79 75 75 70 68 58 80 96 92 98 97 89 77 84 89 96 77 60 49 50 51 54 58 57 60 58 67 63 61 63 63 63 52 46 38 31 30 32 33 35 38
75 69 63 61 63 68 89 74 81 96 99 89 85 85 86 76 75 78 89 96 86 62 55 51 52 59 64 64 58 60 66 66 67 66 65 64 61 52 44 44 43 43 44 45
75 74 79 81 82 82 87 84 86 86 88 94 86 87 76 74 81 81 89 90 92 81 64 59 61 64 63 56 57 62 72 74 72 67 70 69 70 60 59 58 58 56 56 58
74 78 81 78 73 85 89 96 97 97 80 84 92 92 83 72 77 85 92 90 90 85 75 70 63 62 55 56 60 62 67 70 70 72 76 74 65 65 66 67 70 71 71 74
68 69 65 64 80 86 89 89 84 84 80 79 81 84 95 81 72 85 86 97 97 92 84 75 69 66 62 65 65 69 74 77 76 81 78 79 84 83 80 84 85 87 88 88
75 75 64 75 85 89 96 97 95 86 77 80 72 75 86 85 86 83 85 92 94 95 87 82 77 74 76 76 78 78 82 83 82 93 87 89 91 90 85 85 91 96 97 94
76 75 83 82 89 93 88 94 97 96 94 82 68 78 89 83 85 89 92 96 92 92 92 92 88 85 86 88 91 90 91 98 96 85 92 91 95 95 95 95 94 90 90 95
81 89 90 97 97 94 94 98 99 95 82 76 80 89 89 96 99 98 98 95 94 98 98 97 98 95 97 99 98 95 90 93 89 91 92 94 93 91 90 91 94 97 98 98
99 97 98 97 97 95 98 98 94 90 88 87 84 79 85 98 98 98 95 92 94 97 96 94 98 98 98 98 94 93 95 96 96 96 97 97 97 98 98 98 97 97 97 97
97 97 97 97 98 98 98 99 97 94 92 91 93 98 98 97 97 97 96 95 95 96 97 98 97 96 98 98 98 98 99 99 98 98 98 98 98 98 97 97 97 97 96 94
97 97 97 98 98 98 97 96 95 95 93 92 89 88 90 88 85 91 93 95 97 97 97 97 97 98 98 97 98 98 98 98 98 97 97 97 97 97 96 96 96 94 91 89

GFSNW_prec_cthk_030.txt.gz
RH
91 88 88 87 87 87 86 83 80 66 64 69 53 57 30 35 41 45 43 51 58 56 54 52 44 38 32 26 27 30 31 36 36 33 43 49 55 52 53 55 53 49 49 38
95 99 95 95 94 97 92 81 87 87 79 64 59 27 29 49 54 47 59 41 44 48 63 60 50 43 31 31 30 31 35 36 38 36 37 45 50 51 52 53 54 46 53 41
93 98 99 97 99 99 99 94 99 99 84 52 50 21 23 46 54 53 61 47 46 52 63 63 55 49 40 38 33 34 32 32 31 37 33 39 48 48 49 50 52 44 43 37
54 76 87 99 99 99 99 98 97 82 75 65 35 33 23 35 52 53 61 48 47 49 64 68 63 58 54 48 41 36 36 36 31 31 36 37 36 42 46 47 43 45 38 42
58 72 91 99 99 99 99 96 91 83 72 59 39 40 34 38 43 44 48 48 46 45 62 69 73 67 62 61 48 42 41 43 41 42 41 41 38 35 38 37 37 36 34 33
72 71 77 99 99 99 97 91 89 86 79 73 59 43 40 35 43 42 38 32 45 43 61 74 77 79 72 66 60 47 46 45 48 45 46 45 51 38 34 32 30 31 36 36
84 71 69 98 99 98 81 79 87 92 85 84 51 34 47 45 40 38 45 44 49 46 44 55 48 73 70 70 60 58 52 49 54 53 60 67 36 36 35 35 36 40 41 38
91 71 64 95 98 98 90 89 89 90 89 66 60 50 52 57 55 40 43 44 37 46 49 49 46 63 76 71 62 62 58 60 59 66 52 41 37 33 33 36 42 44 31 29
85 77 74 97 98 98 95 88 90 88 81 72 76 55 57 63 61 50 42 45 41 47 59 54 54 49 68 75 69 63 63 64 65 63 55 56 37 40 42 39 32 34 31 25
89 86 86 98 99 99 92 91 88 88 84 87 84 74 78 59 56 49 45 48 50 50 61 73 54 56 50 65 78 78 67 65 70 61 60 42 35 37 43 45 29 38 28 23
96 80 81 91 98 99 95 91 90 90 86 90 86 86 91 70 62 54 47 50 44 58 57 70 56 63 56 53 61 73 68 62 65 61 68 55 38 40 46 40 36 30 25 23
89 67 74 90 99 99 98 98 94 88 93 88 79 79 85 86 56 51 48 27 29 40 53 54 55 62 68 57 65 66 77 60 59 51 46 42 40 40 48 42 34 33 23 25
76 75 91 98 99 97 97 97 88 79 80 84 89 91 92 85 57 51 43 31 30 33 36 42 54 61 54 62 46 47 57 65 66 60 49 49 47 45 44 41 35 33 23 23
85 95 97 98 98 98 96 94 88 81 80 81 83 96 90 78 60 46 41 39 31 29 33 38 47 50 48 52 43 44 48 66 65 59 54 52 56 53 42 41 37 31 23 25
97 98 98 99 98 97 95 94 88 80 76 77 76 86 82 79 61 49 42 41 39 41 51 48 45 41 45 46 46 48 47 58 64 60 56 58 56 49 48 44 37 26 23 26
98 97 98 93 92 93 93 97 96 76 74 85 96 98 94 90 66 54 47 39 43 47 46 61 53 45 46 60 48 32 39 43 55 63 61 57 54 53 49 36 32 26 26 28
95 95 93 93 94 95 96 87 80 66 74 82 95 98 97 97 76 63 53 44 44 47 50 58 55 51 50 52 46 37 41 39 50 56 62 65 62 61 54 45 34 32 32 33
94 95 96 97 96 96 93 82 65 61 70 80 96 98 91 93 98 97 81 68 62 56 56 56 58 62 57 52 40 42 40 37 40 53 62 64 62 62 61 55 50 45 44 43
94 93 93 89 78 67 67 63 60 65 74 97 97 98 95 84 86 97 98 97 91 76 61 57 52 51 55 52 48 48 48 45 49 58 71 70 68 68 68 68 67 61 57 59
71 67 61 65 78 88 95 92 87 90 98 96 96 83 80 78 80 78 83 95 99 98 94 83 70 51 50 50 55 53 54 51 54 60 70 75 78 75 72 70 74 72 73 74
64 70 78 80 90 99 98 93 94 96 92 84 81 77 81 81 81 86 83 98 98 92 89 87 80 67 62 60 58 56 57 63 61 60 65 68 71 74 75 76 78 80 84 87
75 76 75 91 89 83 85 83 84 84 84 89 77 78 77 82 80 78 87 90 97 94 91 92 86 82 80 75 70 60 61 75 73 73 72 73 77 82 82 80 85 91 94 96
68 81 92 91 86 86 84 70 67 73 85 88 84 94 91 81 77 73 78 83 89 95 98 94 91 90 89 87 84 85 86 84 83 87 87 94 93 93 98 93 93 93 95 97
91 97 93 98 97 97 90 88 82 80 82 83 80 82 89 88 85 89 91 91 94 97 91 88 91 93 97 98 98 99 98 98 98 99 93 95 94 95 97 99 98 98 96 95
96 96 97 97 97 97 97 95 86 80 77 69 72 92 91 89 99 98 93 91 88 86 88 90 91 93 92 96 98 98 98 98 98 98 98 99 94 93 96 95 92 93 95 98
97 96 97 97 97 97 97 97 93 89 83 91 93 97 93 93 89 96 96 91 90 90 91 93 94 95 97 97 97 97 97 97 97 97 97 97 97 97 96 96 96 97 97 97
97 96 97 97 97 97 97 98 98 98 99 95 92 89 92 88 87 89 91 93 95 94 95 96 96 98 97 97 97 96 97 97 98 97 97 97 97 97 97 96 96 97 97 97

GFSNW_prec_cthk_033.txt.gz
RH
70 75 80 85 86 89 90 85 74 67 69 84 75 58 39 19 19 35 45 56 53 49 55 62 45 44 47 44 40 43 43 42 42 48 42 35 49 48 49 53 57 56 54 49
77 78 84 88 92 97 98 94 83 83 84 82 69 49 38 23 25 33 41 47 74 67 57 58 61 51 50 51 45 47 45 39 48 49 45 40 40 54 56 56 53 62 72 45
80 84 89 92 97 96 99 99 99 92 94 76 72 58 39 32 22 34 41 45 62 66 73 66 63 61 58 48 48 50 38 39 37 44 37 45 41 37 48 51 62 52 54 47
78 87 87 93 97 99 99 98 96 87 85 81 58 43 36 40 27 35 44 45 64 59 59 60 64 65 67 54 44 42 42 46 42 38 39 41 40 40 43 49 50 55 49 48
66 63 75 79 94 99 99 98 95 91 80 75 74 67 55 45 31 34 52 54 49 74 78 66 76 73 71 65 52 41 43 47 43 41 38 40 40 41 41 43 44 44 47 45
82 69 60 58 93 99 98 98 90 84 81 86 84 67 51 45 35 37 51 50 51 53 69 79 76 89 77 84 71 55 51 51 52 47 40 40 44 38 44 41 39 41 42 37
87 86 70 59 68 98 98 89 85 91 83 95 73 54 63 58 46 33 44 61 63 47 55 72 78 84 83 83 73 74 70 60 59 54 57 63 37 37 38 38 37 36 34 32
91 91 90 78 64 99 93 93 92 90 92 78 73 76 78 71 57 61 61 60 55 54 55 53 56 80 85 75 81 75 73 65 64 62 57 42 34 39 41 38 37 38 36 40
88 93 97 80 68 82 87 94 92 91 85 87 82 79 78 73 56 68 66 71 73 66 58 56 47 49 55 69 83 71 70 71 69 61 62 57 36 41 41 37 38 40 41 46
93 92 98 80 66 89 97 98 94 92 88 89 86 85 79 67 64 62 79 79 77 59 62 62 43 51 50 60 78 91 80 75 73 67 62 46 38 45 51 47 31 50 46 38
95 98 96 73 65 83 98 96 95 88 94 91 96 85 80 70 79 69 67 81 80 73 69 44 42 60 67 61 52 81 84 73 72 66 69 63 42 45 41 30 39 46 40 33
95 98 89 73 69 94 99 98 96 91 96 98 92 90 86 79 69 67 61 48 51 61 57 39 42 56 73 62 63 55 71 82 71 59 54 48 46 43 44 38 43 48 40 35
94 90 76 70 83 98 99 97 95 94 97 94 87 83 86 90 77 81 80 82 72 59 52 45 49 48 56 72 66 64 58 58 70 71 59 55 52 48 53 49 44 45 43 40
91 81 79 88 98 98 97 96 93 91 95 96 92 82 72 84 85 68 54 66 72 73 55 56 44 43 44 57 56 57 50 54 57 55 59 63 59 54 54 56 52 45 41 38
85 89 98 98 98 99 99 97 95 97 92 85 84 78 66 73 87 75 62 73 76 62 55 56 53 41 46 55 47 51 50 53 52 50 46 58 63 66 65 57 53 48 42 39
79 85 89 94 95 95 96 98 98 85 83 82 85 84 79 75 72 66 67 67 68 54 53 58 40 28 38 50 45 40 39 51 50 42 54 63 68 64 61 56 57 53 44 40
83 88 91 98 99 98 97 89 79 68 73 83 75 79 85 79 70 62 61 55 53 64 56 55 54 46 42 45 50 41 47 50 50 44 43 53 67 69 64 61 60 58 55 46
90 94 98 97 96 96 91 76 77 68 73 72 84 94 95 83 71 67 64 62 55 66 69 59 54 54 64 57 43 40 41 54 59 55 51 55 60 63 67 66 65 62 60 57
94 93 94 96 96 90 91 85 70 77 84 86 92 95 98 99 91 87 79 77 70 59 55 52 53 55 71 72 66 53 64 54 53 53 43 41 60 67 69 70 70 68 67 68
94 96 95 95 95 90 88 84 71 70 83 85 94 98 98 99 95 91 88 83 77 70 70 55 56 57 71 70 66 66 61 54 52 53 50 46 48 58 63 72 77 73 74 77
93 92 94 85 80 72 73 73 66 67 78 85 91 95 98 97 98 95 97 97 92 93 85 80 75 73 75 71 69 66 61 60 61 61 60 57 60 66 69 74 78 78 76 80
73 84 81 82 97 98 95 79 72 72 74 90 93 90 92 92 96 97 95 98 98 98 96 99 97 89 85 84 77 69 59 53 55 60 60 65 65 64 65 70 74 78 82 87
90 98 98 96 94 94 88 87 80 73 83 85 91 86 86 79 81 85 87 93 98 99 97 94 90 88 89 88 90 87 83 79 75 73 70 69 76 80 80 79 85 91 96 97
90 91 89 91 88 89 92 96 89 85 85 79 84 80 80 77 79 84 82 85 92 89 90 91 87 92 95 94 94 96 95 92 88 87 88 88 90 93 90 93 95 98 98 97
90 84 85 79 81 83 83 87 94 89 87 93 96 89 86 84 85 83 84 87 88 83 81 85 90 91 93 93 92 91 92 95 96 96 97 97 97 97 97 97 97 97 97 97
91 94 96 93 89 79 81 79 85 86 91 93 86 91 91 89 93 91 86 79 80 83 87 90 95 95 95 95 95 96 96 96 97 97 97 96 96 97 97 97 97 96 97 97
96 96 97 96 86 75 74 73 72 72 79 78 87 93 88 79 81 88 90 96 96 96 97 96 95 96 97 97 97 97 97 97 98 97 96 95 96 97 97 97 97 97 97 97

GFSNW_prec_cthk_036.txt.gz
RH
74 75 78 80 85 91 92 87 75 72 80 82 77 62 30 27 31 23 25 28 42 37 40 53 63 50 45 46 46 40 38 43 50 49 47 43 40 42 34 50 57 55 62 45
76 75 78 81 87 90 94 91 90 89 80 79 67 51 47 37 34 30 28 30 35 39 49 79 78 74 53 50 50 41 41 42 54 51 53 53 46 34 54 50 50 54 71 49
76 79 83 84 88 92 98 98 99 96 95 73 67 60 44 40 30 38 34 29 32 35 38 72 83 79 62 53 52 50 50 47 44 53 47 54 48 39 44 56 64 60 58 47
78 79 83 87 90 94 99 99 96 81 79 73 55 65 45 46 43 36 41 36 37 41 40 57 76 82 82 74 57 55 55 52 49 49 48 47 48 46 40 44 64 66 51 59
78 79 78 88 94 95 99 98 97 87 71 78 81 74 60 48 42 46 37 36 30 32 39 66 84 90 88 78 69 58 57 58 57 57 54 45 45 48 45 41 31 46 48 48
60 65 72 78 91 98 99 99 96 90 80 86 89 78 57 50 47 55 42 35 29 29 36 53 68 79 94 91 86 76 58 55 63 63 54 50 45 40 43 40 46 45 42 44
72 72 67 63 63 79 99 99 94 98 91 86 77 70 62 57 60 56 51 48 37 26 39 67 57 67 84 91 83 84 70 60 61 73 67 59 43 39 38 41 42 42 40 39
70 75 80 83 76 69 96 98 98 95 96 78 78 71 75 74 76 71 58 52 37 38 45 86 77 75 88 86 94 87 75 72 69 69 61 46 42 39 38 43 36 36 38 41
75 81 82 93 94 84 82 86 96 97 93 84 62 78 75 83 81 77 57 49 55 61 52 86 92 82 66 71 70 81 87 79 81 70 64 65 49 42 39 40 50 42 47 46
75 88 98 99 98 93 74 72 95 99 98 84 85 84 77 77 79 72 60 56 56 63 57 76 86 61 52 53 58 76 87 88 84 78 73 58 48 39 48 57 40 42 51 45
86 92 98 98 98 97 76 66 97 98 98 92 86 84 79 83 81 74 60 69 64 58 65 82 80 58 40 36 44 69 80 98 88 82 79 72 47 45 48 49 45 52 41 57
86 93 95 97 99 98 81 82 99 99 94 98 81 81 86 90 85 79 71 61 88 81 67 61 59 59 52 45 61 55 79 77 91 86 69 60 49 53 52 50 50 46 54 50
95 92 91 97 99 94 75 92 96 99 95 86 84 81 88 94 85 75 80 64 67 77 85 78 72 63 50 58 50 48 66 80 75 81 72 79 58 61 52 55 55 53 55 56
92 98 91 98 95 77 86 91 94 98 91 97 96 89 89 86 80 76 70 80 68 76 83 79 72 64 48 50 43 49 43 74 79 68 66 66 63 67 65 63 60 61 57 54
98 98 94 87 74 86 97 98 99 95 89 87 92 89 79 75 75 79 85 70 78 92 78 77 63 57 55 48 47 47 45 52 61 60 55 59 63 71 67 61 62 62 61 55
86 82 75 75 86 93 96 99 98 95 85 91 90 83 73 65 69 74 81 94 92 90 93 89 67 51 52 54 45 39 40 43 49 53 55 62 50 58 61 60 66 71 63 60
81 85 91 98 98 99 96 90 84 89 88 92 84 82 80 73 69 68 80 88 79 79 77 69 59 48 48 53 55 43 49 51 46 50 48 50 55 48 59 63 67 74 69 63
98 98 98 97 95 93 93 91 90 90 91 83 80 80 80 71 75 77 65 64 67 75 92 76 62 60 73 69 63 55 48 36 45 54 54 62 63 62 52 57 64 65 68 68
96 96 96 97 97 96 91 87 85 82 78 82 80 85 94 88 83 77 72 75 92 81 80 82 72 69 85 85 81 72 70 63 52 52 58 62 63 57 56 63 63 71 72 78
98 97 96 96 95 87 82 81 83 75 72 79 77 86 95 93 82 79 79 77 81 78 61 66 75 84 84 81 79 76 82 79 76 73 68 60 58 64 57 54 64 70 72 77
96 93 91 92 90 90 91 88 80 68 69 72 80 91 91 86 85 87 85 83 85 83 64 65 69 70 67 69 69 72 71 82 74 66 58 61 58 61 58 56 53 55 65 72
90 84 89 86 84 85 87 79 77 73 81 92 95 97 98 97 98 90 91 97 84 84 76 77 84 74 67 61 62 67 73 73 69 65 64 59 58 71 70 67 69 68 72 79
83 81 86 96 91 90 84 80 77 84 91 93 94 98 98 99 95 98 96 96 97 94 93 81 82 86 90 92 91 90 88 86 82 74 69 62 60 65 69 67 70 77 78 81
96 97 98 97 89 83 86 83 77 83 87 96 99 99 99 99 99 98 98 98 98 98 96 95 92 90 93 96 96 96 95 95 93 91 88 86 84 84 85 85 84 84 88 93
92 88 88 91 89 86 84 82 82 82 93 92 96 98 94 93 98 94 93 91 91 91 92 94 97 97 97 96 97 97 97 96 96 97 97 97 98 98 97 98 97 97 97 96
88 86 90 87 87 92 88 77 76 85 88 95 98 97 90 88 90 82 87 80 84 85 87 86 87 88 88 90 92 94 96 96 96 95 96 97 97 97 97 96 96 97 96 96
97 96 94 79 80 86 77 73 78 85 88 90 88 87 90 85 86 90 86 86 89 89 89 91 93 96 97 97 97 96 97 97 97 97 96 96 97 96 96 96 97 97 97 96

GFSNW_prec_cthk_039.txt.gz
RH
92 91 92 93 95 98 99 99 91 86 92 88 74 55 48 41 34 31 29 22 26 35 47 51 52 56 54 57 57 48 46 50 55 49 50 49 41 43 40 57 53 59 71 61
92 93 93 94 95 98 99 98 97 96 92 81 63 51 45 42 42 38 37 34 25 28 35 52 59 62 63 66 73 59 52 49 55 52 47 48 49 48 44 44 48 52 67 55
91 91 93 94 96 98 99 99 98 95 86 67 55 53 47 50 48 44 38 34 35 28 39 51 48 53 57 71 74 72 71 53 48 47 45 50 51 48 45 47 58 52 54 46
89 90 92 94 96 98 99 98 91 76 76 63 66 68 55 51 53 45 42 37 32 28 32 43 44 45 55 64 77 75 78 69 50 43 46 48 55 54 50 47 44 46 46 53
89 90 91 92 93 99 99 98 91 84 71 76 78 77 59 49 46 46 47 40 30 34 36 28 38 44 50 68 80 88 81 75 62 57 48 44 52 54 52 51 46 48 46 47
85 85 85 86 87 98 99 99 96 94 82 85 86 60 46 49 63 59 52 45 42 35 27 39 45 41 47 58 74 92 97 85 70 61 59 54 58 48 51 50 47 47 48 38
70 71 73 78 85 96 99 98 97 99 96 88 70 59 59 57 67 65 64 57 50 28 36 38 53 52 57 62 72 88 92 97 79 71 68 77 42 44 48 46 48 45 43 42
79 77 75 72 68 77 93 96 99 98 98 86 77 70 64 58 73 75 69 54 51 52 43 46 59 67 67 60 69 83 82 97 94 81 69 65 55 47 45 45 44 42 38 38
77 75 69 68 67 72 83 91 99 98 99 97 62 67 67 72 78 77 71 61 64 60 51 51 72 74 62 61 65 69 74 96 98 96 80 72 53 53 45 42 43 38 40 38
68 69 72 73 72 74 80 80 76 99 98 96 90 82 70 67 77 78 69 69 72 67 62 66 62 74 69 75 73 77 76 77 95 97 95 66 54 52 47 51 45 39 38 39
69 73 79 81 79 82 85 85 78 76 93 93 90 85 80 73 79 73 56 81 77 78 74 71 75 70 80 71 75 76 74 76 87 99 90 81 66 58 50 43 43 47 48 43
76 81 90 93 95 94 90 85 86 85 84 96 90 86 83 82 72 69 73 71 74 72 65 62 65 72 66 65 73 70 74 60 69 75 91 76 69 75 63 60 57 58 56 47
85 81 90 90 85 92 95 90 94 85 86 99 93 78 86 82 76 75 80 76 80 74 63 71 76 73 59 65 59 59 61 54 61 60 69 76 74 70 68 67 68 66 69 56
88 81 88 89 96 98 98 94 80 76 86 98 89 98 84 81 84 84 83 88 86 72 67 70 82 81 67 57 51 64 54 51 51 57 62 80 70 67 75 68 70 62 63 65
86 90 96 97 98 99 96 87 74 96 95 94 93 89 84 83 81 81 95 84 76 88 71 70 68 66 78 68 63 56 42 46 52 56 54 69 67 64 76 75 73 72 72 70
93 94 98 98 99 97 99 94 98 99 89 96 99 93 90 86 87 90 86 82 80 96 78 86 77 70 78 78 69 64 44 44 51 52 56 57 53 60 70 71 76 76 73 74
95 98 97 97 93 89 96 91 80 91 97 94 93 91 88 80 74 77 78 79 82 97 91 81 79 79 73 79 82 74 64 50 42 48 52 50 53 55 60 60 57 64 66 64
84 84 96 99 98 99 97 96 97 95 89 83 82 81 77 75 71 70 75 84 89 95 91 92 87 85 86 91 80 65 60 60 55 52 56 53 49 55 58 56 62 57 58 63
96 96 96 97 96 96 97 96 92 85 80 76 71 80 85 79 78 73 78 78 87 84 96 96 91 94 98 98 89 80 73 66 58 51 51 55 57 54 56 63 70 65 61 64
98 98 96 98 97 93 91 92 92 87 82 77 79 74 87 82 79 79 79 86 89 91 89 88 91 98 94 87 86 88 90 89 82 77 72 66 63 62 62 68 64 61 63 67
96 90 89 89 88 86 85 83 82 81 79 69 68 72 87 89 94 93 83 85 85 84 84 86 95 91 93 89 89 86 85 87 90 93 89 86 87 81 76 72 68 70 73 71
90 89 90 87 82 79 79 83 80 72 69 72 84 89 91 97 97 91 90 81 75 80 89 86 84 83 85 82 78 75 75 76 74 75 80 81 77 80 80 79 76 81 81 79
87 84 86 95 92 88 86 84 80 78 86 96 96 98 99 91 95 85 80 82 81 79 84 85 82 76 73 72 76 74 68 66 66 71 76 82 85 81 77 75 72 66 67 77
84 88 91 93 90 88 84 84 81 86 91 92 96 98 99 90 84 84 85 96 98 92 93 93 93 82 76 89 97 97 98 97 96 95 95 95 95 93 87 80 77 75 77 86
83 78 85 87 86 80 78 84 88 92 94 92 95 98 98 98 98 90 88 94 96 95 96 97 92 96 95 96 96 97 97 97 97 97 96 97 97 96 96 97 96 97 97 97
74 77 82 86 81 77 76 83 88 94 98 98 98 98 98 97 96 95 96 92 96 97 97 96 96 97 97 97 97 97 97 97 97 97 97 97 97 97 97 97 96 96 96 96
80 80 81 79 78 74 79 85 90 93 94 98 96 92 92 96 90 92 96 97 98 94 96 96 94 93 95 95 94 93 94 96 97 97 97 96 96 95 94 94 95 96 96 96

GFSNW_prec_cthk_042.txt.gz
RH
39 51 66 96 95 95 99 99 95 89 95 95 75 55 52 53 53 47 39 30 26 32 46 56 52 54 52 58 57 56 55 46 45 40 42 47 47 45 45 51 54 57 59 42
51 62 84 98 98 98 99 98 95 93 89 80 64 61 62 63 62 56 52 41 29 24 45 52 54 63 66 66 64 75 73 65 56 47 45 44 49 48 47 50 52 54 62 46
69 81 96 98 98 98 99 99 97 92 83 66 67 72 67 65 61 57 54 46 39 32 29 40 48 56 58 64 72 73 76 83 71 59 51 52 52 51 47 48 57 52 52 40
90 96 97 97 98 98 98 98 88 79 72 68 71 68 60 59 58 58 54 48 44 41 36 28 29 41 62 63 66 66 73 91 90 70 61 56 52 53 52 49 49 55 47 46
97 96 96 97 98 99 98 96 85 82 76 75 76 71 56 54 61 58 55 54 45 40 35 35 32 32 38 54 60 77 75 86 94 71 64 59 54 51 52 51 52 52 51 47
96 96 96 96 98 98 98 95 92 89 85 84 79 51 43 64 72 63 60 54 52 46 42 36 33 33 40 46 55 70 69 75 89 81 79 72 68 40 47 53 55 52 56 49
95 95 95 95 97 99 99 97 98 98 88 85 55 63 72 66 69 66 63 63 68 54 51 46 42 41 40 45 49 54 64 62 85 91 84 96 45 49 44 48 51 54 55 51
88 86 87 88 94 98 98 99 99 99 95 81 79 67 67 80 71 66 64 64 70 72 69 65 61 54 49 48 50 58 63 71 74 83 94 83 56 50 48 51 46 47 48 50
71 73 75 78 79 86 97 98 97 99 98 86 71 81 80 81 78 78 57 66 73 79 79 81 67 65 50 55 61 67 65 67 68 84 91 96 75 57 54 57 54 44 47 52
75 76 79 82 88 88 89 90 94 99 98 88 88 80 72 78 78 72 70 65 74 79 82 86 77 67 55 59 65 72 77 83 83 87 90 79 83 74 59 68 56 61 56 53
76 80 82 82 86 92 95 89 88 95 97 90 93 80 76 76 75 67 58 78 75 81 87 91 79 72 64 55 54 61 74 86 82 88 90 86 80 79 74 74 67 70 64 56
75 73 71 69 73 85 94 94 82 93 97 96 93 89 84 87 71 77 80 71 70 75 88 90 79 75 74 60 60 47 68 67 78 76 66 55 63 82 78 77 73 72 68 57
75 70 70 75 80 87 90 88 81 86 93 96 93 86 84 82 83 82 81 73 73 78 73 86 82 74 66 65 54 41 51 68 69 72 59 58 57 65 80 75 73 68 62 56
74 78 81 85 85 90 98 92 78 82 85 84 65 64 75 79 87 89 81 78 76 75 79 84 88 81 60 56 50 60 65 71 69 71 56 52 52 56 77 71 67 70 68 63
83 92 96 98 98 99 99 86 85 84 84 78 69 64 63 77 86 87 88 83 75 79 87 84 77 78 75 64 68 66 72 72 84 75 52 49 47 51 62 67 64 71 69 67
85 94 97 93 92 99 99 99 98 86 88 97 93 94 94 86 85 91 86 75 76 75 90 87 76 67 64 68 72 80 86 82 73 70 56 55 56 59 61 63 65 64 70 71
92 89 89 88 88 85 94 85 74 81 92 97 96 92 94 96 92 87 80 82 87 92 95 98 84 73 68 67 73 81 90 88 83 77 57 60 58 61 65 59 62 62 65 73
96 96 97 99 98 97 91 76 84 92 98 98 94 97 97 90 89 95 97 96 95 93 86 93 94 83 88 91 88 85 93 88 82 75 69 65 56 58 63 56 57 60 60 64
98 98 98 98 98 99 92 92 97 97 95 83 89 93 96 92 91 85 84 85 86 83 88 93 96 96 91 97 97 91 88 83 78 74 69 69 63 60 57 57 63 63 70 72
97 98 97 99 99 99 98 99 97 93 87 80 85 86 88 86 90 86 84 83 89 92 90 92 97 97 89 84 86 91 92 88 79 72 71 74 68 64 63 65 72 71 68 70
90 88 90 98 97 93 91 90 87 85 87 82 80 77 79 83 88 88 87 89 87 87 89 91 97 96 97 92 96 97 98 96 98 97 91 86 86 86 87 90 87 80 78 76
88 85 85 83 82 79 80 86 82 79 82 75 74 72 77 89 85 86 94 88 86 87 91 90 86 93 95 93 92 95 96 96 96 95 91 90 95 96 95 91 91 92 90 85
81 80 86 86 81 79 82 80 84 83 79 79 83 82 89 90 98 90 93 88 88 86 89 88 87 90 89 89 88 87 87 86 83 80 74 71 71 71 70 77 84 88 87 85
82 80 81 78 81 80 84 81 80 82 90 96 98 97 96 91 98 92 87 89 89 84 84 83 87 87 85 83 80 76 82 84 94 92 90 91 95 96 97 97 97 97 97 94
75 73 80 80 79 79 79 80 85 89 93 96 97 98 98 92 98 94 88 96 94 84 82 81 83 80 84 85 83 88 94 96 96 97 97 96 96 97 97 97 97 97 97 97
73 74 75 74 73 77 81 96 97 97 97 98 98 96 92 90 90 81 84 83 91 91 92 92 91 92 96 96 96 97 97 96 96 96 97 97 97 97 97 97 97 97 97 96
79 78 76 73 82 92 97 96 97 97 97 98 97 96 92 89 90 87 85 89 96 97 97 96 96 97 96 97 97 97 96 96 97 97 97 97 97 96 95 95 95 95 96 96

GFSNW_prec_cthk_048.txt.gz
RH
28 25 24 24 30 34 48 54 55 50 60 79 78 68 66 63 63 60 57 51 44 43 37 39 40 47 50 59 57 55 49 47 47 38 36 43 45 47 53 62 56 65 62 48
30 26 30 28 33 43 55 57 53 56 73 81 83 77 69 71 73 70 69 57 51 39 40 44 43 56 62 61 64 66 58 62 66 50 42 49 52 53 56 55 55 55 62 53
32 29 31 32 37 45 63 64 64 61 79 83 91 90 80 73 75 83 80 74 67 59 52 47 55 51 59 61 68 61 59 68 64 77 65 61 64 58 60 65 65 57 49 50
32 30 31 34 40 51 70 69 63 68 76 87 92 91 84 89 87 85 83 77 77 76 68 57 56 57 53 50 61 62 59 65 69 66 66 59 54 58 60 62 64 65 55 52
32 31 33 36 40 60 76 69 66 70 81 87 96 97 91 88 87 85 86 81 85 84 76 65 56 49 53 55 52 58 60 63 69 73 66 65 52 54 56 58 61 58 54 49
33 34 35 36 41 69 76 72 75 80 77 93 98 88 89 91 89 85 82 85 88 85 79 70 61 52 44 45 50 64 68 70 69 69 69 70 63 48 52 51 50 51 56 54
39 38 34 39 51 75 81 81 85 89 87 93 94 96 94 94 90 88 85 86 87 82 82 76 65 56 51 48 44 51 59 67 77 76 68 76 41 43 46 48 43 46 46 44
35 37 40 49 67 82 91 94 96 97 92 96 98 96 98 92 90 90 87 84 79 82 81 85 78 73 67 57 52 46 46 67 70 71 71 48 31 25 29 37 29 38 40 45
44 44 51 64 77 90 96 97 98 99 98 87 90 99 97 94 96 94 87 84 85 85 84 85 84 76 62 68 59 53 54 59 66 68 72 59 24 26 33 39 40 45 48 55
51 61 69 76 87 95 98 97 99 99 97 92 96 95 97 98 96 95 89 86 89 87 89 89 84 79 68 70 66 72 70 70 71 72 72 48 33 35 45 50 51 50 55 54
86 91 94 95 98 98 98 98 99 98 98 97 98 95 96 98 97 94 89 95 95 97 92 86 85 84 74 70 71 72 70 77 74 73 77 59 37 48 56 61 54 52 55 61
95 97 97 97 97 97 98 97 99 99 98 98 95 92 95 93 87 88 89 81 83 84 88 87 83 80 78 72 73 67 72 64 67 63 52 43 42 42 46 64 63 59 63 63
99 98 98 92 91 94 96 98 98 99 98 98 97 93 95 95 93 93 92 88 84 83 81 84 80 73 70 72 70 66 66 66 65 64 48 49 39 33 48 49 61 64 69 65
85 87 89 92 94 92 92 86 88 96 98 98 95 90 85 84 85 86 88 88 89 89 90 88 81 75 68 70 65 64 63 64 63 56 50 48 42 47 41 47 66 74 73 75
79 78 79 80 80 93 95 92 82 78 84 88 85 83 82 83 84 84 87 93 92 95 95 97 84 78 77 75 72 67 66 66 69 62 67 65 62 62 60 64 69 81 82 83
77 79 79 80 79 87 99 99 96 89 90 92 89 82 76 75 80 91 97 99 97 96 98 95 84 78 79 80 75 70 67 67 72 68 66 65 62 60 63 71 75 84 92 88
76 76 81 89 94 96 95 87 77 85 99 94 89 81 75 70 69 88 90 89 95 98 97 89 85 83 83 87 78 72 75 81 81 90 82 80 80 75 71 75 82 89 88 82
86 86 90 99 99 99 99 86 76 83 86 84 80 76 77 74 69 76 85 88 90 92 97 97 90 94 96 88 71 73 80 90 93 99 98 92 84 78 74 83 85 90 87 79
96 98 100 99 99 99 96 92 93 87 83 76 72 85 92 85 80 86 90 94 93 84 86 93 91 87 86 77 76 74 77 91 93 93 89 83 80 80 83 91 90 91 88 81
99 96 99 99 98 97 95 96 91 92 89 89 91 91 99 84 92 85 81 79 84 94 97 97 95 86 81 79 83 87 93 91 90 89 85 81 83 87 89 91 94 92 89 83
97 91 90 95 96 98 99 97 93 90 92 94 95 98 98 90 99 91 81 79 86 91 98 94 91 96 92 92 91 94 91 92 91 91 97 98 91 89 92 91 92 88 86 86
79 79 91 97 96 96 98 96 98 96 95 98 99 99 99 95 98 95 88 86 87 92 94 96 89 87 86 88 91 94 96 95 93 94 94 95 95 94 95 95 92 87 89 93
89 88 91 91 91 94 96 91 95 95 95 92 92 95 97 94 94 91 92 92 90 88 91 91 87 83 85 86 90 94 95 97 97 97 97 96 97 95 94 95 94 93 94 95
82 82 86 84 85 85 87 88 85 86 89 89 90 88 94 96 94 97 95 91 85 86 85 85 84 86 87 91 91 94 96 97 97 96 96 96 96 96 96 96 96 95 96 95
74 74 83 82 82 82 82 84 85 85 85 85 85 84 92 97 97 93 90 89 89 85 84 86 88 86 91 93 95 94 95 95 96 97 96 96 96 96 95 96 95 94 93 92
76 80 84 85 86 86 87 88 88 88 90 95 93 92 93 94 95 90 92 88 88 87 87 90 88 87 87 89 91 93 94 96 96 97 97 97 97 97 97 97 97 97 96 96
78 83 85 85 86 87 86 87 90 89 95 97 96 95 94 89 91 94 94 93 89 93 92 92 92 92 92 93 94 97 97 97 97 96 97 96 97 97 97 96 97 96 95 93

GFSNW_prec_cthk_051.txt.gz
RH
36 38 39 31 27 26 32 38 42 39 45 51 56 64 63 47 46 52 57 53 54 54 51 53 48 53 55 61 63 61 45 38 40 39 39 49 52 53 54 59 56 63 62 51
45 42 43 34 32 33 39 47 44 37 51 59 60 63 63 56 55 59 67 66 58 60 54 53 48 58 61 64 67 67 62 64 62 47 46 49 58 64 60 60 58 56 60 51
46 41 43 38 37 36 50 53 52 51 50 53 61 65 62 62 64 64 73 76 74 67 63 59 51 48 52 58 64 69 67 66 67 58 52 53 56 51 53 55 62 59 56 55
49 42 55 42 43 42 52 55 55 49 59 52 63 69 75 70 76 76 77 82 86 85 79 68 58 51 49 49 56 64 64 65 65 63 59 58 55 51 50 52 51 53 49 50
56 48 57 45 45 45 56 57 57 56 53 60 71 72 74 83 86 83 86 90 90 90 83 76 65 58 54 51 49 62 65 63 66 65 61 58 54 51 51 52 51 51 51 49
60 59 58 47 45 47 57 55 57 64 63 62 66 63 73 88 91 86 84 91 94 91 87 80 72 61 53 50 53 52 63 72 68 62 64 57 52 49 47 42 39 40 42 38
68 61 52 44 46 49 54 58 62 69 66 68 61 66 88 91 88 90 90 91 95 90 89 85 80 70 58 50 47 50 57 71 78 74 68 60 34 37 39 40 34 28 29 34
53 49 45 47 47 49 54 56 66 72 70 68 70 75 86 98 96 93 93 91 91 96 97 91 83 79 71 56 48 48 47 58 71 77 74 47 38 33 30 29 29 35 39 42
66 61 59 48 50 46 53 53 66 78 80 73 83 93 93 96 97 99 96 96 95 96 96 95 86 81 72 69 61 59 59 57 67 77 59 52 31 35 34 33 32 35 39 41
68 65 59 48 44 41 51 55 74 85 87 86 91 92 93 96 97 96 96 96 98 98 94 93 88 80 74 70 66 68 67 70 68 73 67 48 37 39 47 45 39 40 42 39
74 70 62 57 42 46 61 71 84 92 93 93 93 88 94 96 98 98 94 98 98 96 93 91 86 81 72 67 73 76 68 70 70 70 70 61 40 53 55 45 41 41 45 48
80 73 64 55 51 62 76 84 90 98 99 93 94 93 94 93 89 93 95 88 89 91 91 88 84 81 76 70 70 70 75 65 66 61 51 42 49 55 51 47 41 41 42 46
90 83 78 79 80 81 86 90 96 99 97 97 98 95 88 91 92 94 96 90 90 87 84 85 82 77 73 73 67 64 66 63 60 56 47 46 47 53 56 52 45 41 41 48
98 98 97 98 98 99 98 98 98 98 98 98 96 89 88 88 95 97 94 93 92 92 95 93 88 82 71 71 64 62 59 60 60 54 52 52 56 60 58 61 57 53 52 59
98 96 98 98 98 98 98 98 98 97 95 97 93 85 84 91 95 96 90 94 94 93 97 95 94 85 84 78 71 65 62 60 61 57 63 62 60 63 65 62 56 51 57 66
92 92 94 98 99 99 99 99 98 98 98 98 96 85 83 82 82 82 82 86 93 95 96 97 94 90 91 86 76 71 70 67 66 66 67 68 67 68 64 66 61 63 60 63
91 91 91 91 94 99 97 95 87 93 98 97 95 83 79 78 79 81 85 90 96 98 98 94 97 95 93 96 82 73 73 76 73 66 67 72 68 71 74 72 76 70 68 70
90 91 94 94 92 93 94 94 88 97 98 98 93 86 84 79 77 77 81 96 99 98 98 97 96 92 95 88 74 73 72 72 70 67 73 78 78 84 89 92 88 80 77 80
91 95 99 99 97 92 91 99 97 97 97 93 86 85 86 87 76 72 82 90 97 94 98 95 94 98 95 77 74 73 76 72 70 73 79 86 88 92 91 89 88 78 78 86
96 98 99 99 96 94 94 99 99 94 89 85 77 72 80 94 85 80 82 90 94 96 96 96 86 86 86 82 77 75 72 70 73 84 82 85 85 88 86 86 83 83 91 91
99 98 92 93 98 99 98 94 89 88 82 74 70 75 87 88 98 89 84 92 98 98 97 91 83 79 83 85 87 82 84 86 86 86 86 85 86 86 90 94 92 93 95 93
85 84 93 95 94 93 89 87 88 83 80 85 86 85 86 87 98 98 94 94 93 93 84 82 79 80 84 82 84 82 84 88 90 91 91 90 88 90 95 96 96 94 95 93
77 80 87 84 82 85 85 82 83 87 86 91 95 98 98 99 97 99 96 95 85 79 80 78 75 74 81 82 83 84 88 90 96 96 97 96 95 96 96 95 96 97 94 92
76 75 78 79 79 78 82 86 88 91 91 97 98 98 97 94 95 90 85 86 85 82 77 77 76 78 78 81 83 86 92 97 97 96 97 97 97 97 97 97 97 97 97 98
80 80 85 83 83 84 89 89 90 90 93 93 96 94 95 95 95 92 91 90 90 83 81 80 81 83 85 89 92 96 97 96 96 96 97 97 97 97 97 97 97 97 97 97
75 79 83 84 84 83 84 84 86 88 90 90 89 88 91 97 96 91 93 88 88 87 86 87 87 88 90 92 96 96 96 97 97 97 97 97 97 97 97 97 97 97 98 98
84 89 89 89 89 89 88 89 89 88 89 92 90 88 93 88 86 90 94 93 92 94 92 92 95 93 90 90 91 93 96 97 97 97 97 97 97 98 98 97 96 93 88 81

GFSNW_prec_cthk_057.txt.gz
RH
39 46 51 46 45 47 52 44 50 47 49 54 54 54 40 38 36 35 33 29 33 37 37 42 44 44 46 57 58 67 52 63 62 69 57 56 59 59 64 61 67 56 62 58
50 57 57 48 44 57 61 53 51 48 64 66 56 50 43 42 39 37 40 36 33 32 38 41 42 41 49 50 63 67 70 56 59 64 64 59 56 60 61 62 62 73 72 59
59 61 60 60 58 62 68 68 66 56 63 66 64 54 53 48 46 46 47 45 45 44 38 38 45 48 48 52 62 64 72 63 57 58 62 55 57 63 60 62 67 62 68 62
69 62 65 62 65 74 78 73 60 66 67 54 61 61 65 53 51 50 50 50 48 47 47 45 47 51 56 55 66 73 82 68 75 60 63 61 62 64 56 57 60 65 60 62
75 80 76 71 68 76 82 79 66 64 62 73 58 52 60 59 60 55 55 52 49 52 49 52 63 58 64 61 59 74 87 88 72 74 60 58 58 56 52 51 49 48 48 52
82 83 89 88 80 83 83 81 77 77 76 63 71 71 49 51 53 67 67 68 58 67 77 67 68 72 77 65 65 67 76 79 90 86 67 58 54 50 51 47 49 49 53 53
81 86 89 95 93 85 83 87 89 87 70 66 64 60 76 65 59 53 70 60 74 81 82 70 69 66 63 63 58 68 69 73 76 83 77 89 58 51 50 53 50 50 45 40
63 88 90 92 90 88 95 97 97 87 80 68 65 76 70 56 64 72 71 78 92 91 84 81 77 76 75 64 58 62 67 69 72 67 64 56 51 49 42 43 41 38 38 45
55 70 84 92 87 87 91 89 96 93 82 66 65 59 57 68 69 64 75 84 88 96 96 98 84 77 68 67 64 58 60 61 72 75 71 67 57 55 47 39 42 52 51 51
52 60 75 88 85 83 91 91 95 93 81 66 78 75 76 71 71 72 87 94 90 94 98 95 89 82 76 81 81 77 67 62 58 59 62 46 43 50 37 45 59 62 54 49
63 58 66 75 76 81 84 84 89 87 77 64 70 73 78 80 80 93 93 96 98 96 92 85 83 82 77 71 82 77 71 70 65 61 73 63 60 56 47 64 73 68 56 49
64 54 64 69 75 78 76 78 80 82 82 65 62 56 63 79 85 93 97 91 98 85 86 80 89 85 80 75 76 85 79 63 67 56 58 62 61 63 69 68 69 62 51 46
56 51 60 66 72 75 72 75 79 81 81 72 64 50 64 76 85 91 98 93 93 95 87 91 89 88 82 84 73 80 75 84 71 77 61 80 62 66 67 59 55 52 48 46
48 47 55 61 69 70 72 74 77 81 78 71 52 64 78 83 92 91 95 94 95 98 98 96 92 91 82 83 79 75 73 77 70 76 75 72 67 70 64 60 54 51 47 47
73 69 70 75 76 82 84 80 72 78 69 74 78 83 83 87 90 96 97 98 97 97 97 96 94 89 86 82 84 80 73 72 74 76 78 74 78 74 67 57 50 49 48 48
87 86 85 87 89 86 85 83 70 74 70 94 97 94 91 85 91 94 97 98 98 98 99 92 86 83 84 93 84 78 78 76 78 81 86 81 72 64 57 57 56 56 55 53
92 95 96 89 80 78 78 77 53 72 96 97 97 95 87 88 93 97 97 98 99 96 97 92 96 89 90 88 87 93 88 82 77 73 69 68 67 67 68 66 62 60 63 64
98 98 98 98 99 99 89 80 75 83 98 98 98 95 90 88 93 97 98 98 98 97 94 91 88 89 90 94 87 82 79 80 79 78 77 75 73 71 70 69 66 66 67 70
98 99 99 99 99 98 99 94 93 94 98 96 90 88 89 86 85 86 91 94 96 93 88 85 85 84 92 90 82 83 83 82 79 78 76 74 72 70 68 66 68 72 72 72
99 98 98 98 98 98 98 99 98 99 98 96 88 83 95 82 84 83 88 88 87 90 91 91 89 94 92 88 85 83 81 77 76 74 70 71 70 67 67 68 70 73 75 79
99 98 97 95 98 98 99 98 98 96 94 87 85 86 88 81 89 88 82 85 82 79 82 92 97 89 86 86 85 83 79 77 75 76 78 77 77 75 76 80 82 83 83 84
97 93 95 99 98 98 97 96 93 86 82 77 81 81 86 83 90 96 85 87 84 83 86 89 88 82 84 82 84 82 80 78 79 78 79 82 83 84 88 93 94 92 90 88
94 94 94 92 95 93 89 83 80 77 74 71 68 73 77 78 82 88 96 92 86 80 91 89 77 76 81 78 82 80 80 81 82 80 81 83 84 85 91 96 97 96 96 96
87 87 85 88 81 75 71 72 74 74 72 72 70 70 71 81 84 87 98 91 91 88 87 81 81 87 87 86 83 81 82 81 84 84 84 85 88 91 94 96 96 97 97 97
75 79 81 76 71 75 72 73 74 76 80 78 85 90 92 93 98 95 97 96 92 89 86 84 86 85 87 86 85 88 87 87 87 88 89 91 94 96 96 96 96 96 97 97
75 76 76 75 76 79 80 78 79 85 89 91 96 96 98 97 95 95 93 92 88 88 86 87 87 86 85 84 86 89 90 90 91 93 96 96 97 96 96 96 96 97 97 96
85 85 86 88 87 89 91 93 96 98 98 97 97 95 96 91 91 90 88 90 91 90 91 94 94 93 94 93 93 94 96 97 97 97 97 97 97 97 97 94 88 82 75 68

GFSNW_prec_cthk_060.txt.gz
RH
32 39 44 41 49 50 52 52 50 41 65 52 55 52 45 44 43 45 36 39 32 39 43 42 40 47 53 49 58 60 55 49 51 68 58 58 59 62 64 75 75 63 65 61
39 37 41 52 64 56 55 61 51 43 73 81 67 50 49 45 50 47 45 40 31 30 38 41 40 41 49 46 43 62 62 52 59 60 68 71 60 61 62 66 79 95 81 70
46 48 54 61 65 62 63 72 66 53 57 69 74 74 60 55 45 40 46 41 40 37 38 40 43 49 55 49 42 57 58 62 60 59 75 87 82 64 68 71 91 90 89 75
53 62 67 68 71 75 75 78 64 67 89 65 56 62 83 77 58 51 45 48 44 46 46 46 50 47 42 52 50 50 72 79 66 59 64 67 72 70 66 68 79 87 70 71
64 65 69 72 73 83 80 76 71 66 59 86 91 69 59 63 85 70 52 48 48 55 53 57 58 58 60 57 60 57 76 91 78 60 61 64 63 68 85 77 60 62 70 73
53 57 70 76 84 94 88 79 73 88 77 71 75 89 73 56 60 79 80 74 63 58 75 67 67 62 72 70 70 67 65 88 95 83 69 62 61 56 68 74 60 54 59 54
47 48 62 74 94 97 94 85 91 88 68 86 83 71 86 88 71 52 62 83 82 83 80 79 69 61 58 61 60 59 58 74 90 91 93 84 50 45 43 52 50 50 52 58
48 49 58 70 91 98 97 95 92 89 83 81 82 83 76 80 85 67 60 71 79 80 86 83 67 55 52 47 48 52 51 60 87 96 87 84 72 59 53 54 57 58 56 56
71 53 52 68 82 92 96 96 91 85 96 81 80 80 87 86 84 85 71 70 85 80 89 92 73 56 60 51 46 42 45 55 72 78 85 89 62 66 62 55 56 56 57 60
91 84 55 56 74 92 95 91 88 97 99 87 86 89 93 96 94 87 79 83 88 77 80 88 74 68 66 79 76 76 67 64 67 77 82 73 59 59 58 59 73 69 64 61
99 95 86 62 67 84 91 87 91 98 90 83 82 88 88 83 86 96 89 95 89 87 86 80 75 76 77 80 84 86 75 81 71 68 74 74 55 59 66 69 65 68 73 75
98 98 89 75 57 82 87 86 91 94 92 78 75 75 75 81 87 97 98 88 98 91 90 78 80 88 85 78 80 88 96 70 70 55 45 52 57 59 66 69 66 76 76 79
98 95 86 73 58 70 72 83 93 96 92 84 72 54 63 72 77 88 88 85 93 94 98 96 93 93 82 80 71 83 90 82 68 74 54 54 80 84 68 81 76 81 83 76
96 80 72 64 60 65 70 74 83 91 89 79 59 58 49 50 64 72 76 83 91 98 99 98 93 88 87 88 79 80 93 95 75 75 86 81 87 94 74 68 70 68 64 59
80 59 59 50 57 62 67 76 78 85 78 80 69 53 45 52 61 71 81 92 94 95 98 97 94 87 87 87 79 78 84 95 93 93 94 97 97 94 83 69 66 65 58 56
64 50 48 48 55 67 83 91 84 84 85 87 79 82 87 88 89 89 89 89 98 96 94 98 91 85 88 87 87 95 95 85 82 88 89 88 86 82 79 74 70 64 55 53
78 57 49 54 63 76 79 77 74 71 95 98 94 82 88 94 92 94 96 98 98 97 99 96 89 88 88 88 87 96 93 89 85 77 74 77 74 74 71 66 63 59 58 57
81 74 74 79 89 90 84 86 81 73 90 98 94 91 97 91 96 99 98 98 98 98 98 95 96 85 91 95 93 87 87 86 83 79 74 71 71 68 65 64 63 62 62 60
91 93 92 93 90 87 79 95 94 89 87 93 90 96 95 89 91 94 98 98 98 98 97 94 90 92 96 94 89 88 88 87 84 82 78 77 75 73 69 67 64 63 61 60
99 98 99 99 98 96 96 95 90 94 92 89 92 85 94 87 88 85 89 92 91 91 85 90 93 93 89 86 87 86 87 86 83 78 76 74 73 70 68 66 65 65 64 63
98 98 98 96 98 99 99 98 98 97 96 86 87 85 90 92 92 88 87 94 90 89 90 91 95 91 89 85 87 89 90 86 82 80 80 75 74 73 74 74 74 74 78 84
94 91 94 98 98 94 98 96 95 91 85 88 88 89 96 89 91 96 93 91 89 87 92 93 93 95 92 89 87 86 85 84 81 78 78 80 79 79 78 81 81 82 83 88
96 96 97 98 94 99 97 93 87 91 90 85 87 92 94 90 83 89 96 92 86 82 85 86 83 84 85 87 84 83 84 84 84 82 80 80 81 81 80 81 82 84 86 91
94 91 87 93 85 85 87 83 82 82 76 78 77 75 76 77 80 84 88 90 89 85 82 77 76 80 80 83 83 84 84 83 84 82 84 84 83 82 81 82 86 88 91 94
86 82 83 80 76 75 75 79 77 76 74 71 71 70 73 77 81 82 79 87 89 82 81 84 85 86 87 86 87 89 91 89 88 87 85 84 84 85 88 91 93 95 96 96
81 81 78 76 73 72 70 72 73 74 78 78 80 81 82 87 85 91 90 91 89 86 89 89 89 92 93 94 91 90 88 87 87 87 89 92 93 94 96 97 97 97 96 91
74 75 75 73 72 72 73 73 73 77 79 80 85 89 90 95 90 91 92 92 91 92 94 92 91 94 96 94 92 90 89 91 93 96 97 98 98 98 96 91 85 79 73 67

GFSNW_prec_cthk_066.txt.gz
RH
29 31 35 33 30 41 44 45 48 42 59 55 51 50 35 27 23 25 34 55 68 71 66 66 64 64 66 63 63 70 75 74 67 55 60 64 80 89 90 98 91 90 92 97
29 33 40 39 38 40 49 54 48 45 60 84 69 55 46 43 36 30 33 56 79 69 66 68 69 63 66 61 53 61 59 68 68 51 51 63 68 77 84 90 95 96 96 90
31 37 38 37 40 54 57 65 64 57 61 72 87 95 89 71 64 53 45 43 70 75 68 66 58 62 63 57 53 49 49 56 60 74 81 88 89 86 85 95 99 93 86 83
34 33 34 37 48 64 69 77 70 66 82 85 81 94 91 92 91 87 66 48 63 69 62 60 60 58 57 55 51 55 54 55 56 53 66 74 78 94 90 86 88 91 80 78
43 47 48 47 56 69 76 76 73 72 70 88 84 85 91 87 83 80 76 69 67 78 73 63 61 59 52 59 61 65 67 62 59 54 52 60 71 82 90 96 94 85 80 83
47 49 44 46 64 71 80 78 78 82 71 80 92 84 81 80 79 90 85 90 84 64 65 70 70 72 65 58 55 65 70 73 67 62 57 59 67 71 79 83 93 93 96 86
38 40 44 48 54 70 72 73 78 83 76 76 78 84 84 82 78 83 85 93 98 84 67 76 79 78 70 55 52 54 60 64 67 70 58 69 60 61 66 78 88 87 89 92
54 50 43 55 53 55 67 73 81 79 81 84 79 78 79 75 75 68 72 80 79 89 76 73 71 72 64 46 45 48 53 57 62 71 66 50 54 72 71 81 88 78 89 94
64 62 60 57 58 58 60 69 83 84 88 79 74 74 66 70 81 81 82 79 86 94 94 91 81 74 66 64 54 49 53 50 56 68 65 64 63 74 76 68 88 82 75 88
64 73 77 80 76 71 65 62 79 85 90 83 84 74 68 71 85 89 90 81 89 91 91 88 89 83 71 67 60 57 64 64 55 57 63 53 49 65 75 82 94 88 74 83
77 81 85 88 91 84 77 62 71 84 88 83 84 75 67 80 92 98 94 98 97 89 85 80 78 78 65 62 52 61 73 78 77 68 67 60 43 70 76 91 93 91 88 88
82 82 87 91 97 98 94 84 69 87 92 83 80 73 71 82 84 91 90 91 93 99 89 81 81 77 72 61 71 93 97 91 89 81 74 74 67 68 78 84 92 93 93 91
92 95 95 95 97 99 98 93 83 88 92 85 78 72 72 74 76 81 87 89 95 98 98 91 87 78 78 79 88 91 97 96 98 93 90 80 79 85 75 83 88 87 88 83
97 98 99 98 98 98 99 95 85 87 93 84 69 70 66 66 67 66 69 80 90 93 94 94 85 86 91 95 96 98 97 94 96 98 92 92 89 84 92 91 91 88 81 80
94 98 98 98 98 99 98 95 75 84 85 86 83 65 60 62 62 63 67 75 81 88 89 89 91 95 98 98 97 98 99 97 95 96 96 98 98 93 93 97 93 86 80 77
90 97 99 98 93 93 95 80 63 71 79 86 76 58 56 62 57 61 64 68 75 80 85 91 92 95 98 99 99 98 98 98 99 98 99 97 97 96 93 89 92 91 82 83
91 97 88 81 81 80 67 52 56 64 79 88 80 66 56 54 50 54 59 65 70 75 82 87 87 89 92 99 96 97 97 98 97 97 98 97 97 91 90 91 87 84 83 77
95 82 63 69 74 63 59 67 66 65 79 81 79 79 75 68 56 50 51 65 75 80 85 87 91 92 97 96 97 98 96 97 93 92 92 88 85 83 83 82 82 80 79 75
88 65 63 61 56 57 68 83 83 75 81 91 93 94 95 98 98 94 92 88 89 89 92 93 94 97 98 97 97 97 96 92 89 89 90 90 87 84 82 81 78 75 74 72
74 56 56 60 60 66 85 88 87 95 95 96 94 88 91 94 99 99 96 99 99 96 92 93 96 93 93 93 92 92 92 94 91 90 89 90 89 87 84 82 79 77 74 74
55 56 63 65 71 83 80 84 91 97 94 89 83 83 88 91 99 98 97 93 95 94 90 98 95 89 89 90 89 87 86 88 91 90 88 88 88 87 85 84 83 80 80 79
60 79 74 80 85 86 90 90 89 85 81 89 88 81 78 85 92 95 94 94 95 96 99 97 92 88 90 90 90 90 89 90 89 89 88 85 83 84 85 84 81 80 79 78
92 90 88 83 85 89 82 72 76 83 82 86 89 91 90 92 93 94 96 98 95 94 96 93 90 89 86 84 86 90 91 91 93 90 88 86 86 87 87 87 86 84 83 81
95 91 90 95 89 86 83 74 75 79 88 89 93 96 94 89 87 89 89 93 94 94 91 87 86 83 85 85 82 80 79 79 83 87 87 84 83 82 85 89 90 88 85 84
88 83 86 85 85 89 93 91 86 88 91 90 90 90 86 83 82 81 84 92 92 86 87 90 91 89 86 87 86 89 87 87 88 89 90 91 91 90 92 94 93 93 92 91
84 87 85 87 85 86 86 86 85 84 82 81 79 81 78 72 71 72 75 79 80 81 82 88 88 88 89 90 90 91 93 94 94 95 95 95 95 95 94 94 93 88 80 74
87 89 87 83 79 79 77 75 76 74 73 74 72 71 69 71 71 75 80 84 82 84 86 91 89 89 91 91 92 94 95 96 97 98 98 98 97 94 89 83 80 75 67 56

GFSNW_prec_cthk_069.txt.gz
RH
23 25 25 29 29 33 33 38 36 34 43 55 50 43 38 37 36 30 30 27 27 53 80 74 75 69 72 79 76 82 80 79 82 62 51 66 78 89 97 98 98 94 98 95
23 23 25 30 36 37 39 42 39 40 45 52 71 73 65 57 48 40 40 37 42 56 74 89 76 75 66 67 70 71 69 81 87 64 53 66 81 89 92 95 96 91 97 91
23 24 28 33 36 38 47 50 49 49 59 59 67 91 92 89 82 74 69 54 44 51 67 82 84 78 72 72 71 66 64 70 76 76 80 82 86 89 92 96 98 91 90 91
26 27 29 30 34 44 50 58 59 65 67 72 72 89 90 97 95 89 91 75 62 65 84 78 85 78 81 77 74 66 66 64 71 62 58 66 72 85 92 98 97 98 78 81
29 32 36 38 39 49 59 64 67 69 70 68 78 80 88 92 94 86 95 92 78 78 84 89 94 79 77 77 78 70 66 61 65 59 55 51 58 68 80 89 96 96 88 82
35 39 41 40 45 54 62 69 75 73 72 70 76 78 75 88 87 81 84 87 89 77 69 83 88 83 75 74 67 65 72 78 70 66 61 51 48 56 66 78 85 85 96 83
33 35 40 45 49 52 64 68 73 73 69 75 73 76 79 79 80 79 75 86 87 73 62 66 77 68 70 68 67 64 60 65 71 66 56 60 39 48 58 73 77 87 86 88
30 34 50 49 45 61 56 63 68 69 67 73 75 80 87 80 72 72 73 85 95 90 95 75 76 76 64 69 70 68 57 59 62 64 60 47 42 59 65 72 74 80 81 84
45 58 62 54 48 60 60 57 64 71 74 69 74 74 74 82 86 80 81 84 88 98 98 90 82 82 74 65 60 60 55 56 58 68 65 63 50 50 62 64 71 75 76 93
50 58 62 63 64 68 70 61 58 67 75 71 78 79 78 73 75 87 92 83 91 99 95 93 86 78 72 61 64 66 73 73 70 65 65 52 35 41 57 74 76 74 76 86
61 68 71 75 78 79 78 75 68 61 68 68 82 84 79 74 69 78 86 89 82 92 95 91 86 81 73 69 64 61 62 69 71 69 67 58 36 35 54 76 81 90 87 86
70 73 77 78 82 83 86 85 77 73 71 65 73 76 73 66 63 69 77 92 97 98 97 93 92 90 85 77 74 65 69 91 86 77 71 71 69 58 53 73 82 98 94 98
77 80 81 82 89 92 93 90 92 87 82 73 71 66 69 57 54 69 80 89 93 97 87 92 92 84 85 81 71 72 89 98 98 98 86 82 75 70 71 82 83 90 89 98
86 88 94 97 98 98 98 97 96 97 92 83 69 67 58 55 56 62 78 79 90 92 95 94 90 82 81 79 82 91 97 93 93 93 94 92 90 85 83 94 93 91 94 91
90 92 97 98 97 99 99 98 98 98 90 84 83 69 68 71 67 69 74 76 82 87 97 89 80 79 84 95 98 98 97 90 89 91 93 95 92 89 89 93 96 97 94 92
87 91 92 98 98 99 98 99 98 96 80 84 85 75 71 70 65 70 71 74 78 84 89 87 83 95 98 98 98 97 95 92 92 97 98 98 97 97 98 91 96 98 97 98
89 90 91 95 97 99 98 91 81 67 74 87 90 81 72 68 73 70 68 66 76 75 79 81 83 88 96 98 97 98 95 96 98 98 98 97 98 97 94 94 91 88 90 91
91 92 97 89 83 83 84 70 48 54 72 79 80 72 70 72 70 68 63 65 69 73 77 80 85 84 94 96 97 97 96 97 97 94 93 93 92 89 87 88 88 86 86 85
90 93 88 74 77 74 70 60 59 64 71 74 71 72 71 69 68 64 59 61 68 67 77 82 88 92 94 96 91 92 94 94 91 89 87 87 85 83 82 82 80 80 82 79
90 86 67 70 69 72 71 76 77 73 74 85 90 86 94 93 93 89 81 72 71 83 81 89 90 88 87 87 90 91 89 86 89 90 87 86 85 84 83 80 78 78 78 78
94 63 63 55 56 74 76 79 87 92 94 90 88 90 93 94 98 99 99 95 98 95 94 94 91 86 87 87 84 86 87 84 83 84 85 85 84 85 85 84 84 81 79 78
61 50 48 58 74 85 81 86 87 90 88 88 92 90 86 93 96 99 98 96 96 98 96 97 91 89 90 89 88 86 87 87 87 87 86 86 85 85 85 86 86 88 87 85
64 55 67 73 80 82 84 83 82 83 84 90 94 92 87 92 96 96 95 97 95 96 98 95 93 91 90 87 84 82 82 85 88 88 90 93 91 89 87 85 84 87 89 90
72 78 80 81 74 71 72 72 76 82 88 89 93 95 96 91 90 91 86 95 96 96 93 91 87 85 83 81 79 78 78 78 78 77 79 82 84 85 84 84 85 85 85 88
81 76 77 80 82 76 79 82 78 85 92 94 96 97 92 88 84 82 81 87 90 89 88 86 88 87 85 82 82 83 84 86 87 86 86 87 88 90 91 92 93 93 93 92
85 85 85 89 91 89 83 78 80 83 89 88 86 91 86 82 79 71 74 79 82 83 80 79 84 85 85 86 88 89 89 88 89 91 93 93 94 95 95 95 93 85 79 76
85 91 90 89 86 87 86 83 83 82 83 81 79 78 74 69 67 66 69 72 70 73 77 83 84 86 88 88 90 93 95 96 97 97 97 97 97 95 92 87 84 81 78 74

GFSNW_prec_cthk_072.txt.gz
RH
20 19 20 23 26 25 26 26 27 31 35 38 48 48 46 42 37 37 39 36 32 30 34 46 67 71 66 67 76 84 78 78 80 71 64 62 73 82 88 98 98 96 97 98
22 20 20 23 27 28 29 32 32 32 36 44 52 54 55 61 61 57 50 46 38 45 49 53 60 83 76 70 80 90 81 97 90 70 74 76 76 82 90 95 97 99 97 92
22 20 21 24 27 35 35 36 40 41 50 54 61 61 63 71 81 85 73 67 60 48 50 52 58 79 91 88 80 79 74 80 74 76 76 78 73 78 86 98 98 97 94 91
22 23 22 24 29 35 37 43 48 52 57 64 64 64 68 76 92 96 92 92 88 81 70 47 55 68 90 87 89 78 67 70 78 73 72 71 67 67 72 85 91 98 95 93
23 23 26 32 38 39 44 52 56 58 61 61 64 66 70 78 91 80 88 97 94 87 77 59 78 79 86 97 85 75 79 87 82 67 62 58 52 44 51 67 76 85 87 85
26 27 32 36 38 45 52 58 60 62 65 65 67 64 69 71 75 74 84 84 91 91 85 69 67 86 93 95 93 87 83 83 80 66 61 49 40 46 46 59 73 78 84 77
28 33 38 46 46 52 52 51 59 62 63 65 64 66 67 76 76 74 71 76 90 95 95 75 61 82 93 92 85 82 79 77 71 69 56 56 30 39 48 57 70 77 81 86
25 25 29 35 43 54 48 49 56 60 60 60 58 66 72 73 72 71 72 76 81 80 92 84 69 71 82 78 74 77 76 69 70 67 62 46 30 49 62 62 57 70 82 88
29 31 39 46 54 54 52 57 57 59 61 55 57 62 69 75 74 71 70 78 76 85 95 98 83 63 59 69 62 66 68 68 69 77 70 63 35 47 45 49 58 76 80 86
39 44 56 59 62 64 63 66 68 63 58 58 63 66 73 73 74 72 74 77 86 87 98 98 93 78 71 72 65 80 82 79 75 74 73 56 34 41 45 54 59 70 71 76
24 35 47 51 61 69 72 71 74 73 62 52 60 68 75 76 77 73 71 81 91 94 98 96 94 84 79 77 70 73 69 76 78 72 74 63 44 39 39 53 64 78 86 86
32 52 58 62 68 74 79 76 80 77 74 66 59 62 67 74 74 72 70 78 91 98 95 96 95 94 92 88 83 76 75 68 71 77 71 68 64 71 65 59 61 82 92 94
45 58 63 71 76 77 81 86 88 85 79 74 71 52 59 66 71 69 65 73 89 97 94 94 93 92 92 90 89 86 81 87 99 99 94 90 81 78 76 75 65 78 93 93
56 64 69 77 82 87 94 91 91 98 91 82 72 61 58 63 65 60 56 67 86 94 92 93 88 87 90 86 91 85 84 98 98 97 96 95 93 92 85 80 79 82 95 94
69 78 86 89 94 97 99 99 91 97 98 88 82 70 56 58 61 60 55 66 82 90 94 96 90 86 89 87 87 86 98 98 95 96 96 95 94 95 92 87 87 98 97 97
76 86 90 92 99 99 99 98 96 99 98 98 95 72 67 67 61 57 59 70 86 87 97 94 86 85 89 92 95 97 98 96 96 95 97 96 93 95 92 94 94 94 95 97
91 92 91 91 95 99 99 97 93 94 99 95 79 73 68 73 69 63 65 76 85 85 82 80 80 79 93 98 97 98 98 98 98 98 98 98 97 97 95 95 94 92 92 92
94 93 94 94 96 99 96 93 92 96 81 73 81 82 79 74 72 71 70 79 78 80 78 79 81 85 96 97 97 98 98 98 98 97 95 93 94 91 92 92 90 88 86 89
94 92 94 95 97 91 96 86 74 67 66 70 75 78 75 79 78 79 82 75 74 68 74 73 78 87 88 93 97 95 95 95 94 91 88 87 86 86 86 85 82 79 80 80
96 96 91 96 85 81 77 68 62 63 65 72 75 74 83 84 79 74 67 63 58 65 63 67 75 82 83 86 86 87 84 82 85 86 84 83 82 84 84 82 80 78 78 78
95 92 91 82 75 70 64 69 68 65 72 71 75 79 83 76 76 77 75 80 78 69 82 83 82 79 84 84 83 82 82 81 80 81 82 82 81 81 80 80 81 79 79 80
91 76 75 74 69 68 70 75 78 81 85 86 93 95 94 92 93 98 97 98 97 95 90 87 83 83 82 82 81 80 79 78 80 82 83 83 83 83 82 83 83 84 83 83
77 71 67 60 71 79 76 80 76 83 85 93 98 98 97 98 97 98 97 97 97 96 95 89 86 85 86 87 87 85 84 82 83 84 83 86 86 88 90 90 90 88 86 86
64 55 63 74 70 67 68 74 79 83 93 94 99 92 98 94 94 95 90 97 97 96 93 88 87 85 84 83 79 77 79 80 82 84 85 85 83 82 86 88 88 88 87 87
66 65 68 72 71 70 78 81 82 87 91 96 97 95 93 92 86 85 84 91 93 90 88 84 84 86 85 83 82 82 82 83 83 85 86 87 87 88 89 90 91 91 90 86
70 70 75 79 82 79 82 80 80 87 91 91 89 92 89 90 86 80 82 86 86 85 86 83 80 81 81 82 82 83 85 86 87 88 90 91 93 93 93 92 87 83 81 80
75 83 88 87 85 80 78 77 79 84 86 85 83 84 84 81 74 69 66 66 68 70 72 76 77 82 84 85 86 86 87 87 90 93 95 96 96 93 88 85 85 83 80 77

GFSNW_prec_cthk_075.txt.gz
RH
35 31 25 23 22 19 17 15 21 26 26 26 35 38 39 38 37 37 34 34 30 30 32 41 38 44 57 66 73 79 84 80 68 59 63 69 66 72 85 96 93 97 93 79
31 23 21 21 21 22 19 21 23 27 26 34 44 42 41 46 52 55 51 49 46 47 45 45 37 41 53 70 73 82 80 91 92 82 77 77 78 78 95 98 98 94 95 91
30 22 20 21 22 23 22 24 30 34 36 42 45 48 51 51 71 74 81 72 68 77 61 50 42 44 52 66 94 81 69 77 96 86 77 73 73 67 73 92 97 97 97 92
23 21 20 21 24 24 25 30 36 41 51 55 50 52 51 58 68 67 75 97 97 95 91 70 48 42 43 59 86 98 83 79 92 82 76 75 68 63 56 64 75 88 75 83
27 23 23 23 25 29 32 35 41 47 51 50 50 49 49 54 59 63 67 78 87 90 95 88 82 73 53 58 83 98 98 82 91 77 67 62 59 51 48 52 64 68 74 75
26 23 25 30 32 34 35 42 46 50 52 55 53 51 51 54 56 57 72 70 71 83 97 95 87 70 73 74 93 98 96 95 84 71 59 56 47 46 46 46 55 69 76 73
26 28 31 38 38 37 40 43 48 56 55 55 53 52 52 54 59 61 61 68 72 75 82 81 85 65 61 77 87 93 98 86 84 75 59 52 37 36 41 53 56 57 63 77
28 29 31 34 38 45 45 45 47 50 52 49 48 49 51 58 58 60 59 68 67 69 79 85 85 73 59 69 84 92 89 87 77 67 65 50 38 46 47 54 50 58 68 79
30 27 26 25 35 45 50 47 54 58 56 49 48 49 51 56 59 60 59 63 60 78 82 94 93 77 47 65 82 79 78 79 71 74 69 58 42 55 45 44 39 66 68 72
36 38 35 37 44 54 56 56 64 65 60 48 54 55 57 59 65 68 61 65 72 86 94 97 98 86 61 58 64 78 81 78 75 72 70 52 49 50 44 41 46 52 62 70
43 40 39 47 56 60 64 65 67 67 63 52 48 51 55 63 68 71 63 66 77 90 95 96 98 95 83 76 69 79 75 81 79 73 70 59 56 60 48 51 52 52 65 79
35 28 26 40 51 56 64 71 72 73 70 61 58 54 52 58 61 69 69 69 81 94 96 93 95 96 93 90 80 77 70 73 78 67 61 68 72 74 73 67 61 61 72 88
30 28 34 52 54 61 73 81 84 82 78 71 67 57 49 49 57 69 75 65 74 97 97 98 98 97 97 93 88 83 77 79 74 82 97 91 88 85 83 78 73 69 75 88
33 29 45 57 66 73 81 82 87 91 85 77 76 63 56 51 53 59 65 63 71 89 94 95 94 90 90 89 89 86 88 87 94 98 98 98 98 93 89 82 77 77 78 93
27 32 55 66 73 82 89 95 88 90 96 86 77 75 66 54 52 60 67 64 67 88 94 95 91 87 88 88 87 86 84 90 98 99 97 98 98 97 95 89 85 88 87 87
26 56 72 82 89 94 96 94 91 90 99 99 97 85 73 64 58 63 66 67 70 87 94 97 91 84 88 92 87 85 89 98 97 98 98 97 95 96 96 94 92 92 90 91
53 74 83 91 96 94 97 97 93 94 99 98 97 87 71 72 68 67 66 70 75 89 92 86 79 73 86 88 97 89 97 97 98 98 98 97 95 96 96 95 94 93 92 88
77 89 93 95 93 95 96 97 97 98 98 96 90 69 70 77 75 73 70 72 79 88 82 81 77 78 89 97 97 95 98 97 98 98 98 97 98 97 96 94 91 90 86 82
92 93 95 96 97 93 94 97 97 98 92 81 63 68 77 84 77 71 75 78 89 79 77 75 72 75 90 94 97 98 97 97 98 97 96 93 91 88 89 87 84 82 81 79
93 96 94 91 90 90 86 88 89 86 64 59 60 63 69 82 81 75 78 83 74 68 61 65 70 74 81 86 92 95 95 93 92 90 88 86 85 83 81 79 79 78 77 77
98 95 93 93 94 83 78 74 63 55 55 55 57 60 70 75 78 79 70 76 65 62 59 70 78 76 81 85 83 81 80 80 81 81 82 83 82 81 79 77 76 77 77 78
94 92 90 96 83 73 69 62 65 63 67 78 80 81 79 73 72 79 83 87 92 91 85 87 86 84 82 81 81 80 79 79 78 79 80 79 80 81 82 81 81 82 83 83
94 88 91 78 67 67 63 63 61 73 79 86 93 92 88 88 96 98 99 98 97 97 97 92 87 83 82 82 83 82 81 81 79 79 81 82 83 83 83 84 86 89 89 90
83 82 76 61 59 59 56 62 69 75 86 97 99 96 98 98 98 98 97 98 98 97 97 93 88 85 82 82 81 81 81 82 83 83 83 84 84 85 85 84 84 85 85 87
83 70 57 57 58 64 67 72 77 82 93 96 99 97 97 95 91 90 89 93 94 92 90 88 89 88 88 87 87 85 84 85 85 85 86 86 87 88 88 90 92 92 86 81
76 58 58 63 70 70 73 76 80 87 91 96 95 94 92 93 88 83 83 85 85 87 87 87 87 83 80 80 81 82 83 84 86 87 88 89 91 93 94 91 88 85 85 83
64 75 80 85 80 76 74 77 80 87 90 90 85 85 88 83 82 81 76 68 66 66 68 72 74 76 78 80 83 86 88 90 93 95 96 97 94 91 89 87 87 87 83 80

GFSNW_prec_cthk_078.txt.gz
RH
46 43 46 42 30 26 17 15 23 19 13 23 26 28 29 28 31 33 32 31 34 31 32 26 27 26 47 70 63 62 63 67 66 54 56 56 62 64 70 73 74 82 90 78
50 49 33 29 25 18 16 21 22 19 19 34 31 32 33 35 39 46 45 47 49 46 45 50 39 34 32 62 73 78 75 74 70 67 68 64 65 72 82 86 87 80 90 90
51 35 29 27 20 18 18 23 29 30 31 33 35 37 35 38 48 53 54 64 65 63 59 71 55 50 49 49 56 79 94 66 60 60 87 78 79 70 69 71 78 71 71 78
39 32 25 21 21 20 19 24 30 33 42 43 36 37 37 39 47 51 55 76 80 85 80 76 78 72 42 45 51 69 85 95 64 60 79 84 72 66 60 61 57 65 58 63
32 27 23 20 21 22 25 27 34 35 39 40 37 37 39 40 48 45 50 61 62 71 73 88 90 86 83 65 63 68 94 97 75 67 79 78 69 62 54 52 51 52 59 68
39 29 26 25 28 28 29 29 33 40 40 40 38 42 43 43 43 49 52 53 54 60 72 85 86 84 82 79 78 85 97 98 82 74 77 69 60 49 51 49 49 57 64 70
34 27 28 31 30 31 33 35 35 40 41 40 40 41 40 42 46 55 57 50 57 59 57 60 65 70 70 61 65 84 97 97 88 75 65 61 59 43 44 47 51 55 54 70
32 30 33 33 39 37 39 35 37 40 43 40 40 40 39 41 46 49 51 54 55 54 58 66 68 78 72 47 48 79 93 98 90 72 67 56 45 51 48 53 54 56 61 62
41 30 34 31 33 39 41 38 40 41 44 46 43 43 42 47 49 50 53 55 54 63 68 75 90 89 69 48 48 70 83 90 96 74 62 58 65 57 51 49 53 53 56 59
42 34 29 26 31 41 45 44 43 48 48 46 46 49 52 52 54 55 57 56 62 70 75 91 95 94 67 57 56 74 79 83 82 76 62 57 57 48 45 48 65 61 54 56
32 34 39 38 42 48 48 51 49 55 56 52 48 47 49 55 59 62 63 62 73 77 79 88 96 97 78 68 62 63 73 72 70 70 65 62 57 54 54 65 63 56 56 56
43 43 41 41 46 51 53 58 58 64 66 59 54 52 48 46 53 60 65 68 74 88 88 91 94 96 80 77 78 74 83 86 86 72 76 66 67 68 72 75 77 69 61 61
45 41 33 30 40 49 52 61 66 74 74 67 61 55 55 47 44 55 67 68 69 88 92 94 96 95 89 89 92 86 80 77 75 73 69 74 75 74 76 81 80 72 70 72
44 37 29 27 49 50 58 65 70 80 83 78 70 65 58 52 45 42 56 62 61 75 87 91 93 93 91 93 94 90 89 80 82 78 84 96 98 90 88 85 80 79 82 80
39 32 31 38 53 61 73 79 82 86 86 86 83 75 70 63 55 48 51 66 64 75 85 89 89 85 87 95 93 94 92 90 87 89 95 97 98 98 97 94 87 89 88 86
38 32 29 47 63 67 78 84 82 88 98 95 94 90 86 82 69 52 53 68 70 76 87 87 87 83 86 90 94 92 92 91 93 98 98 98 98 98 98 98 93 94 94 90
30 23 45 67 74 82 83 82 82 89 98 98 94 85 85 84 75 64 60 69 72 76 83 85 81 74 76 88 93 93 92 95 98 98 98 97 98 97 97 97 95 95 95 93
24 44 70 82 90 90 89 87 96 98 99 98 97 91 85 70 77 76 68 73 73 81 83 92 82 73 77 84 95 97 95 97 97 98 98 97 96 94 96 95 93 92 90 87
51 78 86 93 95 92 92 96 99 99 98 96 89 71 71 74 79 83 75 76 79 80 91 86 75 73 73 89 97 98 97 97 97 98 97 95 92 90 88 86 85 83 81 81
83 91 93 95 94 96 97 97 94 94 95 89 64 58 76 77 76 74 80 83 86 84 74 73 71 72 70 88 91 97 95 93 94 92 91 89 87 84 82 80 80 79 79 78
92 94 96 94 96 94 93 79 80 79 66 54 53 56 68 70 81 82 75 83 73 68 63 62 67 73 75 83 87 88 87 88 86 86 85 83 81 81 81 80 78 77 78 77
96 97 95 95 94 91 78 65 59 52 49 57 58 59 62 70 74 77 71 73 82 83 87 77 77 80 81 85 85 84 82 80 79 79 79 80 80 81 81 81 82 82 82 82
99 97 97 94 90 78 63 54 52 57 62 75 77 77 76 76 74 87 95 94 97 94 96 90 85 83 82 82 82 82 81 80 80 80 81 83 85 86 87 87 87 86 85 85
97 92 93 86 68 52 49 52 62 76 85 88 89 87 81 91 97 98 98 98 97 97 94 92 88 86 86 83 81 81 81 83 86 88 87 87 86 84 84 85 85 85 86 86
90 81 74 58 51 53 55 63 74 84 96 97 98 98 98 97 98 96 95 97 96 94 94 91 89 89 88 89 88 88 89 89 87 84 83 84 85 86 86 87 88 87 81 78
87 78 59 52 57 60 63 73 79 86 96 98 97 97 97 96 91 88 87 88 88 90 87 88 88 87 82 79 79 79 80 80 82 83 86 89 91 92 91 88 85 84 84 82
86 64 55 61 65 64 69 75 79 87 94 96 91 91 93 89 86 82 79 79 73 69 68 68 67 67 69 73 75 80 86 90 92 93 92 86 80 76 75 74 73 70 68 65

GFSNW_prec_cthk_081.txt.gz
RH
58 55 37 30 33 37 35 38 48 27 16 26 23 23 24 21 27 25 26 25 28 29 28 35 36 31 25 52 62 61 79 79 59 51 54 60 60 64 73 83 62 67 70 75
50 37 38 45 44 41 40 37 32 17 23 35 28 24 25 30 31 32 36 38 38 38 43 47 39 38 40 35 46 83 79 63 72 64 61 61 53 47 61 75 81 75 84 86
48 49 49 44 33 29 36 35 35 27 24 26 33 34 32 36 39 40 40 42 46 51 49 51 56 62 57 53 61 62 77 64 70 69 74 82 85 61 61 71 78 73 73 64
59 55 38 31 31 26 30 33 32 32 37 37 38 36 33 39 39 41 44 54 53 49 50 48 56 72 78 71 60 52 77 76 65 63 61 72 70 93 73 77 73 64 61 55
58 38 31 30 26 23 33 24 32 26 37 40 39 34 35 35 44 36 48 47 49 47 48 56 61 67 74 76 73 80 80 62 83 76 70 65 57 74 64 60 53 50 52 58
37 34 31 23 24 30 37 26 30 39 39 39 43 43 41 37 37 39 41 46 48 50 55 53 52 55 59 63 78 81 91 81 87 74 83 65 70 69 65 57 59 57 66 71
44 37 32 31 27 30 38 34 35 41 43 41 42 38 35 35 37 42 44 48 50 46 53 45 43 46 58 71 61 69 87 80 93 91 79 77 53 60 59 57 62 65 66 68
45 39 35 30 29 28 42 35 39 44 46 42 43 36 35 36 37 41 46 49 53 48 47 54 54 54 69 68 59 58 69 94 94 97 67 64 58 67 66 63 88 75 60 58
49 39 32 31 33 33 42 43 41 42 51 45 37 38 39 47 47 48 48 50 48 51 63 64 72 81 76 72 56 44 70 91 96 91 78 71 80 66 55 48 66 70 57 54
52 37 34 31 28 32 43 45 38 45 49 45 40 52 53 46 49 52 55 54 54 62 69 77 93 91 72 75 57 63 77 84 91 94 72 69 74 61 46 50 82 72 62 62
53 47 32 27 24 34 44 49 45 49 48 50 42 43 42 46 48 53 69 57 80 68 75 85 92 96 84 74 62 70 70 72 76 76 76 75 63 58 59 75 68 58 57 54
45 39 30 34 37 44 46 54 52 52 54 57 50 46 43 39 43 53 58 62 65 76 82 81 93 96 85 85 78 64 86 92 97 92 95 85 71 66 72 71 67 67 67 65
39 33 39 41 41 49 50 61 59 58 60 59 59 53 52 45 40 42 54 65 66 82 88 92 93 97 84 87 96 91 84 78 84 87 85 76 72 74 72 68 70 74 74 74
41 46 42 37 35 43 50 59 64 67 71 73 72 56 56 51 46 47 44 63 68 63 75 87 91 89 87 86 89 88 89 82 77 78 75 75 82 85 82 79 80 79 84 81
46 46 41 32 28 48 57 64 68 73 81 89 81 69 69 66 60 57 48 52 66 66 76 84 88 85 92 87 81 88 84 84 78 76 76 83 95 95 97 94 91 86 88 87
49 45 35 32 33 56 67 69 69 76 89 90 91 88 79 81 79 74 57 55 68 68 71 81 83 87 83 82 95 96 92 86 80 81 83 98 97 97 98 98 98 94 96 95
50 44 36 31 46 61 70 81 90 86 94 97 92 82 84 79 84 84 71 60 66 69 73 76 80 80 78 86 95 96 95 94 92 96 98 98 98 98 97 97 97 96 95 96
47 37 26 41 64 71 76 84 89 92 99 98 96 85 86 81 82 87 81 67 71 71 77 80 80 78 75 86 87 96 97 97 97 97 98 98 98 96 95 95 95 93 92 91
35 28 42 67 77 82 87 90 91 96 99 98 92 91 84 72 76 90 74 79 83 72 83 80 80 77 74 76 84 94 98 97 98 97 97 96 94 92 90 88 86 84 84 85
37 58 76 80 84 92 94 94 93 98 98 94 91 71 77 65 80 78 83 81 77 87 85 87 82 73 70 68 88 91 92 97 97 97 95 93 89 86 82 79 77 77 79 78
67 79 84 90 96 97 95 94 94 90 84 80 67 62 69 67 76 82 75 90 88 81 76 70 69 68 70 73 85 86 84 88 86 85 85 83 79 77 76 76 75 75 75 75
82 87 92 98 98 93 89 84 75 67 62 56 56 56 65 79 85 93 88 75 76 81 88 78 76 77 79 86 87 87 84 82 79 78 75 75 75 74 74 74 75 76 76 76
93 97 98 97 91 89 82 71 60 56 54 62 58 60 62 70 73 80 79 78 84 91 92 92 86 84 82 80 79 78 75 73 71 71 71 72 74 77 80 82 82 83 81 81
98 96 96 90 85 75 61 57 56 67 71 71 74 74 73 76 83 86 98 95 98 94 92 92 84 85 82 80 76 75 74 74 74 75 76 80 81 81 80 80 79 80 80 81
97 89 89 83 82 59 56 57 64 73 81 84 83 79 85 92 98 97 97 97 97 91 94 89 84 83 80 78 78 77 75 75 77 79 79 78 78 80 81 83 84 84 80 76
89 82 82 65 52 53 59 69 81 89 97 96 93 96 98 98 95 93 91 87 87 88 83 81 82 83 82 78 75 75 74 74 76 78 80 82 84 83 77 71 68 67 66 65
90 90 70 55 58 63 70 76 85 91 96 97 94 94 96 93 91 88 81 83 80 71 68 69 71 69 68 70 72 75 80 82 83 80 73 67 63 61 63 65 60 60 57 55

GFSNW_prec_cthk_084.txt.gz
RH
73 64 55 46 50 48 44 43 53 41 32 46 39 34 24 19 22 20 23 21 21 25 26 27 28 30 30 30 35 43 61 73 73 59 52 57 56 56 63 78 64 71 72 77
66 55 54 55 41 38 42 54 50 31 41 47 34 27 22 24 26 28 28 32 32 34 34 35 35 36 40 35 33 53 55 61 73 60 58 54 63 61 75 71 75 77 91 80
62 59 45 32 35 44 58 54 54 34 33 33 35 27 27 29 27 33 33 35 34 39 38 42 43 39 53 48 59 54 65 66 77 75 79 84 86 81 79 64 76 72 69 79
51 37 33 45 45 45 44 46 53 44 39 33 32 30 29 38 33 33 33 45 39 42 46 48 45 56 48 56 61 60 74 70 68 70 63 73 80 92 80 77 86 69 65 65
39 49 53 43 33 38 45 37 46 36 36 35 34 34 33 36 38 31 43 46 39 45 50 48 56 52 55 49 53 66 79 73 61 64 52 61 76 76 77 78 94 83 74 63
56 55 39 31 33 41 46 31 35 42 37 35 37 45 42 36 32 33 31 37 42 46 49 50 50 44 39 41 45 50 74 94 90 58 64 61 67 54 57 64 74 70 70 84
57 49 36 38 34 41 36 36 36 38 40 39 39 41 35 32 39 40 41 43 44 51 49 42 34 31 32 37 48 59 62 79 88 76 78 76 45 53 52 62 78 80 82 75
65 41 39 30 32 41 37 35 42 43 48 38 40 35 33 39 35 35 39 45 48 44 43 49 46 43 54 62 68 77 64 75 92 91 87 79 68 62 53 68 95 78 76 65
59 48 40 43 38 35 38 42 40 39 50 40 38 32 35 41 46 55 59 57 48 44 57 59 65 62 72 74 90 65 60 70 93 86 96 96 99 78 59 56 90 88 79 66
55 47 46 40 36 37 43 41 38 41 50 42 35 53 59 43 46 48 59 62 48 58 64 69 83 80 70 84 80 60 58 76 83 91 96 98 93 82 58 54 87 84 75 69
68 62 46 35 32 32 41 43 39 42 47 44 37 40 40 46 49 55 55 51 82 61 72 87 84 91 86 91 82 64 65 82 83 89 97 97 81 66 72 80 76 69 65 62
70 74 51 36 27 31 44 49 42 40 41 48 41 39 39 40 43 43 45 52 61 74 81 74 84 90 98 96 91 83 96 95 98 96 98 93 87 75 75 72 68 63 65 67
55 53 42 34 37 40 45 57 48 45 46 45 47 52 51 46 43 38 42 56 72 76 73 86 86 92 92 96 97 94 93 89 96 97 94 87 78 73 69 71 69 69 71 74
45 41 35 40 40 43 45 55 56 52 54 57 71 63 53 51 50 48 42 45 61 64 63 73 80 88 89 89 94 96 91 88 90 89 84 83 78 77 76 77 73 75 78 79
44 43 44 41 36 37 43 51 58 60 63 77 78 76 62 62 64 61 53 48 47 57 66 67 76 79 95 87 88 90 90 89 87 84 81 77 75 86 85 86 91 91 87 85
46 48 45 40 29 31 50 55 57 63 67 73 84 82 78 73 69 73 67 63 55 54 61 61 69 80 92 81 94 97 92 85 82 81 78 75 77 94 94 95 96 97 94 93
55 50 46 38 29 40 58 66 74 65 72 84 86 79 79 78 79 78 83 80 69 52 62 61 71 76 84 80 92 94 94 88 86 82 80 79 89 97 97 95 95 95 95 95
57 51 46 35 30 45 62 69 81 85 91 93 90 81 81 80 77 80 93 92 74 59 61 61 77 76 76 79 83 86 92 95 93 85 88 97 96 95 95 92 91 91 92 92
55 49 36 34 45 58 67 76 83 90 96 92 84 83 87 90 66 85 93 86 75 69 77 74 72 77 78 70 67 73 92 97 97 97 97 97 95 94 92 89 88 86 86 86
48 35 46 52 58 74 81 89 92 95 93 89 87 86 87 83 64 80 81 83 82 85 77 74 73 75 69 64 63 82 92 92 97 97 98 97 93 89 86 80 77 77 76 76
41 51 67 72 80 86 90 94 93 89 89 82 76 72 79 67 70 80 80 89 85 90 88 80 77 71 68 69 75 88 88 92 94 93 91 86 80 76 74 73 72 71 71 71
53 72 75 84 88 91 92 89 84 88 74 67 64 61 65 83 76 91 90 84 82 81 86 78 71 74 72 86 87 88 87 86 84 81 78 75 73 70 68 68 69 71 73 73
74 83 87 90 89 93 84 82 77 66 56 65 54 64 69 87 83 91 91 81 80 96 97 95 90 82 83 82 82 79 76 74 71 69 68 68 69 70 70 71 73 75 76 77
85 89 93 91 89 78 76 75 72 73 66 56 62 60 66 71 76 75 85 90 92 95 90 96 86 83 84 81 76 74 73 73 72 72 72 72 71 70 72 72 73 76 77 77
94 94 94 85 85 84 76 68 70 64 66 79 77 74 73 77 84 85 92 96 93 95 96 91 87 84 82 78 76 74 72 69 67 67 68 70 71 74 77 76 73 66 60 57
98 91 91 87 81 77 57 57 60 65 75 80 79 83 87 96 92 97 94 91 92 92 85 81 77 75 74 72 69 67 67 66 67 71 74 74 68 61 54 51 51 52 52 51
96 89 85 74 62 55 55 60 69 76 88 88 88 94 98 96 93 87 85 88 83 77 74 71 71 73 70 68 70 72 76 76 75 69 60 57 52 51 55 55 50 52 45 41

GFSNW_prec_cthk_087.txt.gz
RH
93 84 76 66 53 46 56 71 76 57 42 45 59 57 47 37 30 24 20 19 19 20 24 25 24 23 24 27 28 29 36 48 56 45 45 54 53 73 73 77 71 68 79 86
79 67 56 58 56 55 68 71 60 29 48 62 56 43 34 27 24 27 26 29 29 31 29 30 31 31 30 33 34 39 38 48 59 35 35 48 75 81 90 88 84 96 94 83
78 73 61 54 56 67 60 51 52 48 55 56 46 34 29 27 27 30 29 33 33 31 35 35 36 32 35 36 39 41 45 49 53 69 52 67 93 86 84 88 98 94 90 75
68 60 63 59 45 45 52 61 69 57 50 43 42 34 29 39 34 33 31 36 33 34 39 37 35 36 41 42 37 42 57 63 68 59 50 61 76 84 78 80 89 96 90 85
74 63 48 38 40 59 60 53 50 52 47 35 30 31 30 36 41 31 45 38 36 33 40 42 44 42 47 45 37 40 50 57 68 70 54 60 67 61 64 72 89 81 83 97
50 41 38 51 55 48 41 51 48 52 44 34 36 39 37 34 35 32 29 31 31 36 38 40 37 36 36 38 40 38 41 56 65 65 75 69 70 59 63 61 87 78 83 96
37 41 61 42 42 44 43 39 40 42 42 40 40 38 36 34 31 32 30 33 34 36 35 34 30 27 28 29 31 41 57 76 76 78 83 86 45 59 69 88 95 95 96 97
50 65 42 40 46 42 38 38 34 41 46 44 38 36 33 30 30 33 35 41 39 37 31 39 43 40 42 47 52 71 79 83 85 89 96 65 57 91 98 89 96 88 86 86
67 58 40 46 46 40 39 41 42 41 44 40 34 34 32 36 41 46 46 49 50 38 48 56 69 68 59 68 69 69 68 82 82 92 97 94 96 95 87 97 96 94 87 80
69 52 44 43 35 43 39 37 40 43 44 38 37 43 44 36 38 40 45 46 46 50 54 69 87 81 71 82 97 69 73 77 81 90 92 93 98 95 93 91 90 89 82 79
69 53 51 47 47 39 40 38 37 41 43 41 37 40 41 35 36 45 40 43 56 59 62 82 85 89 89 95 98 81 74 83 86 89 96 97 93 91 91 93 85 80 74 72
82 59 58 49 40 37 49 43 30 36 37 37 32 29 32 35 36 36 35 42 51 61 62 68 79 90 94 97 97 97 98 99 97 95 98 98 98 91 90 88 80 69 63 68
67 75 70 52 32 36 45 42 35 34 35 38 36 38 36 32 33 30 36 50 54 61 55 61 74 85 89 96 98 95 92 91 98 96 97 94 92 87 80 79 76 72 68 67
75 69 66 53 48 42 45 46 42 39 42 48 53 49 46 43 44 45 41 38 46 49 54 61 72 82 89 96 97 96 90 91 98 98 94 90 87 86 82 80 78 74 73 73
72 58 44 41 39 39 40 44 47 47 48 56 55 57 56 52 51 54 58 53 49 43 48 62 60 74 90 89 97 91 85 83 84 92 89 86 83 79 83 84 84 84 86 82
46 44 40 38 36 34 38 42 44 47 50 48 54 60 64 67 67 66 66 66 61 52 47 53 54 72 86 88 91 92 83 82 75 81 82 80 79 78 81 84 86 91 93 89
51 46 45 39 29 31 44 50 55 52 56 52 59 70 73 72 74 75 75 77 75 70 55 50 57 73 84 87 86 86 82 80 78 79 78 77 77 79 81 88 95 95 92 92
56 56 45 40 29 39 52 58 60 60 58 62 71 77 79 79 78 76 75 87 88 79 59 48 60 77 80 87 84 76 77 81 84 84 82 79 79 81 87 91 88 86 87 90
62 55 47 35 33 38 53 62 65 67 69 74 78 80 83 86 78 69 86 92 88 74 66 62 73 82 83 77 70 67 72 88 91 90 85 84 89 89 90 90 87 83 81 82
59 49 37 40 38 57 58 67 68 72 77 81 76 75 82 85 75 77 88 81 76 84 79 71 75 80 77 70 63 64 81 95 97 97 96 96 95 91 86 82 80 74 71 70
49 38 46 58 61 68 76 80 79 81 84 77 75 68 74 79 71 79 84 93 90 95 91 85 80 76 68 66 67 80 89 96 97 97 95 93 84 76 73 70 68 67 67 68
38 58 66 71 77 81 83 81 81 85 79 70 67 62 66 79 77 86 92 89 90 90 92 86 79 75 70 69 85 90 91 89 88 83 79 75 72 69 67 67 68 68 69 70
58 71 73 77 81 85 78 81 80 77 64 64 63 66 74 79 87 91 97 97 88 91 94 88 90 84 84 88 88 85 79 75 72 70 68 68 69 70 69 68 67 68 70 72
67 75 81 83 84 75 79 80 80 68 73 62 59 61 70 80 84 79 79 82 92 98 95 96 87 85 84 82 78 73 72 72 71 70 69 68 67 67 69 71 71 69 64 56
82 81 86 78 86 84 81 79 77 75 72 73 65 60 64 70 77 82 86 95 97 98 97 93 85 81 78 77 76 75 74 70 67 66 66 68 70 69 63 56 51 45 44 44
93 88 86 84 87 86 81 71 67 61 70 77 77 80 76 85 89 96 95 98 97 94 85 80 77 74 74 75 73 70 67 67 68 71 70 66 55 49 47 46 46 45 43 41
87 84 86 85 77 78 73 59 60 60 75 80 79 83 88 99 95 92 93 93 86 80 80 77 76 76 76 74 73 72 73 74 73 62 53 49 49 52 51 49 45 41 37 35

GFSNW_prec_cthk_090.txt.gz
RH
95 94 86 69 65 60 65 77 83 65 52 52 58 60 56 52 56 53 48 40 35 27 24 23 25 30 30 30 28 31 33 36 42 30 28 33 60 80 87 97 87 84 74 63
92 89 83 72 67 79 79 72 54 42 69 77 61 53 57 59 48 41 36 30 32 29 30 30 29 28 31 32 29 29 29 36 41 22 19 29 49 75 84 87 93 96 97 76
87 80 68 61 57 63 73 76 71 66 64 57 65 64 50 44 38 32 33 37 34 31 31 29 32 30 30 32 36 35 34 39 43 55 42 38 42 53 72 86 90 89 87 82
74 65 64 60 61 78 78 75 57 49 61 70 59 43 36 36 35 31 34 33 29 31 36 32 32 32 32 31 38 40 42 45 48 48 47 47 47 46 60 72 72 96 82 96
77 69 62 56 74 74 58 53 59 69 62 54 45 42 45 37 32 34 35 34 34 34 34 34 36 36 35 37 33 40 45 47 47 32 32 42 56 48 53 60 59 72 83 93
66 59 64 61 51 49 56 70 60 54 49 46 42 33 33 37 34 34 32 31 30 30 33 32 31 30 29 31 32 34 43 55 58 48 51 67 73 57 45 54 69 82 91 92
73 62 47 45 53 71 60 50 52 51 46 40 41 36 37 34 31 33 33 31 31 31 30 25 19 20 23 26 30 34 42 52 64 72 69 88 71 89 78 90 89 96 95 94
46 42 48 62 61 43 43 50 49 47 51 41 39 38 33 28 29 32 32 36 35 34 29 34 42 44 42 42 49 61 66 83 97 83 86 74 73 96 98 97 98 98 95 96
42 49 66 55 44 43 40 37 41 39 41 42 37 33 28 35 39 40 41 40 39 36 41 50 67 64 58 63 67 80 71 80 90 85 96 97 94 93 96 98 97 96 95 91
53 65 50 42 47 37 37 36 39 47 40 38 34 33 33 34 35 38 36 35 35 42 47 68 72 74 69 92 90 89 80 84 82 86 94 90 97 94 98 97 98 97 92 86
62 66 44 46 46 36 37 40 42 45 39 39 36 34 31 27 30 36 32 38 42 45 57 63 69 78 85 96 94 97 96 96 96 96 97 97 94 91 95 98 97 93 87 84
66 59 48 47 37 41 45 35 39 43 35 32 33 35 32 29 30 30 30 36 45 51 53 52 63 82 92 92 97 96 96 98 98 97 97 98 98 99 97 98 94 89 82 74
71 60 52 46 42 54 46 39 38 34 29 29 32 31 26 24 25 25 31 41 42 43 47 52 59 81 87 96 94 92 92 97 97 97 97 96 98 98 97 94 88 75 71 71
88 83 62 52 49 57 52 39 32 30 35 41 40 38 37 35 35 35 34 39 40 41 42 47 56 68 80 94 98 88 85 92 95 97 93 91 88 91 88 85 80 78 76 70
71 71 62 62 65 49 47 45 37 35 34 41 46 46 48 44 41 45 48 50 50 47 41 47 55 62 84 92 90 86 82 81 85 87 86 87 84 83 84 81 80 79 75 76
79 73 65 62 59 52 44 38 37 37 38 40 46 49 52 54 59 59 59 61 59 58 53 44 49 59 77 87 88 88 78 76 76 81 84 80 79 76 78 80 83 82 83 84
76 70 62 44 34 32 35 37 42 40 41 39 44 54 57 62 67 68 67 67 70 72 65 51 46 66 77 85 86 85 74 74 73 75 74 77 77 78 79 81 82 84 86 85
64 55 42 34 28 33 40 44 46 45 43 46 52 58 64 70 74 75 72 74 77 79 75 62 48 69 79 84 85 80 73 73 78 77 75 75 78 80 81 79 82 84 84 83
55 45 40 36 28 37 47 50 51 50 50 52 59 66 74 75 76 74 73 81 90 81 82 65 60 78 87 81 73 70 68 73 88 87 84 83 83 88 90 89 87 81 78 73
57 47 39 34 31 37 47 54 54 56 59 63 66 69 72 74 79 69 82 86 84 80 71 62 69 81 81 77 70 65 79 96 98 95 94 91 95 96 93 87 80 75 71 67
53 44 44 43 48 53 57 60 60 64 66 67 67 66 70 74 74 72 83 95 95 97 86 90 87 77 72 65 66 78 94 98 98 98 97 97 96 89 80 75 70 67 67 67
45 46 56 54 61 65 65 66 68 71 69 72 70 63 63 70 76 80 93 95 96 97 94 89 83 77 71 68 76 90 94 95 95 95 93 86 79 74 69 68 68 67 66 67
58 63 65 65 68 69 66 68 72 73 69 64 67 67 69 77 81 88 96 98 94 93 92 86 80 79 75 81 89 91 87 81 79 77 74 71 70 70 69 66 66 68 67 61
64 68 68 72 69 67 66 71 71 71 67 61 61 66 70 78 88 86 85 83 94 94 94 93 90 85 89 89 84 78 74 74 72 69 68 67 65 66 67 67 59 51 48 44
70 72 73 72 71 68 75 77 78 76 76 66 60 63 70 76 77 82 85 95 97 98 97 94 86 85 81 79 76 74 73 71 68 67 67 67 67 61 51 47 43 41 41 40
70 75 75 73 77 80 78 76 71 71 70 70 66 67 70 77 85 96 97 98 96 87 82 79 74 72 72 73 73 70 68 67 66 70 68 56 48 45 43 43 42 40 38 36
79 77 82 77 72 79 75 76 64 62 70 75 76 78 75 93 96 96 95 90 85 81 81 76 74 73 74 72 71 72 72 74 70 53 47 44 46 48 47 45 39 37 39 39

GFSNW_prec_cthk_093.txt.gz
RH
76 80 88 84 79 82 81 77 83 78 68 76 82 79 70 64 66 69 67 61 57 57 54 46 43 44 43 40 34 36 33 39 44 30 18 18 22 50 66 85 96 89 87 72
81 86 84 80 77 76 79 79 65 62 66 82 74 71 68 68 66 65 64 67 62 56 48 43 30 31 39 43 36 32 26 33 35 20 30 30 36 34 42 57 77 81 87 74
83 86 82 71 64 73 82 75 71 80 80 78 59 65 68 69 67 67 61 58 49 39 36 34 40 44 38 30 29 29 28 33 31 38 27 33 37 35 43 51 71 76 79 68
82 81 75 65 77 87 86 76 67 58 70 74 69 64 69 70 65 51 40 38 38 41 45 38 38 34 32 31 32 32 34 40 39 35 34 34 31 29 29 40 42 58 56 67
80 72 69 68 67 73 82 78 73 75 65 60 66 69 62 49 37 36 39 40 35 34 34 30 32 33 31 30 29 32 39 46 42 36 33 31 35 34 35 37 39 40 48 50
72 65 61 60 74 82 79 73 63 58 68 70 63 52 41 46 44 41 37 35 33 32 31 28 27 26 24 25 28 31 34 41 47 41 44 53 54 53 75 69 46 44 57 60
73 67 63 59 78 74 56 62 72 70 67 53 52 48 39 36 36 36 31 29 29 28 26 23 21 23 23 25 30 34 42 45 50 57 57 74 53 87 96 87 68 72 71 73
61 62 71 68 50 54 63 72 59 51 55 42 38 39 40 38 33 31 33 32 31 31 27 31 40 42 38 46 55 56 60 73 84 85 88 58 65 90 97 98 97 83 86 81
75 65 55 55 62 71 68 54 54 47 52 53 46 37 34 31 32 38 37 37 33 32 36 48 57 59 56 62 65 74 76 73 86 96 90 83 82 89 92 98 97 95 97 95
51 51 65 69 61 46 47 52 53 47 44 46 42 37 33 33 36 38 37 34 34 33 46 59 63 67 68 84 86 84 81 78 81 89 92 81 91 93 98 98 96 98 97 95
50 58 68 59 46 43 38 41 40 39 40 42 39 29 27 31 33 34 31 36 35 39 47 52 63 74 90 89 87 90 97 97 95 94 97 96 94 95 96 98 98 98 97 97
61 69 56 46 47 33 36 38 42 49 44 38 35 32 26 28 27 25 29 31 38 39 42 44 60 76 90 85 90 90 96 97 98 97 97 98 97 97 97 97 97 98 95 89
69 66 51 48 43 38 36 40 43 45 43 38 33 30 27 23 21 22 29 35 34 32 37 44 57 77 85 86 86 89 93 97 97 97 97 97 97 97 98 97 95 91 89 83
73 66 52 48 42 44 43 40 40 38 37 37 37 33 31 29 27 26 31 33 36 36 35 40 46 65 75 84 85 80 82 89 94 96 96 97 97 97 98 97 95 89 84 81
86 61 49 47 50 53 48 43 45 38 31 35 38 38 37 36 37 37 40 41 43 44 40 38 45 54 77 86 81 79 74 80 86 91 90 90 92 97 97 94 88 84 81 78
83 79 68 59 62 62 52 47 40 34 33 33 42 44 47 46 48 50 51 51 52 52 50 44 37 47 74 85 82 76 69 72 79 84 87 88 87 83 84 86 86 83 80 78
74 77 67 66 67 66 47 44 41 34 32 32 44 50 51 52 57 59 61 60 60 61 59 54 43 52 72 84 84 78 66 66 72 79 81 85 85 81 82 82 81 79 75 75
78 71 68 65 63 56 53 41 36 34 32 35 43 51 54 58 62 67 68 66 66 68 67 63 52 54 77 84 83 77 66 65 68 74 77 77 83 83 81 82 81 77 75 74
75 69 64 53 41 36 39 39 38 36 36 40 44 51 60 65 67 68 70 70 77 77 79 73 60 60 78 82 82 74 68 67 67 74 76 79 79 79 77 80 79 73 70 70
55 59 44 29 29 40 42 44 41 44 45 47 52 57 65 66 70 68 69 83 85 83 77 75 68 70 74 81 73 69 69 82 85 81 79 79 78 81 84 83 78 74 71 68
50 40 41 38 37 43 47 49 50 52 53 53 56 59 66 68 68 66 74 88 88 86 80 75 78 77 75 73 67 71 86 93 94 94 90 87 89 93 87 81 77 72 66 64
47 43 44 50 53 55 56 56 59 59 59 62 66 63 58 67 68 69 86 96 97 96 96 97 89 79 76 69 70 85 91 94 96 96 95 93 92 86 77 69 66 64 63 63
56 52 58 58 61 59 60 61 62 65 64 65 63 62 60 70 77 82 89 98 97 89 98 89 82 81 75 72 83 91 91 89 89 88 85 78 72 69 66 64 63 64 58 51
62 60 60 63 60 61 59 61 60 65 68 60 61 63 70 74 82 86 79 82 89 92 90 84 84 81 83 90 91 87 81 77 74 70 68 67 65 64 64 62 52 47 45 40
65 66 65 65 64 65 68 71 72 71 68 62 60 65 71 76 79 81 85 93 97 98 97 92 90 86 88 86 79 74 73 72 69 67 66 66 67 58 48 45 41 38 38 38
66 69 72 68 67 69 71 72 73 73 68 65 63 67 71 72 83 96 95 94 90 87 85 80 78 76 75 75 73 71 69 66 66 69 68 55 48 45 41 41 41 40 38 37
66 68 71 74 72 71 71 74 70 68 70 72 72 72 75 87 90 93 91 90 85 81 81 77 72 72 72 71 68 66 69 71 71 56 49 44 44 46 45 44 41 38 39 38

GFSNW_prec_cthk_096.txt.gz
RH
60 63 68 71 77 85 83 87 88 87 89 93 91 89 78 76 72 77 74 82 75 66 62 57 58 61 58 56 48 43 41 50 48 34 30 34 30 48 46 57 72 79 86 73
64 68 72 69 78 85 89 91 90 86 79 91 86 76 77 76 76 77 85 80 72 69 63 62 60 63 55 50 46 43 38 43 34 32 34 36 37 35 38 42 48 56 71 57
69 76 75 72 78 83 93 82 89 86 88 87 81 75 81 79 78 79 73 76 77 75 71 67 61 56 46 44 46 44 38 40 31 25 23 32 33 33 31 36 52 44 36 38
75 79 80 70 72 83 94 83 71 67 70 86 74 73 72 75 75 75 76 71 67 64 57 49 48 47 46 44 40 36 32 35 37 35 35 35 35 26 20 28 29 46 20 24
80 83 83 67 70 85 95 84 78 76 76 76 69 70 74 75 76 74 68 59 47 44 45 45 48 44 42 36 31 30 33 39 37 37 31 31 29 27 33 38 44 48 35 34
81 84 78 66 86 95 92 84 72 70 70 75 75 72 70 70 59 49 45 45 44 44 42 39 32 25 24 24 27 28 29 35 37 35 36 32 27 33 52 57 64 78 79 62
78 76 77 78 81 84 87 84 82 77 79 66 68 69 67 55 47 46 46 40 37 36 31 26 23 24 25 24 27 29 38 40 43 45 38 43 46 61 63 77 84 88 74 74
74 66 64 65 76 88 83 71 70 65 78 74 67 60 56 46 43 45 40 36 33 30 25 31 37 40 38 47 48 49 49 54 62 68 75 60 65 67 80 88 85 97 87 90
71 74 77 70 82 80 63 72 78 71 68 67 57 46 46 45 43 41 35 34 30 27 39 45 50 55 51 55 58 61 68 67 67 76 87 86 75 80 83 90 93 97 97 98
66 71 81 73 59 55 67 75 61 56 53 51 50 49 44 38 35 35 36 33 33 30 47 52 58 62 56 69 77 79 76 75 76 82 84 82 90 90 88 93 97 97 97 98
77 78 67 59 66 70 68 62 55 53 51 54 45 35 37 33 29 31 31 34 33 37 44 48 58 65 75 79 79 84 84 86 88 87 96 96 93 92 93 97 97 97 97 98
59 62 71 73 62 47 51 51 48 46 43 45 42 32 30 27 25 24 30 30 35 33 35 42 57 74 76 79 82 82 89 89 91 93 96 96 97 97 97 97 97 97 97 98
61 64 68 56 49 44 36 41 41 41 46 46 37 30 28 25 23 22 25 30 30 30 32 38 54 68 78 83 85 85 85 87 94 97 97 97 97 97 97 97 97 97 97 92
67 76 51 48 53 39 41 42 41 49 50 47 44 33 27 25 22 24 24 27 30 30 30 34 45 61 66 86 83 87 83 87 91 96 97 97 97 97 97 97 97 95 92 86
74 68 51 55 48 42 43 44 44 45 39 45 41 35 32 31 31 32 33 34 35 37 35 34 39 45 68 85 81 83 75 81 85 91 90 92 97 97 97 97 97 96 91 86
79 69 52 63 53 45 44 51 43 40 42 36 41 42 39 39 40 42 41 42 44 44 44 41 35 38 59 83 86 80 69 76 79 87 89 90 90 91 95 93 88 85 82 79
86 73 60 56 51 48 47 50 47 48 37 32 44 48 48 49 51 51 52 50 51 51 53 50 43 41 51 78 85 80 72 66 78 81 84 88 85 85 85 83 81 79 76 76
87 75 74 64 63 62 59 54 48 43 38 33 44 51 52 51 53 56 59 59 57 58 58 59 54 52 55 70 84 83 74 68 67 78 80 82 84 81 82 84 83 80 74 71
75 77 71 64 66 67 61 55 51 38 32 34 39 47 55 55 60 63 66 64 64 66 68 67 64 59 57 71 84 84 75 68 65 70 76 80 82 83 81 80 80 74 70 66
76 69 63 65 65 60 58 50 34 32 35 37 43 48 56 59 64 65 62 68 74 74 75 74 74 66 58 74 84 83 74 66 72 74 75 78 83 81 80 80 79 73 67 65
69 65 62 55 49 44 40 40 43 43 44 43 47 53 60 63 63 62 60 75 90 86 85 81 78 66 59 71 78 70 67 78 84 85 83 84 83 85 85 81 76 72 70 70
48 51 50 44 43 43 45 47 51 52 52 55 55 55 60 63 62 59 74 92 98 97 89 86 88 79 75 73 69 72 90 96 97 95 95 91 86 87 83 77 72 69 67 60
40 43 46 49 53 52 52 56 56 58 58 59 60 60 57 64 66 71 83 91 97 91 98 95 86 80 73 69 70 91 93 94 95 97 96 89 85 81 77 70 65 60 52 48
53 53 53 58 58 58 58 55 56 60 63 63 58 57 64 69 74 79 77 81 88 94 88 82 78 75 73 79 91 91 88 87 87 85 81 75 69 65 64 59 51 46 42 37
65 61 63 65 63 63 64 63 64 65 65 62 59 62 68 72 78 79 82 90 93 89 85 82 82 81 88 91 89 84 79 74 71 70 68 66 65 58 49 45 41 38 37 36
65 65 67 66 65 66 64 66 66 66 64 60 58 65 69 74 76 92 95 95 90 83 85 82 82 83 84 83 78 74 72 69 66 66 68 59 48 45 42 41 41 39 38 34
65 66 68 69 69 68 65 66 68 72 68 63 63 64 68 83 86 93 95 93 89 86 82 77 76 74 71 69 67 64 62 65 69 66 50 46 44 44 44 44 41 37 34 32

GFSNW_prec_cthk_099.txt.gz
RH
56 57 60 62 63 66 65 75 79 84 90 95 97 95 83 82 79 81 80 90 87 76 72 71 85 80 79 75 71 67 66 64 61 56 53 49 48 56 53 46 58 67 66 56
60 61 59 61 66 68 70 80 82 84 91 94 92 87 82 82 80 82 91 87 84 78 74 70 73 74 74 66 65 62 55 51 46 50 54 46 45 45 38 39 46 48 54 44
64 64 66 60 69 68 79 79 85 85 90 94 92 85 82 82 78 84 83 89 88 80 73 68 66 63 65 67 64 59 49 47 39 36 43 47 44 42 35 33 48 35 32 23
73 72 72 64 74 77 84 83 79 76 85 90 90 84 81 81 82 83 76 82 79 82 77 75 73 69 61 53 51 50 50 50 40 30 32 30 30 26 26 25 22 28 15 21
77 75 76 70 74 77 89 88 84 80 79 77 87 84 79 76 77 79 83 78 69 65 66 58 56 48 47 48 48 43 41 45 37 34 30 32 29 24 22 24 27 32 38 42
80 80 80 69 69 85 90 92 84 76 75 74 82 72 77 77 79 78 69 62 57 53 51 49 47 47 46 42 34 30 29 33 31 27 31 28 26 28 29 41 53 61 65 66
85 83 83 72 75 82 94 89 86 82 78 76 79 75 76 74 68 58 53 52 52 49 45 42 39 36 30 24 24 25 30 32 35 34 40 34 52 59 65 66 70 78 80 82
83 81 84 73 80 97 94 90 88 81 80 78 78 77 77 74 63 57 57 49 43 42 37 38 36 39 39 45 47 43 40 45 53 55 54 45 63 70 75 74 72 80 82 84
72 82 81 81 87 90 91 87 87 78 77 80 77 76 72 64 53 55 49 39 35 29 33 39 42 45 46 52 56 54 57 58 59 64 67 63 70 71 78 83 79 83 86 87
71 75 79 75 76 91 90 74 83 81 80 79 71 62 54 51 48 42 40 35 31 34 43 47 48 51 51 59 64 67 65 67 67 73 76 75 85 84 86 86 87 88 91 94
79 85 81 78 85 78 73 81 80 71 66 65 56 56 53 42 37 34 32 31 31 39 42 45 56 56 62 64 67 70 72 74 76 75 82 86 87 88 87 96 96 96 97 97
76 82 85 80 65 61 72 81 69 57 58 62 62 46 38 39 27 25 30 29 33 32 36 44 53 59 65 68 70 75 82 83 84 85 88 90 93 92 95 96 97 97 97 97
85 80 70 63 70 72 71 64 62 61 63 58 42 39 32 28 23 24 26 30 28 29 29 40 55 61 64 68 74 80 83 85 87 92 92 94 95 94 97 97 97 97 97 97
63 63 75 71 54 53 56 56 51 50 44 51 45 37 25 22 23 22 21 22 25 26 27 33 43 54 64 77 77 79 80 83 87 93 94 96 97 97 97 97 97 97 97 97
68 75 67 59 60 50 46 48 45 46 43 51 46 38 33 30 29 27 28 29 30 29 28 29 36 46 63 71 79 79 73 76 77 88 94 94 98 97 97 97 97 97 98 92
83 63 57 59 53 48 51 47 47 52 49 44 49 43 38 35 35 35 35 35 37 36 36 35 32 37 51 69 78 79 70 72 76 86 89 94 96 97 97 96 95 92 89 88
74 52 58 59 48 50 46 50 48 40 41 42 46 44 42 42 42 41 43 43 42 41 44 44 39 39 44 56 72 80 75 67 77 81 86 93 90 96 96 93 88 85 83 79
85 56 66 65 54 50 52 53 44 44 45 41 46 51 48 46 48 49 47 46 45 49 51 52 50 52 53 50 59 81 79 72 66 78 80 87 84 89 92 86 83 78 74 70
84 75 63 55 52 50 54 51 50 47 41 42 42 45 51 48 51 52 53 54 53 56 57 57 59 59 56 54 60 80 79 74 69 67 76 79 83 85 84 84 83 76 71 67
84 75 65 63 69 66 63 60 51 47 43 33 40 44 50 50 55 58 56 58 66 67 64 70 76 69 64 59 67 79 84 78 68 69 73 74 77 82 84 81 80 74 68 65
70 70 72 74 74 65 63 59 57 45 36 36 43 48 50 57 58 57 55 63 83 88 82 79 76 72 65 59 70 81 83 76 73 73 72 74 75 78 79 79 74 70 67 64
72 69 78 73 58 51 50 51 46 44 44 46 48 51 53 60 58 55 65 82 91 95 86 85 88 78 68 67 76 82 76 77 79 79 80 83 81 80 79 76 73 67 63 57
61 63 61 57 52 49 47 49 52 54 54 52 50 54 56 58 59 63 74 86 94 96 98 94 93 85 84 84 74 69 83 89 94 92 90 90 88 82 75 71 67 61 51 45
58 58 58 56 52 52 53 52 54 56 56 54 53 55 57 62 64 72 73 78 86 94 94 94 90 84 78 73 77 94 93 94 96 96 94 90 82 71 68 65 52 46 42 36
52 51 57 58 60 61 61 60 59 59 60 57 57 58 60 66 72 72 75 82 89 88 82 77 78 78 82 88 92 91 88 89 83 80 78 74 71 65 53 47 43 38 38 34
60 62 63 65 65 64 61 59 60 62 63 60 57 61 64 68 72 80 88 87 82 78 76 75 81 85 89 89 87 83 79 77 73 69 68 68 57 50 45 41 42 39 35 31
68 69 68 66 63 62 62 63 63 65 59 57 56 60 64 71 79 82 88 86 83 84 81 78 78 78 79 78 77 74 73 70 66 70 67 52 46 44 45 44 41 37 35 33

GFSNW_prec_cthk_102.txt.gz
RH
59 58 56 56 59 63 64 66 66 72 76 79 81 79 81 80 81 81 82 85 83 87 80 86 83 80 72 73 73 75 69 62 59 61 61 56 53 57 56 59 59 59 65 58
76 62 61 61 63 65 67 70 71 75 78 77 77 78 79 80 81 82 87 84 87 79 84 76 87 92 89 85 85 79 67 63 69 64 61 57 56 56 53 52 48 50 53 51
83 64 67 64 66 70 71 70 72 75 78 82 83 83 82 83 81 82 83 85 88 82 82 75 77 81 81 75 72 71 63 58 53 50 54 55 58 56 50 48 51 39 36 28
89 72 68 69 72 75 76 72 70 70 80 84 86 81 79 82 81 81 81 85 89 95 82 75 74 71 75 73 73 65 59 54 48 49 51 46 41 36 32 28 21 27 17 18
95 76 76 75 78 77 80 76 71 72 72 84 86 86 81 80 83 80 81 86 79 85 88 80 77 73 73 67 61 59 56 58 47 39 36 32 26 22 22 21 19 22 23 27
95 80 80 78 83 84 86 83 78 78 82 84 90 84 80 80 78 80 86 78 73 73 73 72 68 66 59 53 50 49 42 40 30 23 24 23 21 24 25 25 28 42 48 52
92 80 85 83 87 88 88 91 90 85 82 79 82 78 81 79 78 81 72 62 64 64 58 56 52 48 48 47 41 31 26 24 25 27 28 42 52 45 48 50 53 58 59 59
86 82 88 86 85 90 97 94 92 86 84 75 81 79 77 79 75 70 61 60 58 58 53 54 54 54 47 45 36 27 28 35 43 51 48 44 58 61 65 69 67 68 68 70
78 85 93 84 84 89 98 95 90 88 86 81 82 81 78 76 71 67 65 56 50 47 48 50 48 41 39 48 50 50 46 47 55 55 59 60 74 69 72 80 79 78 78 86
75 85 89 81 83 90 98 94 91 85 85 84 81 76 77 72 62 59 58 51 42 36 40 44 45 45 42 51 55 59 61 61 59 61 67 75 76 77 83 86 89 91 88 89
72 92 89 89 95 95 96 89 88 84 85 84 79 73 61 54 56 46 42 38 35 38 39 39 44 49 50 55 64 66 63 67 68 64 73 81 78 79 87 94 95 95 96 97
78 91 91 90 89 91 91 87 88 83 80 79 70 59 58 45 39 34 32 34 32 37 38 40 46 52 56 57 66 67 74 74 77 78 80 83 84 88 92 95 96 97 97 97
90 86 84 86 85 77 80 81 85 76 76 71 69 64 46 34 29 25 28 29 27 28 32 43 50 57 56 60 64 68 73 76 78 81 82 86 87 92 96 97 97 97 97 97
91 89 89 77 64 75 78 79 68 66 66 72 55 43 36 27 22 21 20 21 24 25 31 39 52 56 58 61 62 64 72 76 79 86 87 88 90 94 96 97 97 97 97 97
80 75 71 69 75 73 69 74 71 68 59 56 48 40 35 28 25 22 24 26 26 25 26 32 41 49 59 62 62 62 67 74 75 84 88 93 94 97 97 97 97 98 97 92
71 81 79 63 66 62 67 67 59 52 48 44 50 44 43 35 34 31 32 32 32 33 30 28 27 38 49 57 62 67 66 71 75 81 91 94 96 95 97 97 97 96 95 90
87 69 68 74 61 57 53 53 47 54 54 43 46 47 42 38 37 36 39 37 38 37 37 37 33 34 42 49 58 66 71 72 76 82 90 96 96 97 97 94 91 89 87 83
65 67 69 56 56 55 50 49 52 52 45 45 48 47 43 39 44 47 43 42 41 42 42 42 42 43 45 44 49 63 74 75 73 82 90 93 95 95 95 91 88 84 79 73
64 73 59 57 50 52 52 50 42 42 45 49 46 45 51 44 49 50 48 47 48 45 49 47 46 52 52 52 49 55 72 80 72 73 83 88 90 91 89 88 86 80 73 69
62 64 56 58 59 56 57 56 47 47 46 44 46 45 47 48 50 51 51 49 52 58 59 61 62 60 57 59 63 64 72 84 78 72 73 78 84 86 83 82 79 76 72 69
69 60 60 58 55 56 55 57 57 52 48 44 41 44 46 51 55 53 49 52 67 73 75 69 72 68 66 68 68 72 82 86 79 76 73 73 74 76 80 80 76 74 70 67
72 68 66 68 65 63 65 66 61 55 49 40 45 47 51 52 49 53 50 65 76 84 79 85 82 77 73 64 64 79 84 81 83 81 76 74 77 77 78 76 74 71 65 54
73 75 72 74 65 64 58 66 65 54 45 44 47 50 53 54 54 52 62 79 92 93 96 91 82 75 70 70 74 85 79 83 88 85 82 80 80 78 76 74 70 64 51 45
78 74 72 68 62 59 55 47 46 49 50 47 49 51 55 55 54 63 71 79 86 90 93 94 94 91 87 85 78 82 89 89 89 90 87 86 84 77 74 68 61 48 43 33
73 69 70 68 61 53 52 52 54 53 51 51 53 52 54 58 68 69 71 78 87 85 84 80 80 80 78 80 92 96 95 96 96 94 93 89 77 70 65 56 46 37 34 32
70 70 69 63 58 60 60 59 58 56 55 54 50 54 58 62 64 71 82 83 79 80 77 75 80 85 90 95 94 92 90 87 83 82 79 75 73 68 52 41 38 37 35 30
58 62 60 61 63 63 60 59 59 58 57 54 50 53 61 64 68 81 81 82 82 78 73 71 74 81 87 89 86 81 79 79 77 73 72 74 61 47 43 44 42 36 33 32

GFSNW_prec_cthk_105.txt.gz
RH
82 81 73 52 54 56 56 64 66 64 70 73 70 64 62 57 59 61 69 74 76 75 79 70 79 73 68 65 62 70 73 77 75 64 66 64 65 60 72 87 72 83 69 74
97 90 78 64 62 63 68 69 66 71 74 73 68 64 63 61 66 67 78 78 76 77 81 81 92 79 75 72 68 72 70 75 69 63 64 60 58 58 59 59 56 53 64 69
98 98 96 81 74 74 77 74 74 77 74 71 68 64 66 67 69 72 78 84 79 81 79 77 87 88 84 80 76 75 71 68 67 67 65 60 61 58 55 56 61 52 49 44
97 99 97 88 80 80 83 78 71 65 68 69 68 71 69 73 73 72 76 83 84 83 83 79 80 80 82 83 80 77 76 73 63 58 54 51 51 55 55 51 48 48 41 40
95 98 96 91 77 80 89 81 72 67 68 68 74 79 73 73 74 70 75 80 83 87 90 81 77 76 76 72 76 72 66 65 62 59 54 48 44 40 33 30 27 25 25 25
97 98 95 94 80 71 86 85 85 77 77 71 78 78 77 79 83 75 82 84 81 87 87 78 77 75 74 74 70 66 62 62 52 43 41 31 25 27 23 22 22 29 36 50
92 93 94 84 79 81 90 94 91 88 79 77 78 81 83 82 84 81 82 85 78 78 74 75 74 72 71 65 58 54 50 44 36 33 26 28 48 45 40 38 40 47 45 45
96 98 95 82 84 94 98 99 97 95 94 77 83 84 79 86 82 89 78 73 71 70 67 73 69 63 58 56 52 43 34 33 37 43 35 52 46 46 51 53 59 57 58 59
98 98 93 82 95 98 98 96 98 98 96 81 83 81 83 83 83 82 77 67 64 64 64 69 66 65 56 60 55 37 30 36 43 46 56 58 74 55 56 63 68 72 75 75
98 94 82 84 98 97 98 95 96 96 98 86 86 85 82 85 80 79 73 67 63 62 65 71 71 61 51 55 47 51 47 49 51 53 54 79 66 58 65 78 83 83 86 84
95 88 78 90 95 93 95 97 94 97 96 86 88 86 83 83 77 76 69 61 57 54 56 56 50 51 46 53 67 54 53 53 52 53 65 78 68 66 74 82 85 89 90 94
76 75 76 89 92 96 96 99 94 88 95 91 86 84 81 71 64 69 53 52 39 47 52 50 51 51 52 54 56 58 67 72 86 72 85 73 71 77 81 86 90 97 95 95
79 86 96 97 97 98 96 98 92 94 89 88 86 79 62 60 43 39 43 42 38 36 45 53 56 60 49 57 65 62 61 64 70 70 72 74 77 81 90 94 94 93 94 96
88 96 95 97 96 95 90 97 94 92 88 88 77 71 57 38 33 30 33 33 27 29 39 47 54 55 62 67 59 73 62 68 73 77 78 76 80 86 91 92 95 96 96 96
95 95 91 88 82 85 94 96 89 87 89 78 72 51 40 41 33 30 29 27 27 31 34 47 56 55 57 58 56 58 63 75 74 80 77 81 82 89 91 94 94 96 95 92
96 92 79 73 78 86 92 87 80 78 79 65 59 50 48 44 38 33 32 31 33 33 34 32 36 45 51 60 65 62 56 60 68 71 77 84 87 92 93 95 96 96 93 90
86 80 80 85 83 78 86 80 75 68 63 52 50 47 42 43 41 38 35 32 34 38 34 35 32 33 42 53 58 58 58 60 67 70 77 86 88 91 93 93 92 90 86 83
90 81 80 70 68 77 82 71 61 57 59 51 53 54 44 39 42 42 38 39 38 38 41 36 39 38 42 46 48 52 57 61 68 73 78 87 88 91 91 91 86 84 79 72
75 77 81 73 73 75 64 56 58 62 56 53 51 47 52 39 46 46 43 45 45 40 46 45 40 51 50 50 46 47 54 61 69 72 77 85 92 91 92 91 85 82 74 68
84 66 68 69 68 57 56 57 62 49 48 55 54 50 47 48 49 50 49 45 47 53 52 50 53 57 58 49 51 52 53 64 70 71 73 81 90 92 88 86 83 80 73 67
67 62 63 61 61 59 57 52 52 50 56 53 55 51 46 49 51 52 49 49 52 60 75 60 68 64 66 60 61 67 63 69 77 78 74 77 81 88 91 85 80 75 73 67
61 56 58 62 62 60 62 56 52 58 58 54 55 49 49 50 51 51 44 54 62 73 69 71 73 84 70 72 72 74 73 79 81 83 78 75 75 76 78 81 78 72 68 61
69 62 61 65 61 69 67 70 66 66 62 54 45 51 52 48 54 51 51 65 81 75 83 86 79 72 73 73 69 80 82 84 81 85 82 76 75 76 77 76 74 70 62 47
72 68 75 80 73 69 67 75 74 69 48 47 50 48 52 55 54 52 64 75 76 81 87 89 79 75 72 72 72 79 86 83 88 89 85 83 81 80 77 75 73 64 48 37
81 78 81 76 70 70 66 65 60 48 50 49 50 48 55 52 55 61 65 70 78 82 91 81 83 86 86 83 78 81 90 92 90 91 91 88 85 81 76 72 64 49 37 31
78 77 80 78 72 63 57 52 51 51 52 54 53 51 58 54 61 63 70 79 81 84 74 77 84 89 88 93 97 97 97 97 97 97 93 92 86 78 71 62 47 38 33 29
82 82 78 78 65 59 60 60 56 52 58 56 50 51 56 54 60 69 76 84 84 77 75 76 82 90 95 97 96 95 95 94 91 91 88 84 79 72 62 45 38 36 33 34

GFSNW_prec_cthk_108.txt.gz
RH
52 55 58 71 75 74 65 68 76 54 60 76 85 73 72 67 82 69 55 60 62 62 65 68 65 80 83 75 80 81 78 74 75 71 64 60 60 69 86 98 95 95 91 83
49 56 63 85 90 84 71 78 74 77 69 75 64 58 66 71 65 68 58 58 60 65 68 74 69 82 83 77 71 73 74 75 74 80 72 56 55 61 65 69 68 66 70 68
46 58 64 84 99 96 79 82 92 68 78 70 66 67 70 78 59 59 57 57 64 65 71 72 77 85 84 78 77 73 75 71 72 80 79 63 58 58 60 60 67 59 60 68
38 55 73 95 98 89 83 85 97 70 64 66 69 72 60 69 64 56 64 68 69 70 75 74 80 84 85 81 78 75 74 76 70 69 56 56 61 53 50 47 51 59 57 52
40 59 90 95 99 99 90 89 98 91 69 72 80 81 72 66 64 63 63 69 74 76 77 77 80 86 82 78 76 78 79 83 77 71 60 55 53 47 48 48 47 45 45 47
53 67 89 96 98 96 88 84 83 98 78 91 80 71 71 74 72 71 66 72 76 79 83 85 79 82 79 73 79 85 78 77 72 67 62 56 53 49 41 40 34 38 37 58
68 79 85 97 98 92 88 88 87 92 80 84 77 75 77 78 82 89 79 85 83 87 82 78 77 77 76 75 79 75 72 69 61 57 51 45 55 47 41 37 47 47 46 51
79 81 86 98 93 95 90 83 88 90 94 88 83 79 83 84 92 91 83 79 84 77 70 80 81 76 73 73 69 61 53 52 49 50 40 55 55 49 48 42 53 48 50 50
79 89 97 98 92 85 92 86 92 97 96 91 84 84 87 97 97 91 83 80 81 74 73 80 80 78 69 74 71 54 47 49 54 46 49 56 76 59 52 49 61 62 68 67
79 92 95 98 93 89 96 99 98 98 98 93 93 93 96 91 91 84 78 73 71 70 77 86 80 80 64 75 69 61 55 45 44 49 48 71 65 59 55 62 69 74 77 78
87 97 97 94 85 91 98 98 97 98 99 94 96 93 95 90 86 81 74 73 70 67 77 75 79 86 69 80 78 50 44 45 45 50 59 66 66 61 62 68 72 77 81 84
87 89 85 82 90 98 98 98 97 97 99 93 91 89 87 87 91 90 77 70 64 63 68 65 71 62 63 61 61 55 65 64 74 68 77 72 66 64 67 74 80 90 90 91
92 95 93 80 94 97 96 98 97 96 95 93 92 89 83 79 76 77 75 66 62 55 64 71 68 63 49 57 66 55 51 56 69 72 67 64 64 69 75 81 88 88 90 94
78 74 72 87 97 98 97 98 97 96 98 96 89 83 78 68 56 55 53 47 38 42 51 60 61 67 55 71 70 58 50 54 60 66 70 69 69 74 83 87 87 89 90 93
75 83 90 97 98 96 98 98 98 98 97 90 87 78 65 58 43 38 38 36 34 42 43 45 72 70 56 72 64 62 58 64 63 73 65 71 72 77 85 87 91 94 92 90
90 95 98 98 93 94 99 98 98 97 91 82 84 70 61 50 47 41 43 42 43 43 42 46 52 58 52 57 60 62 55 60 63 68 70 72 78 82 88 89 93 92 91 83
95 93 90 88 88 98 95 91 85 87 82 80 71 54 51 51 45 47 44 38 41 45 34 38 35 33 45 68 66 58 54 50 57 60 68 74 81 85 89 93 95 92 88 81
88 80 81 89 97 97 90 85 82 80 76 68 56 61 46 48 52 45 43 41 39 39 42 33 42 41 36 52 52 51 50 52 54 61 65 74 80 85 88 90 89 87 82 74
91 91 93 93 94 93 88 82 78 67 78 61 54 50 53 50 52 47 41 44 46 35 45 47 40 52 49 48 41 39 45 50 55 61 69 76 81 85 88 89 86 83 78 71
88 89 88 87 84 85 80 74 72 70 57 60 63 62 53 44 46 47 46 44 50 52 45 45 42 54 54 54 47 42 46 50 58 63 72 78 84 88 90 92 87 82 75 69
89 89 80 80 81 76 71 69 71 62 57 55 60 52 50 48 48 46 54 51 46 49 67 64 64 57 62 64 58 54 56 57 65 70 74 80 84 93 91 91 88 81 77 69
73 71 70 74 74 65 62 66 58 62 63 60 59 55 53 49 55 52 41 47 47 63 75 72 62 86 78 69 63 64 68 70 72 80 81 82 84 93 94 89 82 74 73 69
73 75 76 70 58 64 61 61 58 66 64 69 69 62 50 49 52 48 46 50 66 68 74 76 79 67 65 70 72 74 83 81 82 91 87 82 83 87 89 88 86 79 70 61
72 67 65 78 70 68 76 74 66 70 65 67 58 52 53 55 57 47 52 61 68 71 79 94 81 77 70 66 68 73 85 85 89 91 90 87 80 79 82 77 75 72 63 52
72 72 79 79 74 75 77 80 78 74 76 54 48 49 49 51 47 49 56 61 68 74 97 82 78 84 88 84 77 75 81 86 89 89 93 87 80 80 79 76 71 69 56 40
73 78 82 82 79 75 71 67 72 68 52 60 48 56 57 49 52 54 61 69 82 94 74 72 81 85 83 81 81 81 83 86 90 91 93 92 89 85 80 75 70 59 41 32
85 88 88 87 83 75 65 64 57 56 68 65 52 51 50 50 54 61 64 79 91 76 73 75 85 92 96 97 97 97 97 97 94 94 95 92 90 84 78 70 58 42 33 29

GFSNW_prec_cthk_111.txt.gz
RH
44 49 50 48 53 60 71 63 63 44 56 64 70 74 74 77 73 66 70 78 63 65 62 74 68 74 70 58 62 87 86 86 84 74 66 68 69 71 80 96 92 98 98 98
42 51 51 52 54 66 67 75 71 70 62 75 63 75 70 76 57 71 91 76 60 63 70 73 59 64 61 64 72 91 92 98 91 77 69 67 69 66 75 79 88 85 86 91
40 43 51 50 50 61 84 91 91 90 82 78 76 69 63 75 70 73 71 64 75 77 74 67 60 68 64 71 70 76 82 82 77 76 77 72 70 65 65 74 85 76 71 82
35 33 40 54 55 71 95 99 95 81 90 71 80 74 60 71 80 81 65 69 61 68 71 58 60 66 75 77 72 83 87 87 78 71 72 62 66 63 64 67 65 70 64 76
38 33 32 51 59 83 99 98 93 81 63 73 75 84 93 76 68 82 79 81 74 66 62 65 69 76 89 79 76 83 87 92 80 78 72 58 59 59 54 53 55 56 64 76
40 33 37 48 57 96 98 99 86 78 79 78 91 59 62 73 73 69 64 59 66 71 69 76 75 76 81 81 78 84 84 87 83 89 75 70 62 61 61 63 67 65 67 73
38 35 42 52 70 94 95 98 94 85 95 98 87 77 64 68 85 91 82 71 72 77 78 85 83 81 86 81 79 81 85 86 83 78 66 74 70 65 64 67 65 60 53 52
34 43 53 71 69 87 98 99 94 87 92 83 87 85 74 77 85 95 92 87 83 88 78 85 83 77 78 80 78 78 80 79 75 77 73 79 69 67 63 58 56 48 50 53
46 59 66 85 87 96 98 94 90 87 84 77 78 80 80 87 95 99 98 88 83 81 82 86 95 91 77 77 74 74 69 66 71 67 74 72 68 53 58 52 53 47 53 59
71 71 80 86 90 97 96 90 82 82 79 71 76 82 95 92 96 98 91 85 80 76 81 85 89 88 71 81 80 73 68 69 70 73 69 70 65 59 60 62 53 54 62 70
77 79 87 95 98 91 88 86 78 76 84 93 98 87 91 95 97 96 85 79 78 79 84 86 91 96 85 84 82 70 71 73 67 53 62 71 63 64 64 61 59 63 71 79
78 89 97 99 95 90 83 85 87 96 98 99 97 97 96 98 93 84 78 72 68 71 73 76 84 90 87 87 95 79 70 61 62 59 67 70 68 67 61 59 69 78 81 84
80 90 94 93 91 86 93 96 98 98 98 98 97 96 92 92 91 80 70 70 67 66 69 80 83 80 78 80 80 74 64 59 66 68 67 69 64 62 62 69 80 85 85 87
89 96 93 89 88 89 96 97 98 98 98 98 91 88 85 78 82 77 74 72 68 63 72 81 87 85 74 74 71 65 56 54 59 67 71 65 62 64 70 79 84 87 88 92
90 91 90 86 92 98 98 98 98 99 97 89 86 81 80 74 67 64 64 57 48 49 65 74 85 83 77 71 70 73 60 55 54 61 56 61 65 68 73 83 88 89 90 91
86 81 76 83 98 96 94 99 98 95 88 82 90 85 79 66 67 56 44 45 46 50 54 58 72 78 66 75 82 70 60 56 55 61 65 64 69 72 76 83 90 91 90 89
81 80 87 98 98 96 96 96 93 89 88 84 84 78 76 62 52 45 49 54 50 50 48 48 52 59 56 60 62 57 57 52 51 55 58 68 72 77 80 88 92 91 91 84
87 92 93 96 98 96 93 91 89 91 87 81 78 74 56 50 50 47 47 50 47 43 37 34 39 34 39 55 60 62 56 50 48 51 55 61 72 78 83 89 94 92 89 80
87 90 94 98 98 95 89 86 85 84 79 77 68 54 59 54 56 50 51 49 52 44 46 44 42 48 45 41 41 42 41 46 50 52 56 63 71 79 82 86 89 88 85 75
90 95 96 98 96 87 87 83 76 74 70 74 60 54 50 54 54 54 48 51 54 47 44 44 47 53 48 47 46 44 39 41 48 54 58 64 72 80 83 86 88 86 81 72
97 96 95 90 87 87 84 81 75 72 67 75 73 56 50 49 52 54 49 45 45 55 58 52 58 58 55 54 55 53 48 53 53 57 62 70 75 83 88 91 90 87 80 73
90 86 85 91 87 79 77 78 72 70 63 66 66 55 52 55 54 48 47 49 45 59 62 66 65 67 69 64 61 59 59 62 63 63 71 77 86 89 94 96 94 88 83 77
86 87 87 79 73 70 69 74 67 73 63 60 60 59 56 59 51 51 46 51 57 57 67 71 82 76 68 60 60 64 68 73 74 75 82 87 94 95 97 96 93 90 85 79
81 72 75 76 70 72 76 74 66 65 73 76 70 64 58 52 49 46 45 52 61 68 76 88 84 77 75 65 64 68 78 83 86 90 95 92 92 94 98 97 94 91 84 72
72 71 80 78 75 74 75 72 67 73 81 74 71 53 47 51 45 45 51 57 64 72 93 90 74 79 82 82 68 66 83 88 90 96 97 96 93 92 94 96 92 89 82 63
72 75 79 76 72 76 78 84 77 80 77 64 49 56 50 47 47 50 55 68 79 90 80 70 76 84 84 81 85 79 80 85 88 93 97 98 95 92 89 90 86 78 69 50
80 89 88 90 82 75 72 75 80 77 70 66 57 51 53 51 56 59 62 73 80 79 69 69 79 88 92 93 94 87 86 89 94 96 97 98 95 92 90 87 81 71 54 45

GFSNW_prec_cthk_114.txt.gz
RH
51 46 50 51 50 54 56 58 54 42 52 69 75 73 54 49 50 57 60 59 57 61 66 68 69 69 61 57 58 77 81 83 81 69 76 72 73 74 82 94 89 93 88 96
48 49 53 57 54 60 64 67 66 62 62 57 55 57 65 62 62 63 52 62 66 76 72 77 68 71 67 65 73 80 72 83 84 95 83 75 74 72 74 82 94 93 90 88
49 45 51 59 60 63 73 76 76 76 74 60 64 73 82 84 69 56 61 71 76 75 63 68 75 69 70 80 76 66 69 81 88 90 83 77 74 72 75 83 96 83 75 85
54 52 49 56 62 67 77 80 79 64 76 70 67 60 57 60 62 70 77 85 82 62 71 78 79 78 79 73 64 57 63 76 84 82 77 76 72 62 65 77 79 80 68 81
67 57 50 54 69 79 79 75 74 83 87 84 85 87 73 65 66 67 89 73 74 78 68 66 79 85 87 75 55 63 69 89 92 93 81 71 64 63 59 63 68 77 73 80
73 61 41 44 58 78 82 71 75 98 87 91 93 73 66 67 75 71 59 68 86 85 70 70 64 62 64 61 64 77 83 92 96 95 91 89 79 61 69 69 71 74 75 70
63 56 47 39 43 59 69 74 84 96 96 97 77 67 68 68 68 84 79 77 84 82 81 85 81 71 72 70 73 78 84 91 93 93 90 96 78 74 70 75 80 77 76 77
60 58 49 42 37 52 67 79 96 97 97 90 87 89 85 81 70 82 87 90 81 81 82 84 89 91 86 83 80 80 81 90 98 91 86 85 80 75 76 73 75 68 65 63
55 53 40 42 41 60 72 76 96 99 93 85 81 86 90 96 86 77 74 92 97 86 87 88 94 93 81 86 84 83 86 83 87 88 82 89 80 73 67 61 66 60 53 47
34 34 35 50 64 78 78 82 98 99 95 87 83 82 78 86 86 77 79 90 98 89 90 97 92 86 75 84 84 82 81 85 80 83 84 83 73 69 65 62 58 53 50 53
48 36 43 67 80 84 92 96 98 96 93 85 79 74 74 74 80 76 78 95 92 87 81 85 85 86 85 84 81 76 81 81 83 82 85 81 68 60 59 58 56 55 55 58
80 68 67 94 89 89 92 98 98 89 83 81 79 73 77 83 89 79 81 86 84 80 78 77 78 92 94 85 92 79 81 76 81 82 74 63 57 60 62 55 53 60 66 73
82 76 97 98 97 99 97 97 91 83 77 86 97 97 89 89 84 84 85 80 78 73 74 78 81 86 92 93 94 87 84 74 76 67 58 54 65 68 62 56 61 72 75 75
78 90 97 98 98 97 91 84 83 80 89 91 97 97 97 97 94 87 81 75 71 68 71 80 82 92 87 90 83 84 77 72 65 65 68 64 67 60 58 63 70 78 80 81
87 94 98 98 98 96 85 89 89 96 86 85 92 90 86 87 85 80 78 73 70 71 73 81 84 87 91 85 79 81 75 66 57 56 61 62 58 60 62 68 75 81 83 86
91 97 97 94 88 84 95 99 98 92 82 84 91 85 85 79 77 76 71 67 65 65 71 79 85 87 88 91 84 78 74 61 53 54 53 55 59 63 66 69 76 84 85 87
95 89 88 89 92 95 94 90 91 86 86 81 85 85 80 72 70 71 63 58 54 55 61 64 69 77 80 80 77 80 70 58 56 55 58 64 64 68 70 75 82 88 89 89
94 91 86 95 97 97 97 94 92 89 86 80 79 80 80 72 62 61 58 54 50 52 54 51 56 69 66 64 63 63 60 56 51 51 53 55 62 68 76 80 88 90 92 89
85 90 94 95 98 98 95 94 92 89 85 81 74 78 71 60 55 51 58 56 58 53 53 43 42 45 42 39 42 52 55 50 52 52 51 54 60 68 77 84 89 91 93 88
95 96 96 98 96 92 93 87 83 80 83 84 72 54 61 56 53 58 56 53 51 55 52 47 49 49 46 49 48 47 45 39 40 49 53 55 60 68 76 85 87 89 90 88
98 93 91 89 92 87 83 81 76 74 78 72 62 45 49 57 56 54 51 59 59 63 57 52 51 52 51 52 53 52 48 44 44 47 52 60 63 71 76 85 88 89 90 87
96 91 89 91 88 83 80 82 76 73 73 76 66 51 53 57 55 55 56 51 50 57 57 58 64 61 59 60 57 54 52 53 56 56 57 63 69 75 82 87 92 91 90 87
96 93 85 78 80 76 75 74 74 76 71 71 58 63 58 57 53 50 49 50 53 52 59 61 59 66 63 58 54 53 54 54 58 64 69 72 81 85 91 95 97 94 92 88
85 79 82 73 75 75 79 77 75 71 70 63 61 59 62 58 51 49 46 51 51 59 63 67 78 67 68 66 59 55 62 68 75 81 81 85 91 96 98 98 97 97 95 92
77 78 83 80 81 81 80 74 72 75 75 67 67 63 59 51 47 46 48 52 55 59 70 83 74 70 74 74 67 61 71 81 84 88 91 94 98 98 98 97 97 97 95 89
78 81 78 80 77 80 82 75 76 78 81 76 71 61 49 50 44 45 49 55 61 68 76 67 66 81 82 78 79 70 77 82 87 93 98 98 98 98 98 97 97 97 96 86
86 89 85 79 76 86 84 80 77 78 77 76 60 50 50 51 52 51 56 61 67 78 69 66 70 84 87 89 90 83 81 84 84 89 95 98 98 98 98 97 97 96 91 77

GFSNW_prec_cthk_117.txt.gz
RH
64 58 55 64 70 66 68 65 67 58 60 70 88 86 70 63 56 57 61 62 57 57 50 48 53 54 57 60 63 69 65 84 86 82 80 76 73 68 86 87 89 87 88 77
71 59 53 56 64 70 77 78 73 64 58 65 68 62 68 68 57 63 69 57 55 56 55 65 55 53 57 67 72 76 75 86 89 85 80 75 80 77 84 85 84 87 92 76
66 55 61 65 66 68 75 74 72 72 71 70 59 65 67 69 56 60 65 54 56 57 61 60 62 62 68 70 69 72 78 89 87 82 76 66 75 87 85 86 94 82 84 81
65 60 56 66 70 70 78 80 77 67 75 67 60 63 60 72 67 65 64 54 59 67 73 64 71 78 82 74 65 74 77 92 92 81 71 70 80 93 91 87 76 87 76 86
68 63 66 56 66 79 87 88 80 76 68 67 75 79 60 55 49 57 66 76 73 82 76 72 78 81 76 80 79 82 81 86 86 75 68 69 77 79 61 65 78 83 85 91
79 76 69 68 63 78 81 78 85 79 73 73 76 66 60 61 70 63 65 76 80 74 57 79 81 82 74 76 81 89 89 89 88 74 75 91 95 69 69 74 79 83 87 80
80 83 88 74 73 72 80 75 74 81 73 82 71 66 74 73 76 74 66 67 71 59 77 79 97 93 82 76 75 84 91 87 88 86 88 95 77 79 79 79 79 76 75 76
80 83 86 80 67 75 75 79 87 82 75 75 81 86 79 78 75 69 66 70 75 79 89 96 98 98 96 89 81 79 77 82 88 92 89 82 78 79 81 76 80 79 81 83
87 86 85 77 58 50 67 69 76 85 79 86 89 89 88 88 87 74 64 66 77 92 93 98 94 95 89 96 90 77 79 84 93 95 93 90 75 76 76 77 77 75 72 70
80 84 83 70 61 51 52 57 69 91 86 84 93 93 86 84 88 81 80 76 83 96 98 89 92 86 79 85 78 83 93 97 92 92 90 81 75 75 74 74 66 66 65 63
56 60 69 67 53 52 57 60 73 81 93 96 93 87 82 83 87 84 85 88 84 94 96 96 93 84 73 75 81 84 83 91 93 88 91 81 74 77 77 71 69 57 54 53
34 34 43 54 51 60 72 82 75 89 96 98 90 85 78 77 78 76 86 75 72 86 93 92 91 97 90 80 89 77 83 79 82 82 79 78 78 76 69 61 57 54 50 55
71 58 40 42 60 79 85 85 89 95 93 87 87 77 75 71 68 78 88 75 79 87 84 86 82 86 85 85 86 83 80 79 87 85 82 83 81 65 61 60 54 52 60 67
87 69 42 62 84 89 94 98 96 99 97 92 78 81 90 78 77 97 94 82 84 88 82 83 82 85 82 86 85 86 84 84 84 82 82 76 65 52 63 63 55 59 69 71
88 89 92 95 92 93 96 96 98 98 91 87 97 95 97 93 90 90 88 82 82 79 78 79 79 79 87 88 89 89 82 84 79 70 60 63 59 64 60 56 60 67 73 76
92 94 97 98 99 96 97 99 96 94 91 91 96 95 97 94 93 93 82 78 74 72 74 80 82 85 88 95 93 87 83 83 73 62 54 58 65 60 58 60 65 72 78 81
91 96 98 99 99 98 85 79 79 90 93 88 92 91 88 84 83 82 79 72 71 70 76 78 85 85 90 93 92 87 83 80 67 56 51 56 58 61 64 65 68 74 79 82
95 98 99 99 95 92 98 93 92 89 84 82 82 85 80 78 78 77 74 67 68 69 71 73 81 81 87 90 89 84 82 73 59 55 57 60 61 65 68 69 73 79 85 87
98 98 97 92 96 98 99 98 92 88 86 76 67 75 79 77 78 72 68 67 65 64 66 62 62 68 73 70 57 62 62 56 55 51 51 54 56 63 67 74 79 83 90 90
96 91 94 98 98 98 98 97 91 88 87 81 73 74 78 71 68 72 72 70 62 63 65 54 56 57 48 42 42 42 42 44 44 48 54 54 55 60 67 74 81 85 91 91
83 89 94 96 95 90 87 84 78 78 87 84 76 65 63 63 56 57 58 59 56 57 55 53 55 55 53 52 49 46 44 42 41 40 43 50 56 62 67 76 82 87 90 91
84 93 97 93 88 85 83 83 77 75 80 77 58 55 52 55 55 56 57 57 58 65 61 56 58 56 54 53 55 51 47 43 42 47 51 53 58 65 71 77 80 85 89 91
96 92 89 87 84 79 77 77 77 79 80 65 54 58 60 58 53 54 56 58 57 56 60 56 54 54 57 55 50 49 47 46 47 48 54 60 68 74 76 82 85 88 91 94
83 81 83 81 78 74 76 76 78 77 75 70 61 60 64 58 57 57 50 53 51 56 57 53 56 62 57 57 57 53 51 54 55 58 63 71 78 86 90 89 90 94 97 96
80 81 85 81 79 81 81 80 77 72 73 62 64 60 54 55 52 47 46 51 52 53 54 67 71 66 61 64 65 61 56 62 68 71 80 87 92 94 93 97 98 98 98 97
83 81 82 82 83 82 81 80 75 70 66 65 59 61 64 59 45 45 46 46 51 56 62 68 61 65 75 74 74 70 72 72 78 84 90 95 97 97 98 98 98 97 98 98
87 87 84 83 87 88 83 80 83 82 78 78 71 63 52 48 50 47 48 54 61 66 70 63 63 69 79 82 85 83 79 90 87 87 98 98 98 98 98 98 97 97 97 97

GFSNW_prec_cthk_120.txt.gz
RH
95 96 90 94 97 96 90 78 72 57 54 79 84 77 58 55 54 60 62 63 60 59 58 58 61 58 53 51 50 57 55 68 67 65 68 75 77 84 90 96 88 82 83 74
97 98 95 89 88 94 94 96 92 86 88 93 93 86 69 64 63 67 74 69 65 61 62 65 61 56 53 55 58 64 73 95 96 93 88 90 85 73 78 80 80 77 94 75
98 98 93 85 79 81 91 95 98 92 93 93 84 87 85 81 74 80 80 73 71 69 65 64 63 53 53 54 54 61 77 84 79 77 76 81 89 80 76 77 87 88 86 86
98 97 90 80 76 84 89 86 88 89 96 91 84 76 69 69 71 68 72 77 71 70 77 73 59 55 58 58 59 66 71 84 91 84 83 87 86 83 74 79 68 83 87 85
97 89 82 76 75 84 94 92 92 76 71 75 86 85 82 76 69 73 73 68 63 67 72 69 56 57 63 62 66 76 83 88 90 82 83 86 90 77 74 76 72 93 95 82
95 87 79 76 73 91 93 93 93 82 78 74 81 75 60 54 63 60 56 60 75 81 66 72 65 72 79 77 88 86 92 95 95 90 84 88 91 61 62 58 58 61 76 75
90 84 78 80 82 80 90 90 88 85 78 79 66 63 67 63 65 58 55 55 59 49 59 63 65 75 79 67 67 80 87 98 97 94 92 95 66 62 57 52 60 71 71 82
92 83 81 77 87 91 86 89 92 95 85 75 77 72 66 69 72 62 66 60 63 65 70 80 89 86 77 58 91 90 91 96 97 95 88 77 71 61 58 60 61 75 83 81
88 84 80 82 93 96 92 88 89 89 83 74 72 80 76 79 74 73 65 68 69 71 83 90 88 82 70 82 92 94 94 89 94 94 90 84 55 54 61 64 71 73 76 82
84 79 78 85 94 94 89 86 82 90 82 71 75 74 83 84 88 81 80 82 84 76 80 91 94 88 78 92 94 89 94 95 91 92 89 73 60 66 68 79 71 75 80 79
73 77 80 86 92 89 90 82 77 78 80 76 74 73 75 88 95 86 85 94 84 82 91 81 83 97 80 85 86 83 84 87 85 86 91 81 67 70 74 75 75 74 75 73
63 68 76 84 91 89 91 77 68 73 78 76 81 91 90 93 97 92 91 90 89 88 88 94 97 97 91 79 84 76 80 71 80 84 77 74 75 76 77 73 70 72 67 64
54 57 67 78 86 82 80 68 61 76 81 81 91 94 94 90 88 87 86 83 89 90 87 86 86 87 96 87 82 82 79 75 79 76 76 78 81 83 77 72 72 66 56 54
43 41 51 62 67 71 73 67 69 76 88 91 85 87 80 78 72 76 79 77 86 84 81 97 92 97 92 90 82 79 75 77 81 82 83 84 84 83 83 69 65 58 54 60
73 48 39 40 54 65 78 88 89 88 92 93 90 87 84 74 73 78 76 83 92 92 97 98 94 90 88 87 83 82 78 83 86 83 77 71 75 79 72 61 59 55 58 68
93 74 51 60 70 85 98 98 97 97 99 98 96 90 92 93 95 88 92 98 96 97 92 90 85 79 77 82 84 84 87 83 79 81 78 70 68 68 62 61 56 59 68 74
91 83 75 81 93 96 93 93 90 91 99 98 98 98 99 99 95 95 93 91 90 84 82 80 79 78 77 87 96 92 88 85 84 82 72 67 60 67 67 60 61 65 72 78
97 98 97 98 98 99 99 96 96 98 98 96 94 97 96 97 97 96 92 85 81 79 75 75 79 81 85 96 90 90 87 86 84 79 64 55 55 60 64 65 67 71 75 78
99 98 99 99 99 97 98 98 99 98 98 91 83 88 93 88 86 82 76 71 75 73 73 73 79 85 86 81 80 83 83 82 77 64 55 59 63 65 67 70 73 75 79 84
98 99 98 98 97 98 99 99 99 99 98 89 76 76 78 75 79 80 75 69 73 72 73 71 75 74 68 62 56 51 52 54 57 56 57 55 56 58 65 70 75 79 82 88
97 96 91 97 98 97 92 86 84 84 86 81 70 72 76 76 77 75 74 73 67 62 66 67 63 59 54 49 46 47 45 42 41 40 40 45 53 58 61 67 74 79 86 90
90 94 94 97 94 87 85 83 80 77 82 80 76 74 70 69 62 65 63 59 58 63 60 57 53 49 52 53 53 52 50 46 43 42 43 46 50 55 61 69 74 80 83 90
94 88 86 86 84 81 81 82 77 79 83 78 72 69 62 55 55 59 59 59 62 64 66 60 56 56 56 54 53 48 44 43 42 41 44 48 53 59 65 73 77 81 84 90
87 86 88 86 80 77 77 79 83 84 81 67 60 58 62 58 56 55 56 60 55 57 56 48 50 53 58 56 51 47 48 48 48 48 50 54 59 67 75 79 83 87 88 90
83 82 86 81 79 83 79 83 82 81 72 62 54 56 55 57 57 59 53 50 52 50 49 53 57 66 63 58 59 56 55 55 55 56 59 64 73 79 86 90 92 92 96 96
82 81 82 82 82 85 86 85 81 79 77 69 60 63 62 58 53 46 44 45 46 49 55 65 68 59 62 68 65 66 67 68 63 63 69 76 87 92 95 97 96 98 97 97
86 87 87 86 85 88 88 81 79 78 73 72 62 56 62 63 53 48 46 50 54 59 65 68 61 62 67 75 77 78 74 79 72 73 83 93 96 96 94 97 97 97 98 98

GFSNW_prec_cthk_123.txt.gz
RH
96 96 98 95 99 99 99 92 83 69 62 72 74 77 58 57 56 57 60 61 61 58 61 63 59 57 56 56 56 63 61 65 67 61 62 60 65 67 73 90 94 94 95 57
93 97 98 98 99 97 98 89 89 84 83 82 76 56 50 59 61 64 64 61 60 61 63 68 69 68 67 63 63 71 70 81 77 73 80 83 80 80 82 90 94 82 94 60
84 90 88 98 98 98 98 99 97 95 93 93 85 73 66 68 63 67 69 71 68 68 69 71 71 69 68 67 67 71 72 76 78 79 88 86 92 81 80 85 90 84 72 62
95 88 98 98 99 98 99 98 98 92 97 94 86 86 75 77 76 78 73 71 75 75 78 77 73 70 65 60 61 65 65 68 71 66 69 78 79 73 77 83 80 89 56 62
93 99 98 92 94 98 98 97 97 89 86 88 91 90 85 78 78 86 88 83 80 81 81 70 69 76 76 74 75 68 68 72 77 69 68 78 81 75 78 78 71 73 72 64
84 95 98 98 98 98 98 91 92 94 86 86 91 88 73 70 78 78 77 81 86 84 71 73 73 79 76 69 71 72 71 75 78 72 71 87 92 61 67 68 63 60 66 54
97 98 98 98 96 96 95 88 89 93 88 88 81 76 70 67 73 77 79 77 77 71 72 75 74 77 74 71 63 65 68 80 95 81 90 95 56 58 60 64 54 60 62 61
92 98 97 96 92 87 87 81 86 98 97 92 84 76 71 78 81 73 74 71 70 70 70 72 72 68 70 57 54 55 63 76 80 87 86 80 70 62 62 60 49 55 53 57
98 94 96 94 92 84 81 77 83 97 94 92 84 80 71 73 74 72 62 63 64 68 72 86 79 72 66 65 61 55 63 69 77 97 94 83 58 57 55 52 49 45 49 59
98 98 93 89 87 83 74 73 76 93 98 81 86 83 75 73 72 65 67 68 71 74 78 80 76 71 68 64 71 71 78 78 90 97 95 80 58 56 58 62 51 50 61 72
96 92 84 83 83 75 73 77 84 90 96 96 88 87 78 74 69 67 71 79 79 88 90 82 77 77 69 73 71 73 87 90 86 89 92 81 55 57 59 56 57 64 73 76
75 77 73 72 72 80 82 83 87 87 92 86 85 80 75 74 79 84 89 89 89 92 92 82 78 76 69 65 78 87 91 83 82 79 70 65 64 64 59 60 66 73 77 77
51 57 63 66 74 83 82 86 87 86 90 86 79 66 70 68 71 82 92 95 92 90 98 95 93 87 78 83 78 86 86 79 77 80 72 70 72 69 69 71 72 73 73 69
51 45 53 64 67 77 84 87 90 84 86 79 64 64 69 76 79 80 87 94 94 94 95 99 97 90 84 80 84 95 86 82 83 78 73 74 73 73 75 79 78 74 71 71
68 69 56 58 61 73 90 89 83 70 61 88 74 72 78 85 86 87 88 88 92 90 93 93 91 94 98 98 97 93 82 78 75 72 72 74 77 75 79 78 81 78 69 62
76 45 53 52 60 75 90 89 69 64 76 91 94 84 88 83 79 76 75 80 84 85 89 94 94 95 91 88 85 80 79 76 75 79 82 81 79 74 78 79 81 73 61 62
85 47 45 55 60 65 71 77 77 72 93 98 98 95 97 90 85 82 82 89 86 91 99 97 95 92 86 80 76 77 81 84 84 83 84 87 83 78 75 74 67 61 64 72
86 70 57 57 72 82 85 91 97 90 98 98 98 97 98 99 97 97 95 97 98 98 89 88 85 84 83 79 82 86 89 90 90 89 85 77 69 66 67 68 66 65 70 74
89 84 82 91 95 93 88 90 98 98 98 98 95 97 98 98 97 97 95 94 92 89 86 81 79 81 80 81 82 86 88 87 88 84 76 70 67 64 62 68 70 72 74 76
97 97 99 99 98 97 98 99 98 99 99 98 87 91 97 95 94 93 89 85 86 84 80 74 77 79 83 77 73 79 81 75 75 81 78 62 58 64 67 71 74 76 78 79
98 98 98 98 99 98 98 98 97 96 92 90 79 79 82 86 87 85 82 76 73 70 67 71 73 70 71 70 67 59 46 42 42 43 45 51 55 58 60 65 72 77 81 84
97 94 97 95 97 94 88 81 82 83 84 81 73 73 73 77 78 75 75 68 67 64 65 69 61 52 59 58 54 49 48 49 48 44 42 43 46 50 55 62 69 72 79 84
95 92 94 95 89 84 79 77 74 80 82 76 75 76 74 70 66 67 64 60 61 61 63 58 56 60 62 63 62 55 50 43 40 39 39 42 45 50 55 62 67 74 80 83
86 86 93 84 81 80 81 81 83 83 81 77 72 71 71 63 59 59 59 65 64 67 66 57 56 59 58 56 53 47 45 46 45 43 45 47 49 52 58 66 71 76 81 85
84 83 87 83 82 81 80 82 84 83 78 74 64 61 58 59 57 56 57 58 56 50 47 49 53 58 61 58 54 52 51 55 53 50 49 52 56 59 64 70 79 83 86 90
83 86 85 83 83 85 85 84 85 77 72 61 55 58 61 62 58 57 51 43 42 45 51 61 63 67 60 61 64 60 61 65 65 56 56 62 68 72 80 85 91 97 97 94
86 89 85 84 88 89 90 87 86 80 75 71 63 65 65 59 60 53 46 48 50 55 58 64 64 60 64 70 73 71 69 71 73 62 68 79 78 82 87 96 92 93 95 96

GFSNW_prec_cthk_126.txt.gz
RH
67 77 88 97 97 96 98 98 98 97 93 98 94 86 59 66 66 62 60 57 49 44 45 44 47 47 48 51 50 54 52 57 57 62 58 59 63 62 62 78 74 73 76 55
55 71 78 93 99 99 98 98 99 99 89 89 84 64 78 78 73 66 64 61 59 61 60 59 61 63 64 66 65 68 66 70 71 67 72 73 62 61 62 73 74 76 89 66
59 79 77 88 91 98 98 99 98 98 98 83 71 63 67 76 83 81 77 75 69 62 64 67 68 69 72 76 76 77 76 71 77 71 72 85 92 85 82 83 94 79 70 67
46 63 77 80 92 98 98 94 97 94 89 90 75 68 62 61 71 72 77 76 71 71 71 69 70 67 69 71 73 79 83 75 72 65 66 70 79 77 76 78 81 87 65 69
57 65 78 82 96 98 99 97 95 96 93 83 84 85 80 68 65 69 62 64 60 63 66 64 65 74 77 76 76 72 73 67 65 59 61 62 61 55 53 63 63 70 67 52
67 80 86 81 95 98 98 97 93 90 94 93 95 84 69 65 81 87 77 80 84 86 75 75 79 81 85 84 84 83 85 83 82 73 64 69 78 51 52 47 57 59 60 47
73 83 79 84 96 99 98 95 94 98 91 89 71 68 68 70 78 78 78 81 86 84 90 88 88 85 82 81 75 74 76 76 77 72 70 84 51 53 45 48 48 47 53 48
74 82 88 85 90 98 98 97 97 97 97 88 86 72 66 70 83 86 83 86 87 88 86 85 86 81 82 68 62 65 71 73 85 85 65 53 56 50 52 56 42 50 55 51
84 88 97 99 98 98 96 98 97 97 93 90 86 74 71 74 77 83 79 85 88 89 93 89 87 78 73 65 67 57 56 60 72 68 74 68 44 46 54 59 59 46 43 44
69 86 97 97 99 99 98 96 93 92 90 92 85 78 77 75 79 80 80 80 80 79 80 83 78 69 63 65 61 67 72 76 76 65 74 60 47 58 69 83 56 49 46 47
89 90 96 96 98 94 91 89 87 78 77 76 66 74 73 78 81 77 81 86 81 81 82 74 67 64 58 59 56 53 64 76 81 88 85 84 69 79 77 70 60 52 51 55
98 98 98 97 94 88 80 80 69 64 66 62 61 63 67 70 83 85 85 75 83 72 75 71 76 73 66 59 59 57 63 57 66 84 79 79 73 70 69 64 59 58 57 59
96 97 96 88 81 81 76 73 71 64 63 57 56 59 65 71 78 86 85 87 87 92 89 93 89 81 70 73 60 58 54 60 69 75 74 73 74 77 72 68 67 61 59 62
74 75 77 70 65 62 62 64 62 63 60 69 62 60 60 66 70 72 75 83 78 83 93 91 97 93 77 74 76 76 72 73 77 80 78 73 74 76 72 68 65 65 67 74
55 49 56 62 65 62 67 73 67 62 64 75 75 68 63 64 69 66 71 78 87 92 94 91 84 81 85 81 82 77 82 84 86 80 74 70 70 70 72 74 72 75 80 82
67 56 45 55 64 66 71 72 67 64 68 76 91 81 67 62 65 70 76 82 89 94 97 90 82 83 89 97 93 84 79 83 80 75 72 72 76 77 78 78 80 85 86 87
69 60 70 58 67 64 67 66 69 66 67 83 82 81 79 82 86 91 87 90 92 93 92 87 87 92 95 97 85 83 73 77 78 79 77 82 83 82 81 78 82 85 89 82
61 50 64 55 58 68 72 80 81 65 74 86 93 90 95 93 87 86 85 86 88 89 89 91 96 95 93 88 83 73 75 78 81 84 87 86 86 80 77 80 82 79 72 69
66 59 65 70 76 76 77 81 98 95 88 93 90 93 98 99 92 86 87 89 96 98 97 93 93 93 85 82 75 73 76 84 88 89 90 87 80 74 71 72 75 74 71 75
73 68 76 83 81 87 87 90 97 99 99 97 97 97 98 99 97 98 96 96 94 96 91 88 86 81 77 73 73 75 83 85 85 85 84 77 71 70 69 68 69 74 77 79
85 88 97 96 92 99 98 98 98 96 98 98 93 95 97 97 94 92 86 86 83 82 87 82 76 68 68 75 77 77 72 66 57 51 58 69 70 61 61 66 73 78 82 84
93 97 97 98 98 98 98 95 90 91 90 91 82 87 92 91 86 84 81 78 73 64 63 66 65 64 65 71 71 66 58 48 43 41 42 42 43 48 53 59 65 71 78 85
97 95 95 93 90 92 85 78 78 84 87 79 74 78 77 78 78 74 69 65 67 65 70 66 65 56 57 59 57 53 53 54 47 42 43 43 44 46 51 56 61 66 75 80
93 94 88 87 75 70 68 72 74 74 77 74 76 76 78 75 65 65 66 68 65 67 65 62 61 64 64 65 60 53 47 42 41 42 42 43 44 46 49 54 59 67 73 77
89 91 85 81 74 75 73 73 76 79 77 77 74 72 68 65 65 63 60 64 62 62 60 59 56 58 57 55 53 49 47 47 50 50 47 46 48 50 53 57 61 69 75 82
88 89 86 84 84 84 80 81 81 80 75 69 69 62 62 63 58 55 55 49 43 49 48 50 53 58 60 57 56 55 54 55 58 54 49 54 56 59 62 69 74 76 83 91
86 86 82 83 84 86 86 85 79 77 76 70 59 59 63 62 59 56 49 48 48 48 50 60 64 64 58 58 64 65 62 64 67 59 55 64 72 71 75 77 82 86 96 97

GFSNW_prec_cthk_129.txt.gz
RH
19 18 18 52 75 86 98 98 98 93 99 98 90 93 57 61 73 75 72 70 57 51 64 65 63 60 63 56 55 51 48 49 46 55 53 48 50 57 57 71 60 59 59 49
23 21 20 24 67 82 92 98 98 97 99 97 89 67 71 80 79 77 76 66 63 63 62 58 59 62 74 61 55 54 52 58 58 53 54 66 65 55 65 68 65 63 72 62
25 24 24 24 52 76 96 98 98 99 99 97 84 79 78 82 80 80 80 74 67 64 67 64 58 59 67 60 61 55 60 60 61 61 58 77 87 70 68 62 78 74 73 67
27 27 26 30 49 76 99 98 98 98 96 98 86 80 65 69 75 84 89 91 79 73 71 64 61 65 79 76 72 72 75 73 67 66 65 81 84 87 80 78 78 95 76 75
29 32 34 33 56 93 98 99 96 98 91 79 82 81 75 63 56 64 73 81 81 80 86 76 75 77 80 76 77 74 78 89 81 76 73 65 64 61 55 63 65 71 73 69
33 38 43 47 63 97 99 97 96 96 91 89 91 81 60 54 60 61 68 76 73 79 78 75 75 73 84 84 77 75 80 79 82 81 69 68 69 42 56 53 48 54 58 54
39 43 51 46 69 97 98 94 98 98 96 94 88 76 71 59 58 65 70 80 77 79 86 85 84 88 88 83 83 85 98 97 96 90 80 94 60 51 49 56 55 52 58 56
45 49 57 57 68 96 95 95 93 97 98 87 88 84 82 74 69 88 94 88 86 90 96 93 96 91 96 85 81 80 82 82 88 92 76 66 58 47 60 57 52 51 60 52
71 65 62 76 88 91 96 99 94 96 93 85 79 80 68 71 74 84 76 83 90 86 88 93 94 86 72 67 74 66 66 69 83 82 86 80 52 51 61 66 67 50 47 43
83 65 76 92 98 93 97 98 94 88 97 91 88 76 74 72 73 73 77 77 81 86 94 94 93 79 67 80 75 84 79 76 76 74 81 67 41 46 66 74 43 46 50 55
75 74 94 99 97 97 98 97 95 95 97 92 87 91 82 80 83 76 78 81 77 77 81 77 77 76 67 68 65 64 82 81 75 74 78 75 47 54 61 54 60 63 65 67
88 89 97 98 98 99 98 96 96 93 88 86 85 87 83 80 78 75 82 73 74 77 73 67 66 66 62 57 58 55 62 55 60 72 74 82 79 78 77 68 70 76 72 67
96 98 99 99 98 96 97 94 85 81 76 71 67 65 62 57 60 68 73 78 77 73 77 82 88 83 74 79 70 70 63 67 64 67 49 61 66 68 74 73 72 69 64 65
98 97 98 98 94 88 87 83 79 73 66 65 60 48 46 47 51 53 60 68 56 62 79 95 93 85 86 85 77 79 81 80 73 74 63 64 61 72 75 76 74 70 68 66
90 96 96 90 79 71 68 64 58 55 56 60 59 56 43 41 43 51 55 54 48 66 79 86 83 77 82 87 84 74 68 74 80 73 84 93 88 83 78 78 77 75 74 73
76 76 74 68 60 54 61 59 56 56 53 52 54 61 54 48 50 48 59 64 67 70 78 75 78 81 92 85 72 67 69 75 85 90 92 86 76 74 73 74 79 83 83 83
56 47 54 61 58 61 61 64 67 53 57 59 53 47 58 68 75 68 68 72 65 71 84 82 84 89 92 77 69 76 92 85 80 80 82 80 76 78 77 81 85 84 84 89
63 52 45 52 59 64 61 52 48 53 57 54 59 74 96 68 73 77 72 74 75 78 84 85 87 91 87 89 81 81 84 78 77 75 76 76 78 78 83 87 86 88 86 91
62 65 66 67 67 70 69 58 69 72 74 68 69 84 97 93 88 84 89 88 89 85 87 84 87 84 90 84 93 84 79 77 77 78 80 84 87 87 85 81 79 83 88 87
64 70 73 70 65 61 64 72 86 92 90 82 86 96 98 97 97 85 88 89 92 90 83 85 97 88 90 89 83 76 73 75 79 85 90 88 84 77 78 76 76 77 82 82
76 80 75 75 62 70 78 82 93 91 92 85 79 86 97 98 96 89 83 85 90 96 95 92 86 78 86 83 73 71 74 75 81 78 74 69 78 80 78 72 70 75 76 82
88 92 93 89 88 98 97 98 96 96 97 94 92 95 99 98 95 91 87 89 83 87 84 84 75 85 80 66 67 74 75 72 63 48 40 40 43 48 53 60 65 68 76 86
97 99 96 96 93 98 94 88 85 92 91 87 92 94 93 90 92 89 85 85 85 76 81 70 74 68 61 60 68 72 63 53 45 41 39 45 48 49 50 53 55 60 66 76
98 95 94 94 87 88 80 89 93 86 84 76 82 82 85 83 80 77 78 72 69 73 73 65 63 62 59 56 57 54 54 55 47 40 41 40 41 42 45 48 51 56 64 72
95 91 80 77 71 72 72 74 72 72 77 83 82 74 76 69 67 60 61 68 67 64 70 67 61 61 64 63 59 50 45 40 40 44 46 43 44 46 48 50 53 57 61 69
91 89 76 73 80 75 74 71 72 69 77 79 77 70 72 64 59 61 61 54 55 67 63 60 58 56 55 52 51 49 47 45 48 53 47 45 50 54 56 58 62 65 68 71
87 86 81 82 80 78 76 76 76 74 75 80 69 66 65 60 59 55 55 63 58 50 49 48 50 55 55 56 52 57 54 53 56 60 51 51 58 65 69 71 70 72 75 83